GFSGL_sfc_dewp_000.txt.gz
Dewpoint
40 39 41 40 40 39 39 39 39 38 37 36 37 36 36 36 38 39 37 36 34 33 35 35 34 34 34 33 32 29 28 29 27 26 28 28 30 33 30 30 35 38 38
40 40 38 39 37 37 38 36 36 36 37 35 35 34 35 35 37 37 36 36 34 33 32 32 31 29 29 29 28 27 27 27 26 23 25 26 25 27 29 32 30 26 32
39 38 36 36 35 35 34 35 35 35 34 32 29 28 26 27 26 27 27 28 27 25 25 25 26 27 26 26 27 26 26 23 25 24 23 25 25 26 26 28 28 31 30
39 37 37 36 34 32 33 32 32 31 29 27 27 27 28 25 23 26 25 26 25 23 25 23 23 24 26 27 26 26 24 23 22 22 22 22 23 24 26 23 25 27 28
39 37 38 35 33 32 33 31 31 30 26 26 25 26 27 24 23 26 24 23 23 22 22 21 22 26 30 28 22 23 23 22 22 21 21 21 22 23 24 27 27 28 29
34 36 35 35 34 33 32 32 29 27 25 25 26 26 26 20 26 25 25 22 21 21 20 20 21 25 25 29 30 29 27 22 20 19 19 19 20 21 24 25 26 25 24
32 33 35 38 35 35 31 28 25 25 26 27 27 26 26 26 25 25 24 21 20 19 19 20 20 19 25 23 27 27 27 29 29 24 21 21 21 21 22 22 23 24 24
26 30 35 36 34 32 30 29 26 25 26 26 27 26 25 23 29 27 24 22 20 20 20 20 20 21 24 24 23 23 23 23 24 24 25 25 25 24 25 26 27 27 27
23 30 31 36 30 31 29 29 26 25 25 26 26 27 26 25 28 29 27 23 23 21 21 22 23 22 24 25 24 24 24 23 25 27 28 29 29 29 29 27 25 25 24
32 32 30 28 30 30 30 28 25 25 24 27 27 27 28 26 29 27 26 24 21 21 23 23 23 24 27 27 27 27 25 25 24 25 24 24 24 28 32 31 28 23 22
30 32 33 32 28 28 28 24 24 24 25 29 29 28 27 27 26 26 26 24 23 23 21 21 23 29 27 24 23 24 23 23 23 23 22 21 23 23 24 25 29 30 24
32 31 31 29 27 22 24 25 24 24 27 27 25 26 26 26 25 24 24 21 22 23 22 25 25 25 24 24 24 25 25 24 22 22 23 24 25 25 26 26 27 30 32
30 28 28 26 24 24 23 23 23 24 26 25 22 21 21 23 22 22 20 20 21 23 23 24 25 25 24 25 26 24 25 24 25 24 23 24 26 27 27 28 30 31 31
27 27 26 25 26 25 23 22 23 26 25 24 21 20 19 19 19 19 20 21 21 21 21 22 25 23 23 24 25 24 25 26 24 24 24 25 27 27 28 29 30 29 28
27 27 27 29 28 26 23 24 27 24 23 22 21 20 17 16 18 18 19 21 21 22 21 22 20 19 20 22 21 22 23 23 23 23 24 25 26 26 27 26 29 26 27
29 28 29 29 29 26 24 24 25 24 21 19 18 18 18 18 18 17 18 19 21 21 21 19 18 18 18 20 20 20 21 22 21 23 23 24 24 25 25 26 30 27 23
29 29 28 27 28 28 27 27 25 27 25 23 21 20 19 17 19 18 17 18 21 20 18 18 18 16 16 16 17 18 19 21 21 22 23 23 24 24 26 25 26 26 25
28 27 29 30 30 29 27 26 27 26 25 25 26 24 18 18 19 20 18 17 16 17 16 16 15 16 16 15 16 17 19 20 19 20 22 23 22 24 25 23 24 26 26
28 28 29 29 30 29 29 29 28 27 26 25 24 24 20 18 20 22 19 14 13 14 14 13 15 16 16 16 16 17 18 20 18 18 19 22 23 24 23 23 24 21 22
29 27 26 28 29 29 29 28 27 27 26 25 24 22 19 16 16 18 18 12 11 14 15 14 15 16 16 16 15 16 16 16 17 17 17 19 21 23 23 23 23 23 23
30 29 28 29 28 30 28 28 28 27 26 25 25 20 12 14 17 17 16 13 10 12 13 15 15 15 15 14 14 14 14 14 14 15 15 17 20 20 22 23 21 23 22
28 28 30 30 30 29 29 27 26 27 27 26 25 24 15 16 19 17 18 15 13 12 13 13 15 14 14 13 14 13 12 10 11 12 13 15 17 17 19 21 19 16 20
29 30 29 28 29 29 28 28 28 28 27 26 25 25 24 23 19 16 16 16 18 15 12 12 13 14 13 13 14 13 12 11 11 12 11 12 16 15 16 17 18 14 12
31 31 29 28 29 29 27 28 29 27 27 27 27 27 25 25 18 17 16 19 14 14 12 10 12 13 12 11 12 12 12 11 11 12 11 14 14 14 15 14 12 15 9
29 30 29 29 29 29 29 28 28 28 28 28 28 27 26 25 23 23 20 19 14 12 11 9 10 12 11 11 11 10 9 10 9 10 12 13 11 11 11 14 11 14 8
30 30 28 29 29 29 29 29 28 27 27 28 28 27 27 25 21 23 17 15 13 12 10 10 9 9 11 12 11 11 10 10 9 9 10 12 10 10 9 10 9 11 10

GFSGL_sfc_dewp_003.txt.gz
Dewpoint
38 39 39 38 37 38 37 35 35 35 35 35 34 34 34 34 35 36 36 36 35 34 35 35 34 34 34 37 37 35 34 33 29 26 28 28 27 27 28 32 38 37 42
38 39 37 37 35 36 34 33 33 33 33 33 32 29 29 28 29 32 34 35 33 30 28 27 27 24 26 28 30 30 28 28 28 24 25 25 25 26 28 29 30 26 37
38 38 37 37 34 31 30 31 30 30 30 28 27 27 26 27 26 26 27 27 26 25 25 24 23 23 22 24 26 27 27 24 24 23 23 24 23 24 23 25 26 29 28
40 39 40 41 36 30 32 31 30 28 26 24 23 25 27 26 26 25 24 24 23 23 24 23 22 22 22 25 25 26 25 22 21 21 22 22 23 23 25 26 27 28 28
33 36 39 38 36 37 36 33 32 29 25 22 22 24 25 24 23 24 22 22 21 21 22 21 21 23 26 28 25 25 23 21 21 20 20 20 20 22 22 26 24 26 26
24 25 30 39 39 38 36 35 32 26 21 21 23 25 24 22 26 25 23 20 20 20 19 19 21 23 25 27 30 29 28 23 20 19 18 18 18 20 22 22 23 23 22
25 27 37 37 37 38 38 35 25 23 21 22 24 25 24 23 25 24 24 21 20 19 19 20 19 18 23 24 25 26 25 26 27 25 22 22 21 22 21 20 21 21 22
27 31 33 35 36 38 37 29 25 22 20 22 24 25 25 24 28 27 24 22 22 22 22 21 21 23 26 23 22 22 23 24 24 23 24 25 25 25 24 23 27 27 25
31 31 31 33 34 33 32 29 27 22 21 23 26 25 25 25 29 28 28 24 24 23 23 22 21 20 23 26 25 25 25 24 25 25 26 29 30 31 30 29 26 24 21
32 32 33 34 33 34 34 29 25 21 22 26 26 26 28 26 29 27 28 23 21 22 22 21 22 23 29 28 25 23 21 20 22 23 23 23 23 24 24 28 27 26 24
32 33 33 33 33 32 31 23 21 21 26 25 26 25 25 26 24 26 23 22 21 22 20 21 23 23 25 25 25 24 23 23 24 22 21 21 21 22 23 25 25 26 25
30 31 31 31 30 25 22 22 22 23 23 23 18 19 22 23 23 22 21 19 20 21 21 22 23 27 23 23 25 27 23 24 21 21 21 22 23 24 25 27 28 28 28
29 28 28 27 25 24 24 22 22 23 21 21 22 15 19 21 19 20 20 21 21 21 22 23 25 22 23 24 25 25 24 25 24 22 22 23 25 26 26 26 27 29 30
28 28 27 26 27 26 24 23 23 20 19 23 20 18 16 17 16 17 19 19 22 22 21 22 23 22 22 24 23 23 23 23 22 22 22 24 26 27 27 28 27 27 28
28 28 27 27 27 26 23 23 25 21 21 19 17 18 6 5 14 19 18 19 20 23 21 19 19 18 18 20 20 20 21 22 21 21 22 23 24 25 26 27 27 27 26
28 27 26 26 25 26 25 25 27 25 23 22 21 16 11 17 19 20 18 18 20 20 19 18 16 16 16 16 17 18 19 20 20 21 21 23 23 23 24 26 26 24 24
28 28 26 26 25 24 23 23 19 24 28 26 23 22 21 18 21 21 19 17 16 18 16 15 14 13 14 15 15 16 16 20 20 19 20 21 22 23 23 22 21 21 21
27 26 23 22 22 23 26 25 26 26 23 26 26 25 25 21 20 23 21 16 11 14 15 14 13 12 14 15 15 16 16 18 17 18 18 19 21 21 19 21 20 19 22
27 24 21 18 19 24 27 27 26 26 25 25 22 24 22 19 21 20 19 7 5 7 14 14 15 13 14 14 13 13 12 14 14 14 15 17 18 21 20 17 19 19 18
25 23 21 20 20 26 27 26 26 26 25 25 23 16 18 12 5 5 3 -0 0 5 5 13 14 14 12 13 10 10 12 12 12 12 12 14 16 19 19 19 18 19 16
23 22 21 20 23 27 27 26 26 25 25 25 22 14 11 10 6 7 7 2 2 4 2 6 10 10 10 10 13 11 10 8 9 10 10 12 13 15 17 20 16 16 20
25 23 23 22 27 26 27 26 25 25 25 25 24 16 12 6 9 13 9 5 4 5 5 4 5 10 11 11 11 7 9 5 6 9 10 10 12 14 14 15 17 9 11
18 17 23 27 24 19 23 26 26 26 26 26 25 22 19 16 15 14 10 6 5 5 3 3 1 4 8 9 9 9 8 8 9 9 9 9 12 13 10 9 9 10 6
15 16 20 25 16 17 19 26 26 25 25 25 25 25 19 18 14 11 11 9 5 3 1 2 4 5 6 8 8 9 11 8 8 9 8 10 12 11 9 11 10 8 6
18 16 21 26 17 19 17 21 26 26 26 23 22 22 23 21 16 14 10 11 9 4 3 1 1 3 3 5 9 9 8 10 9 9 9 9 7 7 7 9 6 9 5
21 22 25 27 15 17 21 17 21 26 25 25 25 23 24 19 17 15 12 8 7 4 3 1 2 2 2 5 8 10 8 8 8 9 9 11 8 7 6 5 6 6 6

GFSGL_sfc_dewp_006.txt.gz
Dewpoint
38 38 38 37 37 38 36 36 35 35 36 34 32 31 29 29 30 31 32 33 34 32 30 28 27 27 27 28 29 30 33 34 32 29 29 27 25 25 25 27 34 37 41
38 39 39 38 36 36 35 34 34 33 34 32 32 28 27 26 26 27 29 28 26 25 25 25 24 21 22 23 24 24 26 26 28 28 25 24 23 25 25 26 27 27 39
31 36 39 39 39 34 33 33 31 30 30 29 27 25 25 26 25 26 26 25 23 23 23 23 23 22 20 21 22 24 25 24 25 23 22 24 23 24 23 27 26 27 26
26 29 30 32 37 34 32 34 36 37 37 30 24 25 27 25 26 24 23 22 22 21 23 23 22 21 20 22 23 24 24 24 23 22 22 21 22 22 25 25 24 25 25
27 27 32 38 36 35 36 37 37 38 36 27 24 24 25 25 23 23 22 21 21 21 22 21 20 21 22 23 25 30 27 25 22 20 20 20 19 19 19 23 22 23 23
26 31 36 37 37 37 36 36 37 37 26 23 23 25 25 22 27 26 23 21 20 19 19 20 20 21 22 24 25 26 25 25 25 25 20 18 18 19 21 21 20 20 19
27 32 33 37 36 37 37 37 37 30 27 23 23 24 24 24 28 27 26 22 21 20 21 21 20 18 23 24 25 25 24 25 25 25 23 22 21 21 21 21 20 20 21
31 31 32 33 34 34 35 34 34 28 25 22 24 25 24 24 28 29 27 25 23 23 23 22 21 21 21 21 21 25 25 25 24 23 23 23 24 24 24 23 23 24 26
30 31 32 33 33 32 33 33 34 28 21 25 25 25 25 27 29 28 27 24 23 22 22 21 21 21 24 26 26 23 22 21 22 24 26 27 28 29 29 27 26 25 22
31 31 32 33 33 33 33 32 30 21 25 25 25 25 26 24 26 23 23 21 17 20 21 20 21 21 23 26 26 24 21 20 21 21 22 23 22 23 23 24 25 24 24
30 31 32 32 31 31 31 25 21 25 25 25 23 24 24 23 23 21 20 20 19 21 19 19 21 24 24 22 23 24 24 25 24 24 22 21 21 21 22 23 24 23 22
29 29 28 28 27 24 24 23 24 24 23 21 15 17 20 21 19 19 19 19 20 16 20 21 23 22 23 24 24 25 24 24 23 21 21 20 21 22 24 25 26 27 26
28 28 27 27 27 26 23 21 22 22 20 20 21 14 18 20 17 20 20 20 21 20 21 22 20 21 22 23 22 24 24 22 21 19 21 23 24 25 26 26 26 27 29
27 27 27 27 27 26 23 23 22 19 18 22 20 17 15 16 14 17 18 15 20 22 21 21 21 21 20 21 21 22 22 22 21 20 21 23 25 26 26 27 26 27 26
28 28 27 26 26 26 22 23 24 21 21 19 18 17 4 4 13 20 20 17 18 19 15 16 17 16 16 16 16 18 20 21 20 21 21 22 23 25 25 27 27 27 24
28 28 27 25 23 25 25 24 27 26 25 25 23 16 10 18 20 22 19 18 16 17 13 12 10 11 14 15 13 14 16 18 19 19 19 20 21 22 23 25 25 22 23
32 31 28 25 24 23 21 22 17 22 28 28 25 23 23 22 21 21 19 17 15 16 9 10 8 10 9 15 14 14 13 16 18 17 18 18 19 21 22 22 19 17 19
29 28 26 24 20 20 16 22 25 20 16 17 23 25 25 23 21 22 21 15 9 10 9 9 9 11 13 14 13 12 12 11 11 14 14 15 16 19 18 18 18 16 19
31 26 24 17 18 18 18 19 22 23 20 20 17 24 21 24 20 20 19 5 4 5 8 9 7 10 12 12 8 8 7 8 8 9 11 13 14 17 17 19 17 14 14
29 25 18 19 22 23 18 19 23 22 19 19 17 14 15 11 5 2 -2 -4 -4 2 2 7 7 8 7 9 6 5 7 3 7 8 9 10 11 14 16 17 15 13 14
28 25 25 26 26 25 19 20 23 22 18 20 18 12 12 11 6 4 5 1 1 2 -1 3 1 -0 1 5 9 6 5 3 5 6 7 8 8 11 14 15 14 13 14
27 25 24 25 19 15 18 20 20 18 18 18 18 18 11 5 4 6 11 8 8 5 4 2 3 3 3 5 7 3 5 1 3 6 7 8 9 11 11 10 8 6 8
17 14 15 19 24 18 11 23 25 21 17 19 17 16 10 12 10 14 13 11 6 5 2 0 -3 0 -1 -1 -0 5 7 7 7 5 4 6 9 9 7 5 5 5 3
17 12 15 17 13 11 8 18 25 21 20 15 12 14 18 18 14 12 9 8 1 3 -2 -1 1 3 2 -3 -4 1 7 6 6 8 5 5 7 8 6 7 4 2 1
20 18 14 17 21 23 11 13 23 24 19 15 11 11 14 12 12 10 14 5 8 3 5 1 -1 1 1 -1 0 3 1 6 6 7 7 7 5 5 5 5 3 5 2
29 27 23 22 22 17 14 16 18 22 21 23 20 17 14 13 11 9 10 5 5 4 2 -1 2 2 0 1 3 5 3 4 5 7 6 8 6 5 5 4 3 3 5

GFSGL_sfc_dewp_012.txt.gz
Dewpoint
29 31 31 32 33 35 36 36 35 34 35 36 36 34 31 32 31 29 28 28 28 30 27 25 24 24 24 25 24 23 22 23 20 19 23 25 27 30 27 30 30 30 33
27 29 30 32 33 34 35 35 34 34 34 33 34 35 35 32 28 26 26 26 28 25 24 23 23 20 21 21 21 19 20 21 21 21 23 24 26 27 25 27 26 25 26
24 25 29 32 33 33 32 32 32 32 32 35 36 36 33 29 25 26 25 26 23 22 23 23 22 22 20 20 19 20 21 22 26 26 25 25 24 26 24 25 27 26 21
23 25 29 31 34 34 33 32 32 33 35 37 36 35 29 25 25 25 24 22 22 23 24 23 23 22 21 20 21 20 21 22 22 23 24 24 24 24 23 23 22 24 21
24 25 29 32 33 34 35 35 35 35 36 37 33 26 25 25 24 23 22 22 22 22 23 23 22 24 26 23 19 20 21 22 22 23 22 21 24 23 19 21 20 20 21
25 25 30 32 32 33 34 34 34 35 34 34 28 27 25 23 28 28 27 26 24 24 24 23 23 22 22 22 22 23 22 21 22 23 21 21 21 24 26 24 20 19 16
25 26 30 32 32 32 32 33 33 33 32 31 27 23 23 24 29 29 30 26 24 23 22 19 18 17 21 21 23 23 24 26 28 27 23 22 23 24 21 21 21 20 19
25 26 30 31 31 31 32 32 31 32 31 29 24 24 25 28 28 28 27 22 21 21 20 19 19 19 21 20 23 25 22 23 23 22 22 24 25 26 23 22 22 21 22
24 25 28 31 30 31 31 30 29 29 27 25 25 25 26 23 25 23 22 22 21 20 19 19 19 20 22 25 23 23 21 20 21 23 23 23 23 24 27 27 24 23 20
25 26 29 30 29 28 27 27 28 22 23 25 25 24 22 22 22 20 21 20 16 19 21 20 21 20 22 23 25 22 21 20 21 23 23 23 23 23 23 22 23 23 24
26 28 28 28 28 26 26 25 23 23 25 23 24 23 22 22 20 19 20 18 18 21 20 19 21 22 20 20 21 22 23 23 22 22 22 23 23 22 21 21 22 22 21
28 28 28 28 27 26 26 23 24 24 22 21 16 18 20 20 19 20 20 20 19 14 19 20 20 20 18 18 18 21 22 21 21 20 20 20 22 23 23 24 23 23 23
29 29 28 28 27 27 25 22 22 21 18 19 21 16 18 20 18 20 21 20 19 15 18 18 18 17 18 18 17 18 20 19 19 18 19 20 22 24 25 27 26 25 26
29 28 28 27 27 27 24 22 21 19 18 21 20 19 15 16 15 16 17 15 17 17 14 13 14 18 14 16 16 16 16 18 18 18 18 20 22 24 25 27 26 26 25
30 30 29 28 29 27 22 23 23 22 22 20 20 18 9 5 13 17 19 14 9 14 7 4 8 10 12 14 14 13 13 13 14 16 16 17 19 21 24 27 27 27 25
30 30 29 29 31 27 24 24 26 27 27 28 27 19 13 19 21 22 23 19 17 16 8 2 -4 -5 4 12 12 12 11 9 10 14 15 15 15 18 21 23 24 24 24
31 31 30 30 30 25 24 23 20 22 25 27 28 29 26 20 24 23 22 20 15 15 5 2 -5 -7 -1 10 12 11 10 9 9 10 12 13 14 16 18 19 21 21 21
31 30 28 28 27 27 25 24 20 16 19 16 21 26 28 27 26 24 22 18 10 9 7 4 1 1 5 9 10 10 9 7 6 6 7 10 11 14 15 17 18 18 18
32 31 30 28 27 26 24 20 18 17 20 17 14 19 22 27 27 25 21 10 8 6 7 8 3 4 6 6 -1 -1 1 6 4 3 5 5 7 11 13 15 14 12 13
33 31 29 27 25 23 19 18 19 19 21 19 12 14 12 19 9 4 -3 -3 -0 6 5 7 8 6 4 3 -4 -8 -2 -1 6 6 5 4 5 7 10 11 12 11 12
32 32 29 26 25 26 25 22 19 17 20 19 14 9 10 15 15 9 9 3 5 8 6 6 5 1 -2 -3 3 -1 -1 -1 -0 5 6 7 4 7 8 9 9 11 11
30 30 29 27 27 27 25 23 19 16 17 17 19 9 10 6 12 11 12 10 10 9 9 7 7 7 6 6 4 -5 -4 -5 -3 -1 3 6 8 8 7 7 8 8 9
30 30 29 26 27 25 17 17 17 15 15 16 18 17 11 12 13 13 17 12 9 8 6 6 4 4 3 0 -2 2 2 3 2 -2 -3 1 7 8 8 6 7 7 7
31 30 29 26 23 20 15 14 14 13 16 18 18 17 17 16 15 14 13 11 7 5 -0 3 6 7 6 -0 -4 -2 3 0 0 2 -3 -1 3 7 7 8 7 7 6
31 31 30 26 24 22 22 21 21 19 20 21 21 21 20 19 18 17 15 12 9 4 4 2 4 6 6 5 2 2 -1 4 -2 -3 -0 -0 -1 -1 4 7 6 7 6
31 31 30 28 26 26 26 26 25 25 24 25 25 23 21 21 21 20 19 15 12 10 7 3 4 5 5 5 4 2 -2 0 -2 -3 -4 3 0 1 1 4 6 7 6

GFSGL_sfc_dewp_015.txt.gz
Dewpoint
28 30 32 32 33 33 32 33 34 37 38 38 38 38 36 34 35 35 33 31 30 29 31 30 28 27 24 24 24 21 19 18 18 17 16 18 22 24 23 24 29 31 32
28 29 30 31 32 33 33 34 36 35 36 36 36 35 35 37 36 33 29 27 28 28 27 26 25 22 24 23 22 21 19 19 17 15 17 21 22 25 26 26 27 23 28
25 25 28 30 32 33 33 34 35 35 35 35 34 36 36 36 33 28 27 27 27 26 25 25 25 24 23 23 21 20 20 18 19 20 18 18 20 23 25 27 31 29 24
24 24 28 31 33 34 34 34 35 36 37 37 37 37 35 29 26 26 26 25 24 24 26 25 25 24 23 21 21 23 20 21 19 18 18 17 18 19 24 23 25 25 23
26 25 28 31 34 34 34 34 35 36 36 38 37 32 31 27 23 26 24 24 25 25 25 22 22 23 24 22 19 20 20 19 20 19 17 17 18 17 21 26 24 23 22
26 27 28 30 32 34 34 34 34 34 34 35 32 32 30 23 30 30 29 26 25 21 18 18 17 18 18 21 21 22 22 21 22 20 23 17 15 17 18 25 25 24 20
26 26 28 30 31 33 32 31 31 32 33 34 34 28 26 28 30 29 28 21 19 18 17 15 14 14 19 17 19 21 24 25 25 25 23 18 17 17 19 20 21 21 20
25 26 27 28 30 32 31 30 30 31 33 34 30 26 27 25 27 25 23 21 18 17 16 16 16 17 17 19 23 21 18 17 18 20 23 23 20 20 20 22 22 20 20
24 25 26 28 30 30 29 29 29 29 28 26 26 26 25 23 24 21 21 21 20 18 17 17 18 17 20 24 21 20 16 15 20 21 23 25 26 25 23 23 25 24 22
27 27 28 30 30 29 29 28 28 28 24 25 26 25 21 23 21 20 20 23 23 20 19 17 19 20 21 20 20 20 18 18 17 18 18 19 21 21 23 23 20 22 24
27 28 28 29 29 29 29 28 27 25 26 28 26 25 22 22 21 19 20 24 22 20 17 16 18 20 19 18 18 19 21 21 20 19 17 17 17 18 20 21 21 20 20
28 29 30 29 29 27 28 28 25 26 26 27 28 26 24 24 19 20 21 21 20 22 19 17 20 18 17 17 16 18 18 20 21 21 21 20 21 21 21 23 24 23 22
29 30 30 30 29 28 28 27 25 24 25 25 23 26 24 25 23 20 21 22 21 21 21 18 17 17 16 14 15 16 16 18 19 19 19 20 21 23 25 26 28 26 24
29 30 31 29 29 29 28 24 23 25 25 24 26 25 25 24 25 23 22 25 21 20 19 17 17 16 15 15 15 15 16 15 16 18 19 20 23 25 27 29 28 28 26
29 27 27 29 27 28 30 25 24 24 25 26 25 26 28 28 26 24 23 25 24 20 18 18 16 15 14 12 14 13 13 12 14 17 19 19 20 22 24 28 28 29 27
29 30 31 31 29 30 30 27 27 28 28 28 28 28 30 26 23 22 23 23 19 17 17 17 17 16 15 12 13 13 13 10 11 15 17 18 19 21 21 23 25 27 27
30 30 31 31 30 30 30 30 28 28 26 27 28 29 29 27 25 25 24 23 20 17 19 17 18 17 15 12 11 11 11 11 12 14 16 17 18 19 21 21 22 22 23
30 31 32 32 32 31 31 31 30 29 28 28 28 25 28 29 27 26 25 23 22 19 18 18 18 18 16 12 11 11 11 12 10 12 15 16 17 18 19 19 20 20 20
30 31 32 33 33 32 30 29 30 29 27 27 28 25 26 27 28 27 26 25 24 22 20 18 19 18 17 15 16 15 14 13 12 12 14 14 16 16 17 18 19 17 17
30 31 30 31 32 32 30 28 28 28 28 27 27 28 25 23 26 28 28 27 25 23 23 21 19 19 19 18 18 17 15 15 12 12 12 15 15 15 15 16 17 17 16
30 30 30 32 32 30 30 30 28 29 27 27 27 31 25 25 27 28 27 26 25 24 25 23 23 22 21 19 17 17 14 15 13 11 12 13 14 13 13 15 16 16 14
30 30 30 30 31 31 30 30 31 29 27 27 27 29 21 23 26 27 28 27 27 26 26 26 24 22 21 19 19 19 16 15 15 12 12 11 13 13 13 13 14 14 14
31 32 31 29 30 30 30 29 30 29 28 27 26 27 28 28 27 27 28 28 28 27 26 24 25 23 22 20 20 19 17 15 16 14 11 12 13 14 13 12 11 11 11
32 31 30 30 31 30 29 28 29 26 26 27 28 27 27 28 28 28 28 29 28 27 26 23 22 22 22 21 20 18 16 16 16 13 9 11 12 12 13 11 11 11 11
30 30 31 31 32 31 30 28 28 29 29 28 28 29 29 29 28 29 30 28 26 26 24 21 21 21 20 18 19 17 15 13 13 9 11 11 12 11 11 10 12 11 10
30 31 32 32 32 31 30 30 30 30 30 31 31 30 31 30 30 30 29 28 26 25 25 24 22 19 20 20 18 15 10 10 11 7 10 11 12 12 12 10 9 12 10

GFSGL_sfc_dewp_018.txt.gz
Dewpoint
29 30 31 30 31 30 30 30 30 32 31 31 32 35 36 37 36 36 36 37 31 27 27 26 28 26 24 24 24 23 22 20 19 19 17 19 21 21 23 24 26 25 24
28 28 28 29 28 29 30 29 31 31 32 32 33 33 33 33 34 35 35 30 25 25 26 26 25 20 25 25 22 22 21 20 19 18 19 19 21 21 22 23 22 19 21
24 24 26 27 28 29 30 30 30 31 31 33 32 32 32 36 37 35 29 26 26 26 27 27 26 26 25 23 22 20 19 19 22 22 19 19 19 19 20 22 23 26 26
24 23 24 28 29 30 30 30 31 31 32 31 33 33 35 31 28 28 26 27 26 26 28 27 26 24 22 22 19 20 19 22 21 20 17 18 19 18 21 20 25 25 28
26 24 26 29 30 30 32 30 32 32 31 31 32 32 33 32 30 31 28 27 27 26 26 23 20 21 21 21 19 20 19 18 19 19 18 18 19 19 17 18 20 21 23
26 26 27 28 29 30 30 31 31 30 30 30 30 32 34 29 30 30 27 25 24 22 20 18 18 19 19 20 21 21 21 20 21 21 22 21 18 19 20 20 21 26 19
25 25 26 28 28 29 28 28 28 29 30 30 31 33 32 30 30 28 24 23 23 20 18 17 15 13 19 18 19 21 24 26 24 25 20 20 21 22 19 16 17 21 21
24 25 25 25 25 26 28 28 30 29 29 29 29 29 28 27 27 23 22 24 21 19 18 18 18 17 18 20 20 21 18 17 15 14 19 20 22 24 25 23 21 21 21
22 21 22 26 26 26 26 29 30 29 29 28 27 28 29 27 24 21 22 24 22 21 19 18 17 17 20 21 20 17 15 14 17 21 21 22 22 23 24 23 22 20 22
22 23 24 24 25 26 27 28 30 30 27 25 26 29 25 27 22 20 21 25 26 23 21 17 16 19 20 19 20 19 18 15 15 17 18 18 19 20 23 23 19 21 21
24 24 24 25 26 27 29 30 29 28 26 30 29 29 27 26 25 20 20 26 25 22 20 18 17 19 19 18 18 20 20 18 18 19 18 19 18 19 20 22 23 22 22
25 25 26 28 28 26 30 30 30 28 27 29 33 31 28 28 23 22 21 21 22 25 23 21 22 17 18 17 16 17 17 19 21 21 21 21 22 23 23 24 26 25 23
27 27 28 29 28 28 29 29 28 27 27 27 26 28 26 28 28 23 21 21 23 25 24 21 19 17 16 14 13 16 17 19 19 20 20 20 22 25 27 29 27 26 26
27 28 28 27 27 28 29 28 28 27 27 25 26 25 25 24 27 26 27 26 25 24 23 22 20 19 18 16 16 15 16 16 17 20 20 21 23 25 27 30 30 30 27
27 27 27 28 27 27 27 28 30 27 27 27 27 26 31 30 28 28 26 26 27 24 23 25 22 19 17 16 16 15 16 14 14 19 21 21 21 22 24 27 28 31 28
29 29 29 30 29 28 27 28 29 28 28 28 28 30 34 30 27 25 24 23 24 21 22 22 24 23 21 17 17 17 17 14 12 16 19 20 20 21 22 25 26 27 28
29 29 29 29 29 29 29 29 29 30 29 29 29 29 30 31 29 26 25 25 24 21 23 22 23 24 22 17 16 15 16 16 14 14 17 18 20 20 23 22 24 24 24
29 30 30 30 31 31 31 31 30 30 30 31 30 28 28 29 30 27 27 26 24 24 23 23 23 23 21 17 16 15 15 17 17 14 16 18 19 19 21 20 21 22 20
29 29 32 33 31 31 32 32 32 30 30 29 28 27 29 28 28 29 28 28 25 24 23 21 23 22 21 20 22 21 19 19 17 17 17 16 18 17 17 17 19 20 18
29 30 30 30 30 30 33 31 30 31 31 30 28 27 26 28 31 31 31 31 29 26 26 23 23 23 23 23 23 23 21 20 19 16 17 18 19 17 16 17 18 18 16
29 29 30 31 30 29 31 31 30 32 32 31 32 34 28 29 30 30 30 33 30 28 30 26 26 26 25 24 22 22 20 20 18 16 16 16 17 17 15 15 17 16 15
31 32 32 32 31 31 29 31 32 32 32 32 32 32 29 32 30 30 31 33 33 33 31 30 28 26 25 24 23 23 21 20 20 19 17 14 15 17 16 15 14 15 14
32 33 32 31 31 30 31 31 32 33 33 33 32 32 32 33 33 31 33 33 34 34 33 30 31 28 27 27 27 24 22 21 20 20 17 16 16 18 18 17 14 13 12
34 33 29 30 32 33 33 32 32 31 32 32 32 33 33 33 33 33 33 33 33 33 33 30 30 29 27 27 26 25 23 22 21 18 16 15 16 16 17 15 14 13 13
33 32 32 32 32 33 32 33 33 32 32 32 32 32 33 33 33 32 33 33 33 32 32 32 30 29 28 26 25 25 22 18 18 16 17 15 15 14 14 14 14 14 12
31 31 32 32 32 32 32 32 32 32 32 32 32 32 32 32 33 33 33 33 32 32 32 32 30 29 28 26 25 24 21 16 16 13 17 16 16 16 15 14 11 14 13

GFSGL_sfc_dewp_021.txt.gz
Dewpoint
33 34 37 31 31 32 32 31 30 31 30 29 30 31 31 31 31 33 34 36 35 35 34 29 30 29 28 26 27 24 23 23 22 22 20 22 23 24 22 25 25 27 26
32 30 31 31 29 30 31 30 30 30 30 29 29 30 29 29 31 33 34 35 34 30 28 29 28 24 27 26 23 22 22 22 20 19 20 22 22 22 23 23 21 18 23
30 28 28 29 29 30 30 30 30 29 29 29 29 30 29 32 34 31 28 28 28 29 29 27 27 27 26 22 22 21 20 16 21 23 22 22 22 21 21 22 20 24 19
30 24 26 28 30 31 31 30 31 30 30 29 30 29 30 29 29 30 29 29 29 28 30 29 27 24 21 22 19 19 18 20 20 20 19 17 19 20 23 23 22 24 22
28 25 27 28 30 31 30 30 30 31 29 28 29 29 29 32 30 31 30 30 28 28 27 24 22 21 19 20 18 19 19 18 18 17 18 20 20 21 23 22 22 21 22
28 28 28 28 29 30 29 30 30 29 28 29 28 28 30 31 31 29 26 25 25 25 23 21 20 23 22 22 22 22 22 19 21 23 21 16 15 19 22 25 25 21 16
28 26 26 27 28 27 26 24 26 28 30 29 28 29 30 31 31 27 24 23 24 24 21 19 17 14 21 20 22 23 23 25 26 24 22 20 21 22 21 23 23 24 21
26 26 26 26 22 22 23 24 26 29 29 29 28 28 29 28 29 24 23 24 25 23 22 21 20 19 20 21 19 18 17 15 15 12 16 18 19 18 17 17 19 19 21
26 24 21 21 22 23 23 25 27 28 29 28 27 27 27 29 27 24 22 25 25 23 22 21 19 17 21 21 19 18 15 15 17 21 19 21 23 24 23 24 22 20 23
22 20 21 21 21 22 24 26 28 29 27 26 25 26 27 30 26 23 22 26 26 24 22 21 20 18 19 19 20 19 18 15 13 14 17 19 21 21 25 23 21 22 21
22 21 21 22 23 25 27 27 29 28 29 30 30 30 29 30 28 24 22 24 26 24 22 21 21 20 19 19 19 19 20 17 17 19 21 19 20 22 23 24 25 26 25
24 24 24 24 25 26 28 29 29 29 30 30 34 31 32 30 27 25 23 23 23 25 24 23 24 22 19 18 17 16 17 18 23 21 22 21 22 23 23 25 26 24 26
27 26 26 27 27 27 28 28 29 28 29 29 29 31 29 31 31 27 25 23 23 26 26 24 22 21 19 19 16 16 19 19 18 20 21 21 21 23 24 29 30 33 26
26 26 27 28 26 27 26 26 28 30 30 28 28 28 28 26 27 30 28 27 25 26 26 26 24 23 22 21 21 19 19 19 16 17 20 21 24 24 25 27 29 30 31
27 28 28 31 30 28 26 27 29 30 30 29 30 30 35 33 28 29 29 30 30 27 25 26 24 23 21 20 19 19 19 18 16 17 19 21 21 21 22 26 27 29 30
30 30 32 31 30 28 26 27 30 31 31 28 28 30 35 31 30 28 27 26 23 24 23 23 24 26 23 21 20 19 19 18 17 15 17 17 18 20 21 23 24 25 26
30 31 30 30 30 28 29 30 29 30 31 30 30 30 30 31 31 30 28 26 25 25 23 23 26 26 24 20 19 17 17 18 19 18 17 18 18 18 21 22 22 23 22
30 30 30 30 31 32 30 32 32 31 33 33 33 30 30 30 30 30 29 27 26 26 24 23 24 25 23 20 19 18 19 20 19 17 19 19 19 17 19 17 20 21 20
30 30 31 34 33 32 32 31 32 32 32 32 31 30 30 30 30 30 30 28 26 25 25 25 28 25 23 22 24 24 23 22 21 20 19 19 21 18 16 16 18 18 19
30 31 31 31 32 32 31 31 30 33 32 31 32 31 29 28 31 31 32 32 31 28 28 26 26 25 26 25 26 26 24 24 22 20 20 20 20 19 18 16 18 17 15
32 33 32 33 32 32 33 31 31 31 31 31 32 34 31 30 32 32 32 33 32 30 31 29 30 31 31 28 24 24 23 22 21 20 19 19 19 18 19 18 16 15 14
33 33 33 33 33 33 33 33 31 31 31 31 32 33 32 33 32 31 31 33 33 33 32 32 31 30 30 27 26 27 24 23 22 21 20 19 17 18 19 19 17 15 14
34 34 33 31 32 31 33 32 32 33 33 33 33 33 34 34 33 32 32 33 33 34 34 33 33 31 32 32 31 27 24 23 23 22 20 19 17 19 19 19 17 15 14
34 36 32 31 33 32 33 33 33 32 33 33 33 33 33 33 33 33 33 33 34 33 33 33 32 31 30 31 31 28 25 25 23 21 19 18 17 17 18 17 16 16 15
36 35 33 33 33 32 32 33 33 33 33 32 32 32 33 34 33 33 33 34 33 33 33 33 33 31 31 30 29 27 26 23 22 20 20 18 17 16 15 16 16 15 17
33 33 33 33 33 31 31 30 29 30 30 31 31 32 32 33 33 33 33 33 33 33 33 33 33 32 32 31 29 27 26 23 21 19 19 18 17 18 18 17 14 14 15

GFSGL_sfc_dewp_024.txt.gz
Dewpoint
40 40 40 39 39 37 37 35 33 34 34 34 34 33 33 34 34 35 35 35 36 36 36 36 36 33 31 30 30 28 25 25 22 21 21 23 22 23 23 24 25 23 24
38 36 37 39 36 37 36 34 34 33 34 33 33 32 33 33 34 35 35 34 34 33 31 32 31 27 29 29 27 24 23 22 20 18 21 22 22 23 23 23 22 20 22
35 34 34 36 35 36 34 35 34 34 33 33 32 33 33 33 34 34 33 32 31 31 31 31 30 29 27 25 24 21 21 19 22 21 19 21 21 22 21 22 23 25 23
36 35 32 36 36 34 35 35 34 34 33 33 33 33 34 32 31 32 31 30 31 31 31 30 29 26 22 21 18 19 18 20 19 19 18 19 19 20 22 23 22 23 23
38 33 34 34 33 34 36 35 35 35 33 33 32 32 33 32 30 32 30 30 30 29 29 27 25 23 22 20 17 19 20 20 19 18 18 19 20 19 18 22 24 24 24
38 34 33 34 32 35 35 34 35 34 32 32 32 32 33 30 31 29 26 25 27 26 25 23 22 25 25 25 25 24 23 20 19 20 21 20 19 21 23 23 22 21 20
35 33 33 33 32 34 30 29 29 31 33 33 33 32 31 31 31 28 25 23 25 26 24 22 20 17 25 22 23 22 22 24 24 22 21 21 24 22 20 18 18 18 19
32 30 32 32 29 28 29 28 30 32 32 33 32 32 31 30 31 27 25 22 26 25 23 23 21 21 22 21 20 19 19 18 17 16 17 16 18 19 20 20 20 20 21
32 32 31 27 26 27 27 29 31 31 32 32 31 30 30 29 30 27 23 24 27 25 24 23 22 19 22 21 20 19 17 17 18 19 18 20 23 25 25 23 22 21 20
30 27 26 25 27 27 29 30 31 31 31 31 30 31 29 30 29 26 23 27 26 27 25 23 22 20 19 19 20 20 18 18 16 14 18 21 22 23 26 29 27 23 22
32 27 27 29 29 29 30 30 31 31 31 31 29 30 29 31 28 27 25 25 26 26 25 24 25 21 22 21 18 20 19 18 18 19 20 20 23 23 23 24 26 28 26
29 29 29 30 28 26 31 31 31 31 31 31 31 31 32 30 30 29 27 25 25 23 25 25 25 23 23 21 20 20 19 20 19 18 20 20 21 22 23 24 26 30 32
31 31 31 29 29 29 29 29 29 30 31 31 31 32 30 31 31 29 29 27 26 23 25 26 25 24 25 23 23 21 19 19 18 13 16 20 21 23 24 24 25 27 28
31 30 29 30 29 29 29 28 29 30 30 31 31 30 30 30 31 29 27 26 26 25 25 26 24 23 21 21 21 23 23 22 19 16 15 18 22 22 22 23 23 25 26
28 29 31 32 32 31 29 29 30 29 30 30 30 32 32 29 30 29 31 31 31 28 22 21 21 23 22 22 22 21 22 22 19 16 14 17 19 20 20 22 24 24 24
31 32 33 32 32 30 29 29 30 31 31 31 30 29 32 32 30 29 29 29 28 25 21 19 17 19 21 21 18 19 18 18 19 17 16 16 17 18 18 20 23 23 22
31 31 32 31 31 31 31 30 30 31 32 32 31 31 30 29 31 31 31 30 28 25 20 19 19 20 24 22 20 19 16 17 17 19 15 16 16 17 18 19 20 22 21
31 31 30 31 32 31 31 30 28 27 27 29 32 31 31 31 31 30 31 30 26 26 24 23 22 22 22 21 20 19 18 16 16 16 13 19 15 15 15 17 18 18 19
31 31 32 33 32 32 31 30 29 30 29 29 30 30 29 32 31 30 31 27 25 24 25 25 24 23 25 22 20 18 18 15 14 10 15 18 18 18 17 14 17 16 16
31 31 31 32 32 32 31 31 30 30 29 30 31 30 30 31 29 29 28 27 26 26 25 25 24 24 25 24 22 20 18 15 21 18 16 12 17 12 14 17 12 15 16
32 33 32 33 34 33 32 30 30 31 31 28 29 30 29 32 32 29 28 28 28 27 27 27 27 26 27 26 23 22 19 17 16 15 16 14 11 9 18 17 18 14 16
32 32 33 33 33 31 31 30 29 29 29 29 29 29 29 32 32 31 31 30 30 30 30 29 28 28 28 27 26 23 22 18 16 15 14 15 12 12 16 16 18 13 13
31 31 31 32 32 29 30 28 28 29 29 32 31 30 30 31 32 32 32 32 31 31 31 31 31 29 29 29 28 25 24 23 20 18 14 13 13 12 14 10 16 12 9
31 32 32 32 32 30 29 29 29 28 31 31 31 31 31 31 32 32 32 32 32 32 32 32 32 31 31 31 29 27 24 25 21 17 13 11 11 12 13 11 11 11 9
28 29 29 30 32 31 31 28 27 26 29 29 30 30 29 29 29 31 32 32 32 32 32 33 32 32 32 31 31 28 25 24 22 18 16 11 9 9 7 9 8 9 11
27 29 29 29 30 31 30 27 25 26 26 26 26 27 27 26 25 26 25 25 26 28 29 31 32 32 32 31 31 30 25 24 21 18 18 16 12 9 9 9 9 7 10

GFSGL_sfc_dewp_027.txt.gz
Dewpoint
39 38 36 36 37 37 36 34 33 33 31 31 31 31 31 32 33 33 34 33 34 34 35 36 35 36 35 33 30 27 25 23 20 20 21 23 22 23 23 25 25 24 24
38 37 36 37 37 36 37 34 34 32 31 31 31 32 33 33 33 33 33 32 31 31 31 30 30 28 27 27 25 21 20 20 20 19 19 20 21 22 23 22 21 22 23
34 34 34 37 36 35 34 34 34 32 31 31 31 32 33 33 32 33 33 31 30 31 31 30 28 27 25 23 21 19 19 19 20 19 18 20 21 21 21 22 23 24 24
34 34 35 36 35 35 34 33 32 33 32 30 31 32 33 33 33 32 32 31 32 31 31 29 28 23 20 19 17 17 18 19 19 19 18 18 19 21 22 21 22 25 24
36 35 35 36 37 34 35 34 34 33 31 32 33 32 32 33 31 31 28 28 27 27 27 26 23 22 24 20 17 18 20 20 20 19 18 19 19 20 20 25 22 21 20
38 38 36 35 34 35 34 32 32 31 32 33 31 31 32 30 32 30 27 25 25 25 24 22 21 24 25 26 25 24 23 21 20 19 20 19 19 21 25 21 19 17 15
40 38 36 35 33 32 29 28 28 28 31 32 32 31 31 31 32 29 27 23 23 25 23 21 21 23 23 21 21 20 20 21 21 21 18 17 16 18 19 18 18 19 19
34 34 31 31 30 29 28 28 30 32 30 30 31 31 32 30 32 30 26 21 24 25 23 22 21 21 22 21 20 19 19 19 18 16 17 15 16 19 21 21 21 21 21
32 28 28 29 29 30 31 32 33 31 30 31 31 31 30 30 31 29 24 23 25 25 24 23 23 20 21 20 20 19 18 18 18 20 19 22 23 25 24 25 25 25 20
31 30 31 33 32 32 34 32 30 29 30 31 28 29 31 29 31 29 25 25 25 25 24 23 23 20 20 20 21 18 18 17 18 17 18 20 22 23 26 24 23 23 23
33 34 34 33 33 33 31 30 30 30 30 30 30 28 29 29 28 30 29 25 25 26 25 24 23 22 22 23 22 20 19 20 20 19 19 19 20 22 22 23 24 25 25
35 34 33 33 32 29 30 30 29 29 28 29 29 29 29 29 30 31 30 27 26 22 24 24 24 26 24 24 24 23 23 22 14 16 17 17 20 20 21 23 24 25 25
33 33 32 32 31 29 28 28 28 28 27 28 28 29 30 30 29 31 30 29 28 23 24 24 27 25 25 26 26 26 23 19 14 9 13 16 18 20 22 23 23 23 26
31 31 31 30 30 30 30 29 28 25 25 28 27 27 30 31 28 28 27 28 27 25 23 24 23 24 21 21 21 23 22 20 18 13 12 15 18 19 19 21 20 23 23
30 30 30 28 29 30 31 30 28 28 28 26 26 27 24 30 32 29 28 26 24 25 18 18 20 18 20 22 20 20 20 19 16 12 11 13 16 18 18 19 20 22 21
30 30 28 27 28 29 29 28 30 31 32 32 32 29 28 30 32 33 34 32 30 30 26 16 13 11 15 20 18 18 15 15 16 15 10 13 13 14 17 18 20 21 20
29 29 28 29 29 28 26 26 26 28 30 30 30 31 32 30 31 32 31 30 30 27 15 16 12 13 15 21 20 18 15 14 14 14 11 9 11 14 14 17 18 18 18
29 29 29 29 28 27 26 28 29 27 25 26 28 30 31 32 31 31 31 32 24 27 20 19 18 18 20 21 20 18 16 12 12 12 7 4 5 9 10 13 15 14 16
29 29 29 29 30 31 30 29 29 26 26 27 28 27 27 31 32 32 31 30 25 24 23 23 22 22 22 22 22 18 11 8 7 4 4 6 6 10 8 14 12 13 14
31 28 28 30 31 32 31 30 31 29 27 27 27 27 27 23 26 29 30 30 28 25 24 24 25 24 24 24 25 21 15 10 8 7 7 4 1 4 5 7 8 8 15
31 30 30 31 31 32 33 32 31 27 27 27 27 28 28 27 28 29 29 28 28 28 26 26 26 25 25 22 22 21 20 18 15 13 10 6 -1 5 6 10 8 13 13
31 30 30 30 31 32 32 32 30 26 23 23 26 26 26 29 28 30 31 30 29 29 30 29 28 27 26 26 25 23 21 19 14 13 11 10 7 6 5 9 6 7 9
23 23 24 26 27 27 28 29 31 26 23 22 28 28 25 28 29 30 31 32 32 32 31 30 30 29 28 28 27 27 24 21 20 18 14 12 9 5 5 6 6 5 4
23 24 25 26 28 28 28 28 29 27 23 20 22 28 28 29 29 29 30 32 32 32 32 32 32 32 30 30 30 28 27 25 23 21 16 14 12 8 3 5 5 4 5
18 19 20 19 20 21 21 23 25 25 23 22 22 18 23 24 23 24 24 24 26 25 26 29 32 32 32 32 31 29 28 27 24 20 17 13 10 7 4 4 2 5 3
14 16 13 14 14 15 17 18 18 19 19 20 19 18 18 18 19 19 20 21 18 18 19 21 21 22 23 30 32 31 28 27 25 20 18 16 11 6 2 3 2 3 5

GFSGL_sfc_dewp_030.txt.gz
Dewpoint
36 36 36 36 37 37 37 35 34 34 33 32 32 31 30 31 32 32 33 33 33 34 33 34 36 35 35 34 31 26 24 22 20 20 21 22 21 21 22 24 24 23 24
37 37 37 37 39 37 36 35 34 33 33 32 32 31 31 32 32 33 33 33 31 30 31 31 31 32 29 27 25 21 20 20 19 18 19 19 19 20 21 22 21 21 24
40 36 36 36 37 35 36 35 34 32 32 32 31 30 31 32 33 33 34 32 30 31 31 30 29 28 26 24 21 19 19 19 20 19 18 19 19 20 20 22 22 23 24
37 34 35 36 37 35 36 34 34 33 33 32 32 32 34 32 32 32 31 31 31 31 31 29 27 25 21 20 18 17 18 19 19 19 19 18 19 20 22 21 22 23 21
37 35 35 37 37 36 35 34 34 34 32 32 32 33 34 33 32 32 30 29 27 26 26 24 23 23 25 21 18 18 19 19 19 19 19 19 18 19 20 21 23 19 18
36 36 37 38 37 37 35 34 30 29 29 31 31 33 32 32 33 34 30 25 25 25 24 22 21 24 26 26 25 24 21 19 18 19 19 17 17 16 18 18 19 17 17
38 39 37 35 32 32 31 29 30 31 32 31 31 32 32 33 33 32 30 24 24 24 24 21 20 23 24 21 21 20 19 18 18 20 17 17 15 15 16 18 19 20 20
34 33 33 33 31 32 33 34 35 34 32 31 31 32 32 32 33 32 29 22 23 25 24 22 22 21 22 21 19 18 18 18 18 17 18 17 17 20 22 23 24 25 24
29 31 32 33 34 36 37 36 34 33 30 30 31 32 31 31 33 31 26 22 24 25 25 24 23 21 23 23 20 19 18 18 17 20 20 22 22 23 24 25 22 22 19
33 34 36 37 37 36 36 34 32 30 30 31 30 30 30 29 33 31 27 24 24 25 25 23 24 22 24 22 22 20 17 16 17 18 18 19 20 21 24 23 23 21 21
38 39 38 38 37 35 34 31 30 29 28 27 28 29 29 29 29 32 31 24 25 25 25 24 23 25 24 24 24 21 18 19 20 21 18 18 18 20 20 22 23 23 22
38 38 36 34 32 31 31 28 28 27 27 27 25 27 28 30 30 31 32 29 26 24 25 25 24 25 26 26 25 25 25 24 17 16 16 17 17 17 19 20 22 23 24
33 32 32 32 32 31 28 27 27 27 25 26 27 25 27 29 30 31 32 31 29 24 25 25 25 27 27 26 27 27 23 20 14 9 15 15 16 18 20 20 21 22 23
30 30 30 30 29 29 29 29 29 25 25 27 27 26 25 27 28 28 31 31 29 27 25 25 24 24 21 21 21 23 22 20 18 15 12 13 16 17 17 19 19 21 22
29 29 29 28 29 29 29 30 29 28 27 26 26 26 23 25 27 30 28 29 29 28 25 20 20 19 21 22 20 21 20 18 16 11 11 12 14 16 17 18 19 20 18
29 29 28 27 27 29 28 28 30 31 31 32 32 29 27 30 30 31 33 33 31 30 25 23 22 19 19 20 18 18 16 15 17 15 10 12 11 11 15 18 18 17 17
29 29 28 28 28 28 28 28 27 29 31 31 31 31 31 30 31 32 33 33 33 31 27 25 24 19 18 18 19 19 18 15 15 15 15 9 8 12 11 14 15 16 16
29 29 28 29 29 29 28 28 28 28 28 25 27 29 29 31 31 32 32 32 31 30 25 23 20 18 18 19 19 18 18 13 13 13 9 3 -1 7 7 10 13 7 13
30 28 28 31 31 30 31 31 30 30 31 30 28 26 25 30 31 31 32 31 29 26 26 24 22 21 20 21 21 18 15 14 13 7 6 5 -1 7 6 8 7 9 8
28 27 27 29 29 29 29 30 30 30 30 30 28 28 27 21 26 27 25 30 30 27 27 26 25 24 23 22 22 22 18 18 16 10 6 2 -2 1 3 3 3 9 11
21 22 22 23 23 24 25 28 28 27 29 30 29 29 24 24 27 24 25 27 29 30 29 27 27 26 25 25 24 23 22 21 20 17 13 9 -1 3 4 2 5 14 12
21 22 22 23 24 24 25 26 25 26 25 26 29 27 24 23 26 28 28 29 29 29 30 30 28 27 26 25 24 23 22 21 20 18 15 11 9 7 3 4 3 3 6
18 17 18 18 19 19 19 20 22 22 24 27 26 25 27 27 28 28 28 28 29 29 31 31 30 29 28 28 29 27 23 22 23 20 18 12 10 8 2 3 3 2 2
13 14 12 12 13 12 14 15 16 16 19 20 21 21 20 21 20 20 20 18 21 21 22 24 25 30 30 29 29 28 28 26 26 24 22 17 14 9 2 2 3 1 0
9 10 7 8 7 8 10 9 10 12 13 13 13 14 15 16 16 16 15 17 14 15 17 18 20 20 22 20 27 29 29 28 27 26 23 20 16 10 8 6 3 3 0
7 9 5 5 4 6 6 5 7 7 7 8 10 11 11 11 11 11 11 12 10 11 13 16 17 17 18 18 19 21 28 29 27 26 24 21 17 13 8 8 6 2 3

GFSGL_sfc_dewp_033.txt.gz
Dewpoint
39 38 38 37 38 35 33 33 33 35 34 34 34 33 32 31 32 33 33 33 33 32 33 32 33 35 35 34 33 29 26 26 24 20 21 21 20 20 20 22 24 23 24
40 41 39 37 36 35 34 34 35 33 34 34 33 32 31 31 31 32 31 32 32 30 30 31 32 34 33 29 27 24 21 20 19 17 18 19 19 19 20 21 21 21 23
41 40 36 37 36 35 35 35 34 33 33 32 32 31 31 32 32 32 32 33 31 30 30 30 29 28 26 26 23 21 19 18 19 19 19 19 19 19 19 21 22 22 23
40 38 38 37 37 35 35 35 35 34 33 32 32 33 33 33 32 32 32 31 31 31 31 30 29 27 25 22 20 19 17 18 19 19 19 18 19 19 21 21 18 20 19
40 38 39 37 38 37 37 36 36 35 33 33 33 33 34 33 31 33 31 30 29 28 28 26 24 23 25 22 18 17 19 19 19 18 17 17 18 17 17 16 16 17 19
40 40 39 39 38 37 35 34 33 33 33 33 34 34 33 31 33 35 32 29 27 25 24 23 21 26 27 28 26 25 22 19 18 17 17 17 15 16 16 16 17 18 17
39 40 37 34 32 33 33 34 35 36 37 35 33 31 31 32 34 35 33 27 25 24 24 22 21 20 26 25 26 23 21 21 20 18 17 16 17 16 17 18 20 20 21
35 33 33 34 34 35 35 37 38 37 36 35 32 31 31 31 33 34 33 24 24 24 25 23 22 21 24 21 20 19 19 19 18 16 17 18 18 19 20 21 25 24 23
32 35 36 37 37 38 37 37 37 37 35 31 31 30 29 29 33 34 31 23 23 24 25 24 23 22 24 26 22 20 19 19 17 20 20 22 22 22 21 21 20 20 17
35 37 39 39 38 37 37 37 35 32 30 30 28 28 30 29 31 34 31 24 24 25 25 25 28 24 25 26 22 21 19 18 16 17 19 20 20 20 21 21 21 19 18
40 40 39 39 38 38 36 35 33 30 28 27 27 28 28 29 29 32 33 26 25 25 25 24 24 27 26 26 25 22 20 20 20 20 21 19 18 18 18 19 21 21 19
39 38 37 37 34 32 31 30 29 28 27 27 25 27 27 28 30 31 32 32 28 26 25 25 25 27 27 26 26 26 26 24 19 18 16 17 17 17 17 19 20 21 22
32 31 31 31 31 31 29 28 27 27 26 26 27 26 26 27 27 31 32 32 32 28 29 26 27 27 28 27 28 28 24 20 15 9 16 15 16 16 18 20 20 20 22
29 29 29 29 29 29 29 29 28 26 25 27 27 26 26 26 26 26 27 28 30 31 29 28 27 27 25 25 22 25 22 21 19 16 14 13 15 16 15 18 18 19 19
29 29 29 28 28 29 29 29 29 29 28 27 27 26 24 25 26 28 28 26 28 30 29 26 25 24 23 23 21 22 20 19 16 12 10 11 15 15 15 17 17 16 12
29 29 28 28 28 28 28 28 30 31 31 31 31 29 29 29 30 30 31 32 32 31 27 23 23 23 23 22 21 21 17 16 18 16 9 12 13 11 13 16 17 13 13
28 29 29 28 28 28 28 28 29 29 31 31 31 32 32 31 31 31 31 32 32 31 28 24 24 24 23 22 21 20 19 18 16 15 14 12 10 10 10 12 13 13 13
29 28 27 27 27 27 27 27 28 28 28 28 30 30 30 33 33 31 31 31 29 31 30 27 26 26 25 22 21 20 19 16 12 13 11 10 8 6 7 9 10 5 10
22 22 22 23 24 24 24 23 24 24 25 27 29 28 29 30 31 32 31 29 28 28 27 28 26 25 24 23 22 21 19 15 10 6 11 12 6 8 6 7 5 7 6
20 21 20 22 22 22 22 22 23 23 23 23 24 25 28 24 23 27 20 20 29 28 28 27 26 25 25 24 23 22 19 15 12 13 12 12 8 6 6 4 -1 3 11
19 19 18 20 19 19 19 19 20 20 20 19 23 26 26 27 28 27 28 22 25 28 29 28 28 28 27 26 24 22 21 20 19 17 16 15 8 6 7 3 1 7 11
15 16 15 14 15 14 14 16 16 16 17 17 17 17 19 22 24 24 27 27 28 27 28 26 29 29 28 27 26 25 23 22 21 19 17 17 14 11 7 2 -0 1 5
12 11 9 11 10 8 10 10 10 11 12 12 13 14 15 15 16 16 17 19 19 17 19 21 21 22 27 28 28 27 25 24 24 22 20 17 15 13 8 2 2 -0 0
8 3 6 6 4 4 5 3 5 7 6 6 7 10 11 11 12 12 13 15 13 11 13 14 17 19 20 21 23 29 28 27 26 24 23 20 17 13 10 2 3 0 -1
-0 -4 -4 1 -4 -1 1 -1 0 3 0 1 3 4 6 8 8 9 10 11 11 9 8 10 13 15 18 18 19 20 21 28 28 26 24 23 20 16 13 9 3 2 -2
1 -1 -3 -4 -4 -4 -4 -5 -3 -2 -4 -1 0 1 2 4 6 7 8 9 8 7 8 8 9 9 13 16 18 20 20 20 25 27 25 23 20 17 13 12 8 7 4

GFSGL_sfc_dewp_036.txt.gz
Dewpoint
45 44 44 44 46 45 43 40 37 35 37 38 34 34 34 33 33 32 33 34 33 33 33 34 33 33 35 34 33 32 30 30 28 26 23 21 20 19 20 21 23 23 24
45 44 45 44 43 41 38 34 35 34 37 34 35 34 33 32 32 32 33 32 33 32 32 31 33 34 33 32 31 28 25 23 20 18 18 19 19 20 20 20 20 20 23
44 44 44 39 39 34 33 34 35 35 35 34 34 33 33 33 33 33 32 32 32 32 30 30 30 29 29 28 26 24 21 19 20 19 18 20 20 19 18 20 21 22 21
43 42 38 41 37 36 36 35 35 35 34 33 34 34 34 33 33 33 32 32 32 32 31 31 30 29 28 26 24 22 19 18 19 19 19 18 18 18 20 19 16 17 17
41 39 39 39 38 37 37 36 37 35 34 34 34 36 36 36 32 33 32 32 31 30 30 30 30 29 30 25 20 20 18 18 19 19 17 16 15 16 15 17 16 17 19
41 40 40 40 38 39 37 35 34 34 36 38 38 37 37 33 33 35 34 31 30 28 27 26 24 27 29 31 30 24 20 20 19 17 16 15 14 15 18 17 18 17 15
40 40 38 37 34 34 35 36 37 38 38 38 37 37 35 33 33 35 35 30 28 27 26 25 23 20 26 24 28 29 26 25 22 20 17 16 16 17 17 18 19 19 20
34 34 35 36 37 38 38 38 38 38 38 38 36 35 33 32 33 34 34 31 28 26 25 25 23 22 23 24 23 22 20 19 19 18 17 16 18 19 19 19 21 21 21
35 37 38 39 38 38 38 38 38 38 37 36 34 32 30 29 32 33 33 30 26 25 24 25 24 23 25 28 23 21 19 19 21 22 21 22 23 23 22 21 19 19 17
38 39 39 39 39 38 38 37 37 37 35 31 30 29 29 29 30 32 32 27 26 26 25 25 29 25 27 28 26 22 20 19 19 16 16 19 21 20 22 20 18 18 18
39 40 39 39 39 39 38 36 34 32 30 29 28 28 28 28 28 31 33 29 28 27 26 25 26 28 30 28 28 23 21 21 21 18 18 21 21 20 19 18 19 20 19
39 38 37 36 33 32 31 30 30 29 27 27 26 27 28 28 29 30 32 32 31 27 26 26 27 28 31 29 28 27 26 25 22 21 20 21 20 19 18 17 19 21 21
30 30 30 30 30 29 29 28 28 27 25 26 27 27 28 28 27 30 31 32 32 30 28 28 29 30 31 30 29 28 26 25 22 20 19 19 18 18 17 19 20 20 19
28 29 29 28 29 28 28 29 28 26 26 27 27 28 27 27 26 27 27 26 27 29 29 30 30 29 29 30 27 29 28 25 23 21 19 17 16 17 18 19 18 19 18
29 30 29 28 28 28 28 28 28 28 29 28 28 28 28 28 28 29 28 25 25 26 25 30 29 27 26 26 26 26 26 24 21 19 16 16 16 16 17 18 18 18 16
28 29 27 27 26 27 27 27 29 31 31 31 32 31 30 31 31 32 31 33 33 32 29 28 25 26 25 25 25 24 24 23 22 20 17 16 16 15 15 16 17 16 15
26 27 26 25 25 25 25 24 22 23 26 27 27 28 30 31 31 32 33 33 32 32 29 29 26 26 24 25 25 24 23 22 21 20 19 16 15 14 14 15 16 15 15
21 22 21 21 22 22 21 22 22 21 21 22 24 26 26 28 28 30 32 32 30 27 28 27 27 27 26 25 25 24 24 22 19 18 16 14 12 14 13 14 15 12 13
20 20 20 19 19 20 20 19 19 19 20 19 19 20 19 20 24 28 28 30 28 27 26 27 28 28 27 27 26 25 24 22 18 14 16 13 11 13 12 13 13 8 9
18 18 17 19 17 17 16 15 15 17 16 17 17 16 16 16 16 17 24 24 26 27 29 28 27 27 27 26 25 25 24 22 18 15 14 14 13 13 13 12 10 10 14
16 16 12 13 13 12 12 12 13 12 11 12 12 12 13 15 15 15 16 17 16 17 22 25 28 26 28 27 26 25 24 22 21 19 18 15 14 14 14 13 11 10 13
12 10 10 11 9 8 8 9 7 8 8 6 7 8 8 10 11 12 13 14 15 15 16 16 18 20 21 21 27 26 24 23 22 21 19 16 15 16 16 12 9 10 13
10 3 5 7 4 2 2 2 1 3 3 1 2 3 5 5 6 8 9 10 13 12 13 13 13 14 17 18 21 22 26 25 25 23 19 17 17 16 16 13 10 9 10
6 -1 2 -1 -4 -3 -10 -11 -7 -2 -1 -3 -3 -1 0 1 2 4 6 8 9 10 11 11 11 11 11 13 17 20 21 23 28 26 24 20 19 18 16 14 11 9 10
-2 -10 -10 -8 -14 -14 -15 -11 -12 -10 -9 -8 -6 -3 -2 -1 1 2 3 4 5 5 6 8 10 9 7 7 10 16 20 21 21 26 26 24 22 19 17 16 13 11 8
-4 -6 -8 -11 -14 -16 -19 -18 -16 -14 -13 -10 -8 -7 -6 -4 -2 -1 1 1 1 1 3 6 8 9 8 8 12 16 17 19 20 21 25 25 22 19 18 17 14 13 11

GFSGL_sfc_dewp_039.txt.gz
Dewpoint
57 57 57 55 54 52 50 47 44 42 40 38 41 38 37 35 35 35 35 35 36 37 37 37 36 37 35 35 37 36 35 34 29 24 26 26 25 22 21 21 19 18 18
55 53 53 53 51 50 49 47 44 42 39 38 38 36 36 34 34 34 34 36 35 35 35 35 35 32 36 36 35 35 32 31 28 23 23 21 21 22 21 20 14 14 18
49 49 49 48 49 49 49 47 43 39 38 38 36 35 36 35 34 34 38 37 34 34 34 34 34 34 34 33 33 32 30 27 26 24 20 19 20 20 18 16 15 18 14
47 47 47 47 47 46 42 39 38 38 36 37 37 37 35 34 36 39 38 35 34 34 35 35 34 34 33 32 30 30 28 26 23 20 18 18 18 18 17 12 14 14 14
44 43 43 43 41 40 39 39 39 38 36 36 36 39 39 39 39 38 36 36 35 34 35 34 34 34 35 33 29 28 25 22 20 18 18 18 17 16 12 14 14 14 16
43 41 41 40 39 39 39 38 37 36 39 39 39 39 39 40 36 36 35 33 34 33 32 33 33 33 34 33 31 29 25 23 22 20 18 17 17 15 13 15 16 15 13
41 40 39 37 36 37 38 39 39 39 40 39 40 41 39 38 36 35 35 33 33 33 32 32 30 25 28 26 29 31 28 26 25 24 21 19 20 14 15 15 15 15 15
37 36 36 37 38 39 39 39 39 40 40 40 40 38 37 36 34 33 33 32 32 33 33 32 31 30 28 25 24 25 25 25 24 21 21 20 17 16 18 19 20 19 16
37 37 38 38 39 39 39 40 40 40 40 38 37 37 37 34 32 32 32 31 32 32 31 30 30 29 29 28 25 24 23 22 23 24 24 24 21 24 24 22 20 18 19
38 39 39 39 39 39 39 39 38 37 37 36 34 34 32 32 31 32 31 32 31 30 31 30 30 28 29 29 28 28 25 21 20 20 19 19 21 20 23 23 18 19 18
40 40 40 39 39 38 37 36 35 34 34 34 32 33 32 31 31 32 32 32 32 31 30 29 30 30 30 30 30 30 30 25 23 22 19 16 18 20 20 20 19 18 19
36 34 32 32 31 30 32 32 31 31 31 31 33 32 32 32 31 32 32 32 31 33 31 31 32 31 30 30 30 32 31 27 27 26 24 22 22 22 20 19 19 20 20
29 29 30 30 30 29 29 30 29 30 30 30 30 31 30 32 32 32 31 31 31 33 34 33 32 31 30 29 31 32 31 30 29 28 25 23 23 22 20 21 21 20 18
30 30 30 29 28 28 27 27 27 28 29 28 29 29 30 30 31 32 32 33 31 32 31 32 32 30 30 31 31 31 32 31 30 28 26 24 24 24 24 23 22 20 19
28 27 26 26 25 23 23 25 25 25 27 26 25 27 28 29 28 31 32 32 34 34 32 32 32 32 30 29 29 31 31 31 29 29 28 25 24 23 23 23 22 20 19
21 21 22 22 22 20 19 18 24 24 24 25 26 27 29 27 24 24 25 28 30 31 32 31 32 31 30 27 27 27 29 29 28 28 28 26 25 24 23 22 21 20 18
18 19 20 20 20 20 20 19 19 20 21 22 21 22 22 21 22 22 22 25 28 28 29 31 32 32 31 28 26 26 28 28 29 29 28 27 26 24 23 22 22 20 19
19 20 18 20 20 19 18 18 18 18 18 19 19 19 19 18 19 20 21 21 27 27 30 30 30 31 29 28 28 28 27 29 28 27 27 28 27 25 24 23 22 21 19
15 16 18 19 18 18 16 16 16 16 16 15 15 14 14 15 17 18 18 20 18 18 19 23 31 31 29 30 30 30 30 30 29 28 27 26 27 25 24 23 22 18 18
15 15 14 15 14 13 13 13 12 12 12 13 12 11 10 11 14 15 16 17 17 16 17 18 19 21 31 31 31 31 30 30 29 27 27 27 26 25 24 23 24 22 18
13 12 12 12 11 9 10 11 9 9 10 9 9 10 6 9 10 11 12 13 13 14 14 14 16 18 20 23 23 28 29 29 28 26 25 26 26 24 24 24 25 21 18
9 8 9 9 8 8 7 6 6 6 7 6 6 6 5 8 8 8 9 10 11 12 13 13 13 15 16 18 18 22 23 27 28 27 26 26 24 23 23 24 23 23 19
7 7 7 6 5 4 5 3 3 5 5 5 4 4 5 6 6 6 7 9 9 10 11 10 11 12 14 15 17 18 19 22 23 29 26 26 24 24 24 24 23 22 20
7 6 4 5 4 3 3 2 2 -0 1 2 2 3 3 3 4 5 6 6 7 8 8 8 9 11 11 12 14 16 17 21 22 23 28 27 25 23 24 24 23 21 20
7 5 4 3 3 2 1 0 -0 -0 -0 0 0 1 0 1 1 3 4 4 4 4 4 5 8 8 9 10 11 13 15 15 18 21 25 28 27 25 24 23 23 21 19
7 3 3 2 2 1 -0 -2 -2 -2 -3 -2 -2 -1 -1 -1 -0 1 1 1 2 1 2 4 5 5 7 9 11 13 13 13 16 19 22 26 27 26 25 23 22 21 18

GFSGL_sfc_dewp_042.txt.gz
Dewpoint
59 59 59 59 59 58 57 55 52 50 47 43 41 41 42 39 38 37 38 34 37 39 38 35 34 34 33 32 32 31 30 29 29 27 23 24 27 27 24 24 24 22 18
59 59 59 58 57 57 55 54 51 48 44 43 42 42 38 37 37 38 37 35 41 39 34 34 33 29 34 34 31 32 30 29 26 25 25 23 24 24 24 24 19 13 16
57 56 56 55 54 53 52 50 48 46 45 42 41 39 37 38 37 38 40 41 42 39 36 34 33 34 33 32 31 30 28 24 26 25 23 24 22 20 21 21 19 18 13
53 53 53 53 52 53 52 50 48 46 42 41 41 41 39 36 36 39 41 41 40 40 37 35 35 34 33 32 29 30 28 27 26 24 22 20 18 19 19 17 14 14 14
51 50 50 50 48 47 46 45 44 44 40 39 38 40 40 39 40 40 39 39 39 37 36 34 36 36 36 34 28 29 29 26 25 23 21 18 17 17 16 16 12 14 16
47 46 45 44 42 41 41 40 39 38 39 40 40 41 40 38 39 37 38 39 39 34 33 33 33 36 36 36 35 34 31 28 26 24 21 18 18 18 18 16 14 14 13
44 43 42 41 39 39 38 37 39 39 41 41 40 39 39 40 38 38 37 36 33 32 32 31 29 26 33 33 34 33 31 29 28 27 23 21 21 20 19 14 15 16 16
41 39 39 40 39 39 39 39 40 40 40 39 40 40 41 39 37 37 34 33 32 30 30 30 31 31 31 32 31 30 29 28 29 24 24 23 22 22 19 16 20 19 18
39 39 39 39 39 39 39 40 41 40 41 40 39 38 37 38 37 34 32 32 29 30 29 29 29 30 31 34 31 30 29 29 29 29 29 28 27 23 21 20 22 20 22
39 38 39 39 39 39 40 40 39 38 38 37 36 36 34 34 34 33 32 32 31 31 31 30 30 30 31 32 31 30 29 28 29 26 23 24 26 25 25 23 20 21 20
39 40 39 38 37 37 35 34 33 32 32 34 34 34 33 33 33 34 34 33 33 34 32 30 30 31 32 32 31 30 32 32 30 32 30 23 21 19 20 21 21 20 21
36 33 31 29 26 26 28 29 28 29 30 31 35 32 33 33 32 33 33 33 32 34 33 34 34 33 32 32 31 30 30 31 34 35 31 28 23 21 20 20 20 21 21
28 28 29 29 29 29 29 29 28 29 29 29 27 29 27 29 29 30 30 31 30 33 33 33 34 34 34 31 31 30 30 32 34 33 31 29 29 25 23 22 21 21 21
29 28 28 27 26 25 22 20 20 23 24 23 23 23 24 25 26 28 26 27 26 29 29 32 31 32 33 34 33 33 32 33 33 32 31 30 33 31 26 24 23 22 22
26 24 22 22 18 16 15 18 21 22 24 23 23 23 27 27 25 23 23 24 26 26 28 32 29 31 31 32 33 32 32 32 32 33 32 32 31 29 26 25 24 23 23
18 18 21 21 21 16 14 15 24 22 21 22 22 23 25 22 20 21 22 22 23 23 29 28 30 32 32 31 33 31 29 29 29 31 33 31 30 27 27 25 23 23 22
16 17 19 20 18 17 18 17 17 20 19 18 18 19 19 17 18 19 20 20 21 21 24 26 31 33 33 31 34 32 29 29 31 29 31 31 31 30 29 26 24 23 22
17 19 18 19 18 19 17 18 18 18 19 19 17 15 15 15 16 17 18 18 19 20 20 21 23 25 25 28 31 30 29 31 30 31 31 32 32 30 29 25 24 24 22
14 15 19 21 20 18 19 18 17 16 16 16 16 14 14 12 14 15 15 18 16 16 16 17 20 20 23 24 28 34 33 33 32 32 31 31 32 30 29 25 24 22 22
16 15 16 17 17 16 16 16 14 14 14 15 14 14 12 11 16 17 17 17 17 15 15 15 16 18 20 21 24 26 30 32 32 31 31 31 32 31 29 26 26 25 21
14 14 13 16 14 13 14 14 12 13 13 13 13 14 7 10 14 14 13 15 14 13 14 15 15 16 18 19 19 21 22 25 31 30 31 30 31 29 29 27 26 23 21
12 12 13 14 13 14 11 11 12 11 11 11 12 12 7 12 12 11 12 13 13 13 13 13 13 14 14 16 17 17 19 21 25 26 30 29 29 30 29 26 26 26 22
12 14 12 11 11 8 13 10 11 11 10 11 10 10 10 11 11 10 11 12 11 11 12 12 12 12 13 15 16 17 16 18 21 23 24 27 28 29 29 26 25 24 23
12 14 10 12 12 10 12 11 11 7 7 9 10 10 9 9 10 10 10 11 9 10 10 10 9 10 11 12 14 15 16 18 19 19 21 23 27 28 29 27 25 24 24
14 14 12 11 11 11 10 9 9 9 8 8 9 9 7 8 7 9 9 8 7 8 7 8 9 9 9 9 11 12 14 16 16 16 19 23 24 29 29 27 27 25 24
11 10 10 10 10 9 8 7 7 6 6 6 7 7 7 6 6 7 6 5 5 4 5 7 8 8 8 9 11 13 12 13 14 15 18 21 23 28 29 29 29 27 25

GFSGL_sfc_dewp_045.txt.gz
Dewpoint
60 60 60 58 59 60 60 59 57 54 51 48 47 45 44 45 44 41 38 38 40 42 43 44 41 38 36 35 36 32 30 29 29 28 26 29 30 29 27 29 27 26 26
60 60 60 59 58 59 59 58 56 54 52 48 45 43 45 43 41 39 39 37 39 42 42 42 40 34 38 37 35 35 32 32 29 29 29 27 29 29 30 27 22 18 21
56 59 59 59 58 57 56 54 52 51 49 45 44 45 42 41 39 40 40 42 43 41 42 42 39 38 37 37 36 35 31 27 31 29 27 28 27 27 25 25 24 23 17
56 56 56 55 54 54 53 51 49 48 47 47 44 42 41 41 39 40 41 41 39 39 41 42 41 38 37 37 35 35 31 32 31 29 27 27 25 25 22 21 21 23 17
54 54 54 53 53 53 52 51 49 47 44 42 42 40 41 41 41 41 39 38 40 40 41 40 39 38 38 37 34 36 34 31 29 28 27 26 24 22 20 20 18 19 18
51 50 50 48 46 46 45 45 45 43 42 41 40 41 41 39 39 38 38 40 40 39 40 38 35 34 36 35 35 35 35 33 31 29 27 25 25 23 23 22 21 17 14
46 45 44 43 42 41 40 39 39 40 40 41 41 40 40 39 38 38 37 39 39 38 37 33 29 25 31 29 33 34 34 34 32 31 30 28 27 26 24 22 21 18 16
43 42 42 42 40 40 40 40 41 41 41 41 40 39 39 39 38 37 37 39 37 33 32 30 30 30 31 32 32 33 34 34 33 29 28 28 30 29 26 23 22 19 20
41 41 41 41 40 40 40 41 41 41 41 41 40 39 39 39 37 37 37 34 32 31 29 29 29 30 31 33 31 33 32 32 32 34 33 32 27 25 23 24 22 20 24
40 40 40 40 40 40 41 41 41 40 39 37 36 35 34 33 35 35 33 33 32 32 31 31 31 31 31 32 33 31 31 31 32 31 32 30 28 27 27 24 21 22 23
40 40 40 40 40 39 37 34 32 31 31 34 33 33 32 31 32 34 33 32 33 33 32 32 33 33 34 34 34 34 32 32 31 33 33 34 33 28 27 26 24 24 25
39 38 35 29 25 26 29 28 27 29 32 33 33 33 33 33 31 31 31 29 27 28 28 31 32 31 31 31 32 33 34 32 34 33 34 34 34 31 30 26 26 26 26
32 28 27 26 26 26 27 28 26 26 27 27 25 27 25 27 27 29 27 26 25 26 26 27 27 27 29 31 32 32 33 34 34 33 33 32 31 31 30 30 32 27 23
29 28 27 26 25 22 19 17 19 24 25 22 22 23 23 25 26 24 22 23 23 24 24 26 26 27 27 28 30 32 33 34 33 33 33 32 33 34 33 32 32 27 25
26 24 24 21 18 17 16 18 21 23 22 22 24 22 26 25 23 20 20 21 23 22 25 27 29 29 28 28 28 29 31 33 33 33 32 32 33 33 32 32 31 28 26
22 21 24 24 21 15 14 20 23 22 22 22 20 21 22 20 18 18 19 19 20 21 23 24 27 28 27 26 29 30 32 33 33 31 32 31 31 33 31 31 30 29 25
21 21 21 22 19 18 18 19 18 23 22 21 19 16 16 16 16 17 18 18 19 18 19 19 23 24 24 23 25 25 27 33 33 31 31 31 32 31 31 30 29 28 25
18 23 19 20 19 20 18 19 19 20 20 21 19 14 14 14 15 16 16 17 17 16 16 16 18 20 21 20 22 24 25 28 31 31 32 32 33 31 31 30 29 29 25
16 17 22 23 21 19 20 19 18 17 18 17 17 17 16 14 14 16 16 18 17 15 14 13 16 17 17 20 22 23 24 24 28 33 32 31 32 30 30 30 30 28 26
16 17 18 18 17 16 17 17 15 16 16 16 16 16 14 12 15 18 18 18 17 14 14 13 13 16 18 19 20 22 21 22 24 25 32 32 32 31 30 31 30 28 24
16 16 15 15 14 14 15 16 14 15 15 15 15 17 11 11 14 15 14 15 15 13 14 14 15 16 17 17 16 18 18 19 20 23 25 28 32 29 30 31 30 29 26
14 13 13 14 14 16 14 13 14 14 13 13 14 14 11 14 14 13 13 14 14 14 14 13 13 14 14 15 15 17 16 18 18 20 22 23 25 29 28 30 30 29 25
14 15 13 12 14 10 15 14 14 14 13 13 13 13 13 13 13 12 12 13 13 13 13 13 13 13 13 14 15 14 15 15 17 18 18 19 20 24 28 29 29 28 26
15 16 13 13 15 12 15 14 14 11 11 12 13 13 12 12 12 11 12 13 11 11 12 13 11 10 11 13 14 14 13 15 17 17 17 17 18 20 24 28 29 28 26
16 16 14 13 13 13 13 13 13 12 12 12 12 12 10 10 9 10 10 10 9 9 9 9 10 11 10 10 10 11 13 15 14 13 15 16 17 19 22 25 29 28 26
13 12 12 12 12 13 12 11 11 11 10 10 9 9 9 8 8 8 8 7 7 6 6 9 8 8 8 10 11 13 12 11 12 12 14 15 17 19 24 26 29 28 27

GFSGL_sfc_dewp_048.txt.gz
Dewpoint
58 61 61 60 59 61 60 59 59 58 52 50 49 48 46 45 46 44 42 40 40 41 44 44 43 43 41 38 38 37 35 34 31 31 32 30 31 32 28 32 33 29 29
60 61 61 60 60 59 59 59 57 53 51 49 48 47 45 46 45 43 39 37 43 42 43 44 42 40 39 39 38 36 35 34 32 30 30 30 29 29 29 29 28 22 24
59 60 60 60 59 58 57 55 55 53 52 48 47 45 45 44 42 40 41 43 43 43 43 42 41 41 40 39 38 36 35 33 33 31 30 31 30 29 28 28 26 26 25
60 60 58 57 56 54 53 51 50 48 46 45 46 45 43 41 42 43 43 42 41 41 41 41 41 41 41 39 37 36 35 35 34 31 30 29 29 28 28 24 23 25 23
58 57 56 55 55 54 52 51 50 48 46 44 42 42 42 42 41 42 40 40 39 39 41 41 40 40 40 38 36 35 34 34 33 32 29 28 27 27 25 24 23 22 22
54 53 53 53 53 53 52 50 48 45 42 42 41 41 40 39 39 39 39 39 40 40 39 39 39 39 38 37 36 35 33 32 32 32 31 29 27 27 26 25 23 21 19
50 49 48 46 45 44 42 42 42 42 42 41 41 41 41 40 38 38 37 39 39 39 39 38 38 30 32 32 32 33 34 34 34 32 31 30 29 29 30 27 25 23 21
46 45 44 43 41 41 40 41 41 42 41 41 41 41 41 39 38 38 37 38 38 38 37 34 32 31 32 32 31 30 30 31 33 33 33 33 32 32 32 29 27 25 21
43 42 42 42 41 41 41 42 42 42 41 41 41 41 40 40 37 37 37 37 34 33 32 32 32 32 33 34 32 31 30 30 30 33 35 35 33 32 30 28 26 25 23
42 41 42 42 41 41 42 42 42 41 41 40 40 40 34 35 36 34 33 33 31 31 31 30 31 31 32 33 32 31 31 32 34 34 31 32 32 31 30 29 26 27 26
41 41 41 41 41 41 41 41 39 37 36 35 33 33 33 33 31 32 30 29 26 26 27 26 27 29 29 28 27 24 26 29 31 32 33 32 33 34 31 29 28 27 25
41 40 40 39 35 33 33 32 30 33 34 33 32 32 33 31 30 29 26 25 26 24 23 24 25 27 27 27 27 27 28 29 31 29 29 32 32 34 34 30 28 26 26
39 33 29 28 28 29 31 31 30 31 30 29 28 30 29 29 29 25 23 23 23 23 23 24 24 25 26 26 28 28 26 26 27 28 28 29 31 33 35 34 32 29 28
30 29 29 28 27 26 21 22 28 28 28 28 27 27 27 27 24 22 21 21 22 22 22 21 22 24 25 26 26 27 30 30 30 29 30 32 32 30 31 33 31 31 30
29 27 27 27 23 21 21 23 25 21 24 26 25 25 24 23 21 20 19 19 20 20 19 21 22 22 21 21 21 23 24 25 25 31 30 31 29 27 31 31 31 30 28
26 26 29 28 25 21 20 20 26 23 24 22 21 21 24 20 17 18 18 19 19 20 20 19 18 18 19 19 19 20 21 21 23 24 31 30 28 29 30 32 31 28 27
25 26 26 28 26 24 24 26 23 23 23 22 21 19 18 15 16 17 17 17 19 20 17 17 15 16 16 17 18 18 19 20 20 22 28 27 28 27 27 29 30 29 28
22 27 24 24 24 26 24 24 24 24 24 24 21 18 17 15 15 16 17 17 18 17 17 15 15 15 15 16 15 16 17 18 18 19 22 27 23 26 24 28 28 28 26
22 24 26 25 24 23 24 24 23 22 23 22 23 20 18 15 15 17 16 18 16 15 14 13 14 14 14 14 14 15 16 17 17 19 20 22 28 28 25 25 28 28 27
23 24 24 23 21 21 22 21 20 20 20 21 20 20 17 14 12 14 15 15 13 15 14 13 13 13 13 13 13 13 14 14 14 17 18 19 21 24 25 22 26 29 27
23 21 20 20 18 17 19 20 18 19 19 18 19 17 11 13 12 15 15 13 14 13 11 13 12 12 12 12 12 11 12 12 12 15 15 17 17 17 20 24 26 29 28
21 19 18 18 17 19 16 16 18 17 17 16 17 16 12 14 15 14 13 12 10 11 13 11 11 11 11 11 9 9 11 10 11 12 12 14 15 16 17 19 23 28 28
19 19 16 15 15 14 17 17 17 17 16 15 14 14 15 14 13 12 12 8 10 10 10 10 9 10 8 7 10 11 10 10 10 10 11 12 12 13 14 16 19 23 27
17 17 15 16 18 14 16 17 15 14 14 14 14 14 14 13 11 9 7 8 7 6 5 9 8 4 6 10 10 9 9 9 12 13 11 8 9 11 14 15 15 19 27
18 17 16 16 16 16 15 15 15 14 14 13 12 12 11 10 10 8 6 7 6 4 7 2 4 7 6 6 6 7 10 13 9 9 10 10 9 10 12 14 16 21 25
16 15 15 15 14 15 14 12 12 12 11 11 10 8 9 8 7 4 6 3 6 3 1 3 3 3 3 7 8 10 8 9 10 12 12 13 11 11 13 15 16 19 24

GFSGL_sfc_dewp_054.txt.gz
Dewpoint
55 54 55 56 57 58 58 58 58 58 57 55 55 53 51 48 47 47 46 45 44 45 44 44 44 44 43 43 42 40 38 36 35 34 33 32 30 30 31 35 37 36 36
55 55 56 58 58 59 58 58 59 57 56 55 53 51 49 47 46 45 44 44 44 43 43 44 44 44 42 41 40 39 37 37 35 35 33 32 31 32 31 30 30 32 33
57 57 58 58 58 59 59 58 57 56 54 53 52 50 48 47 45 44 43 43 43 43 43 43 43 42 40 40 39 39 39 39 38 37 35 35 34 34 33 32 31 31 31
57 57 58 58 58 59 58 57 56 55 53 52 51 49 47 45 44 42 42 43 43 43 43 42 42 41 40 39 38 36 37 35 35 35 35 35 33 33 32 31 31 30 29
56 55 57 58 58 58 57 55 53 53 51 49 47 46 45 44 43 42 42 42 42 42 42 41 41 41 41 39 38 36 34 33 33 33 32 31 29 28 29 30 29 30 30
56 58 57 56 55 54 53 51 50 48 48 45 44 44 43 43 40 40 41 41 41 40 38 39 40 40 39 36 34 33 32 29 28 27 28 28 29 30 29 30 29 27 28
57 56 55 54 52 51 50 48 46 45 45 43 43 43 42 42 39 39 38 39 39 38 38 39 37 34 33 32 32 31 31 32 33 29 28 28 29 29 32 31 29 30 29
54 53 53 52 51 49 46 44 42 43 41 41 40 40 40 39 38 37 36 37 36 36 34 33 31 29 31 29 27 24 22 23 22 22 26 28 30 31 31 30 29 31 33
48 49 48 46 45 45 44 43 40 39 39 38 38 38 37 37 37 36 37 35 32 31 29 29 28 27 27 27 25 23 22 24 25 27 28 29 28 29 31 29 27 27 26
45 44 44 44 43 42 41 40 39 39 38 39 39 38 37 37 36 36 33 30 26 25 26 25 26 25 26 24 24 24 24 25 26 27 27 27 28 28 30 29 29 27 27
42 41 41 41 40 40 40 40 40 40 39 35 33 31 30 30 30 29 27 24 25 25 23 23 24 23 22 24 27 26 26 24 26 27 26 25 26 27 27 27 28 30 29
42 42 41 41 40 40 40 39 39 36 33 30 28 27 26 26 27 26 25 24 22 23 21 23 23 22 24 26 25 22 22 23 22 22 20 21 22 22 23 27 29 31 32
41 41 40 40 40 39 38 35 33 32 30 29 27 25 24 23 23 22 22 21 21 22 23 21 21 22 24 24 20 19 22 21 19 18 18 18 18 22 23 27 30 32 33
40 38 37 35 30 29 29 30 29 28 28 28 27 25 23 22 21 21 20 22 22 21 22 22 22 23 23 22 21 20 20 19 18 18 17 17 18 19 20 24 31 31 30
32 29 27 27 27 24 21 23 25 26 27 26 26 26 23 22 20 19 19 21 22 22 21 20 20 18 16 18 18 17 16 16 15 15 16 15 16 17 18 20 27 29 27
27 26 25 25 24 18 18 21 26 26 27 27 26 24 24 22 20 18 17 17 19 20 20 17 14 12 14 15 15 14 14 13 14 14 12 12 14 15 15 18 19 29 27
25 25 25 24 23 22 22 22 22 24 24 24 25 24 22 20 19 17 17 16 17 18 18 15 12 10 12 13 13 12 11 12 13 12 11 10 13 14 14 15 17 22 27
25 26 25 25 25 26 25 24 25 24 23 23 24 21 20 20 18 17 18 17 17 17 16 15 13 13 12 11 12 11 11 9 8 10 8 8 11 10 11 13 15 15 22
24 25 26 26 25 25 25 25 25 25 25 24 23 22 22 18 14 17 17 17 16 15 13 12 13 12 11 11 7 3 -3 1 2 -1 3 8 4 7 8 12 13 14 15
25 26 25 25 24 24 24 24 23 23 22 22 22 19 16 14 13 13 14 12 13 13 12 12 12 10 8 6 -0 -1 -2 -7 2 1 4 -2 2 6 7 10 11 11 13
24 24 23 23 23 22 22 21 21 20 20 19 18 16 15 15 14 14 15 12 12 12 10 10 8 4 -1 -1 4 -1 -3 -0 5 3 4 4 3 5 6 7 9 11 13
23 22 22 22 20 19 19 20 19 18 18 17 17 16 15 14 15 14 13 10 8 10 10 6 4 3 2 2 -1 -8 0 -5 -4 2 4 4 6 5 4 5 7 9 11
20 20 20 19 18 18 17 18 16 16 15 15 15 14 14 12 11 11 9 6 8 2 -1 -2 -7 -4 -3 -8 -6 -0 1 2 5 6 5 4 5 5 4 4 6 7 8
18 18 18 17 16 15 15 14 14 14 13 12 11 10 9 8 4 4 2 -1 -4 -10 -12 -14 -10 -5 -3 -7 -9 -4 3 5 7 8 6 5 5 5 5 5 5 6 8
17 15 15 14 13 13 12 11 10 9 9 7 5 2 3 1 -0 -9 -11 -12 -10 -15 -11 -11 -10 -6 -5 -6 -5 -2 1 6 6 5 6 6 6 5 5 5 5 6 7
14 13 12 11 9 9 8 6 4 1 -1 -2 -5 -8 -7 -8 -8 -16 -15 -11 -11 -11 -11 -10 -9 -7 -6 -3 -1 3 3 1 2 4 5 5 5 5 5 5 6 6 7

GFSGL_sfc_dewp_057.txt.gz
Dewpoint
48 47 48 49 51 53 53 55 57 57 57 57 56 55 54 53 50 48 47 47 46 45 45 45 44 44 44 44 44 42 41 38 36 36 34 33 31 32 32 33 36 37 38
50 50 51 52 53 54 55 57 58 57 57 57 57 55 53 52 51 49 47 46 45 45 45 44 44 44 43 42 41 40 39 38 35 33 34 33 32 32 33 33 33 32 34
54 53 54 55 55 55 56 58 58 58 58 56 55 54 52 51 49 49 46 46 45 44 44 43 43 43 41 40 40 39 39 38 36 34 35 34 33 33 33 33 33 33 32
54 54 55 56 56 56 57 58 58 58 56 54 54 52 50 49 49 47 46 44 44 44 44 43 43 42 41 40 39 38 36 33 33 31 31 31 31 32 31 30 30 31 31
54 54 54 56 57 57 58 58 58 56 55 53 52 50 49 47 46 44 44 43 43 42 43 42 42 42 41 40 38 35 31 30 29 28 27 27 27 27 27 28 29 30 31
54 55 56 57 57 57 58 56 55 53 52 50 49 47 47 45 40 40 42 43 42 42 41 40 40 40 35 34 34 33 31 27 26 26 26 26 26 27 27 27 29 26 25
55 56 56 57 57 56 53 51 51 50 49 46 46 45 45 44 39 40 39 42 41 40 39 39 36 32 33 31 30 27 27 27 30 26 24 24 24 25 27 27 25 25 24
55 56 56 55 53 52 51 49 46 46 45 45 45 45 44 42 38 38 37 39 38 37 36 35 31 31 29 26 23 21 21 22 22 22 22 23 24 26 27 26 26 27 26
54 54 53 52 51 49 47 46 45 44 44 43 43 42 40 40 37 36 36 35 32 30 29 28 26 25 26 24 23 22 24 25 26 28 29 29 30 30 29 29 27 26 24
51 50 50 49 48 46 45 43 42 42 40 39 38 38 37 37 36 36 34 31 27 26 24 23 25 24 23 23 25 25 24 23 24 24 26 27 27 27 29 28 28 26 25
47 46 46 46 45 44 42 40 40 40 37 33 31 31 32 33 34 34 31 28 26 24 22 22 22 22 22 26 26 24 22 22 21 22 22 21 22 22 23 23 23 25 26
42 42 42 42 41 40 40 39 39 35 32 30 28 27 27 27 28 28 26 25 24 23 22 23 23 22 24 25 22 20 20 21 20 19 18 18 18 18 19 20 22 23 26
41 41 41 40 40 39 38 36 34 33 30 29 27 25 23 23 24 24 23 22 21 22 22 21 21 23 23 22 18 19 20 19 18 16 16 16 17 17 19 19 21 22 25
40 40 38 34 32 32 32 33 32 32 30 28 26 23 21 21 21 21 21 22 22 21 21 22 22 23 22 21 20 18 18 17 16 15 15 15 15 15 16 17 17 19 20
36 32 30 28 26 26 26 27 27 28 30 27 26 24 22 21 21 21 22 22 23 23 23 22 18 18 17 17 17 16 15 15 14 14 14 13 11 13 14 15 15 17 18
29 29 28 26 24 23 22 23 28 29 29 28 27 26 24 22 21 21 23 22 20 22 20 17 15 14 15 14 13 13 13 12 11 11 11 11 9 11 11 11 14 15 16
27 26 25 24 22 22 22 22 22 25 26 25 24 24 23 23 23 20 18 18 18 18 18 15 12 12 13 12 12 11 11 11 10 9 10 8 8 10 6 8 11 13 13
26 27 26 25 24 24 24 24 25 24 22 23 25 24 24 22 21 22 22 20 18 17 17 15 13 14 12 10 9 9 9 7 6 6 7 3 5 5 4 6 8 10 11
26 26 27 27 27 27 27 26 26 25 24 23 23 23 24 23 22 22 21 19 17 16 15 14 14 12 10 9 9 7 4 2 1 -6 -2 -2 -5 2 3 4 6 7 9
26 26 26 25 25 24 24 24 24 23 23 23 22 19 18 18 15 14 14 14 15 15 14 13 12 10 9 8 6 1 0 -3 -5 -2 -8 -10 -8 -2 2 4 4 4 7
23 23 23 22 21 21 21 21 20 20 19 19 17 17 17 16 15 15 15 13 13 13 12 11 9 7 6 5 4 0 -3 -7 -5 -3 -2 1 -9 0 4 4 3 4 7
22 21 20 19 19 18 19 19 18 18 18 16 16 16 16 15 15 14 13 10 9 11 10 8 6 4 4 2 0 -12 -11 -11 -10 -5 -1 1 3 4 3 3 2 2 5
19 18 17 17 17 16 16 16 15 15 15 14 14 13 12 10 10 9 8 6 8 4 3 1 -4 -1 -2 -11 -12 -9 -6 -2 1 3 2 2 3 2 3 2 2 2 3
16 16 15 14 14 13 13 12 12 12 11 10 9 9 8 6 1 1 -1 -4 -5 -8 -10 -11 -9 -8 -5 -10 -13 -9 -3 2 4 4 2 2 2 2 3 3 3 3 3
14 13 12 11 10 10 9 7 6 5 5 2 -1 -3 0 -1 -2 -11 -14 -12 -9 -14 -11 -12 -12 -9 -8 -9 -8 -6 -4 2 -2 -1 1 1 1 2 2 3 3 4 4
10 9 8 7 5 4 1 -2 -5 -5 -7 -7 -10 -11 -8 -6 -8 -17 -14 -14 -14 -14 -13 -12 -11 -9 -9 -7 -5 -0 -2 -3 -4 -1 1 0 -0 1 3 3 3 4 5

GFSGL_sfc_dewp_060.txt.gz
Dewpoint
49 49 49 49 49 50 50 51 52 53 56 56 56 56 56 55 55 54 52 50 50 48 47 47 46 45 45 45 44 43 42 41 38 38 36 35 35 35 35 35 36 37 38
49 48 49 50 50 49 50 50 52 54 56 56 56 57 57 55 52 52 50 50 49 47 47 46 45 45 44 44 42 41 40 39 38 36 36 36 34 35 35 34 34 34 35
50 49 48 48 49 49 50 51 53 54 56 56 57 56 56 54 53 52 51 50 48 47 46 45 45 44 43 42 41 39 40 38 38 37 37 35 35 34 34 34 34 34 33
50 50 49 49 50 50 51 53 54 56 55 56 57 56 55 53 52 51 49 48 47 47 45 45 44 44 42 40 39 38 37 36 35 33 32 32 32 32 31 30 28 31 31
52 51 51 52 52 53 54 55 56 56 56 56 57 54 52 50 49 48 48 47 45 44 44 44 44 43 41 40 39 37 34 32 30 29 28 28 27 28 27 28 27 26 27
52 52 52 53 53 54 55 56 56 56 57 57 55 53 50 49 43 43 45 45 44 43 43 42 42 40 38 36 35 33 32 29 28 26 26 25 22 24 26 26 26 25 22
53 53 53 53 54 55 56 56 56 56 54 53 51 50 48 47 41 41 40 43 43 42 41 40 36 34 34 32 31 28 25 25 27 25 22 21 23 24 25 25 26 25 25
53 54 54 54 55 56 55 55 53 51 51 49 49 47 46 43 39 39 39 41 40 39 39 35 32 30 30 27 22 20 21 23 24 23 23 24 25 26 27 27 27 26 26
53 53 54 56 55 52 51 48 47 47 47 45 44 44 42 40 39 38 38 36 34 31 30 30 29 27 27 25 21 22 24 25 25 23 24 26 27 27 25 27 24 23 22
52 54 54 53 51 49 47 46 46 45 42 41 40 41 39 38 37 36 35 32 29 27 25 25 27 24 24 26 26 25 22 22 20 18 20 23 22 23 22 24 25 23 22
50 49 49 49 48 46 44 43 42 40 36 34 33 33 34 36 35 35 33 30 28 25 22 21 22 23 25 27 26 23 21 19 18 18 17 18 19 18 19 19 20 21 20
46 45 45 44 42 41 41 39 37 35 32 31 30 29 28 29 31 31 30 28 27 24 21 21 23 25 26 24 22 21 20 19 19 17 17 16 15 15 15 16 18 20 21
43 42 41 41 41 40 39 36 35 34 32 30 28 26 24 25 25 25 25 24 23 22 23 23 24 26 24 21 20 20 19 18 17 15 14 14 14 14 14 17 19 19 19
41 39 37 36 35 35 35 35 33 32 31 29 27 24 23 21 22 23 22 22 22 22 23 23 24 23 22 21 19 18 16 16 14 14 13 14 13 12 12 14 15 15 16
36 34 32 31 30 29 29 29 30 31 32 30 27 25 23 22 20 21 22 22 24 24 23 21 19 18 17 18 16 15 14 13 12 12 11 11 11 9 10 12 10 13 13
32 30 29 29 28 28 27 27 30 30 29 28 27 25 25 25 25 25 24 24 24 24 20 17 15 15 15 14 14 13 13 12 11 10 9 9 8 7 8 7 8 9 11
29 27 26 26 25 25 25 24 22 27 29 29 28 27 27 26 25 23 22 21 19 19 17 15 14 13 14 13 13 12 11 11 10 7 7 8 7 6 6 5 6 7 8
26 27 26 26 26 26 25 25 25 24 22 23 27 26 25 23 23 23 22 21 20 20 18 15 14 14 14 13 12 9 9 9 6 5 6 6 5 4 4 3 4 5 6
27 27 27 27 27 27 27 26 25 24 23 22 23 23 24 25 24 23 23 20 18 17 17 16 15 14 13 12 11 9 8 5 4 3 2 3 2 2 2 2 3 3 3
25 25 25 25 24 24 24 23 23 23 22 22 20 18 18 18 15 15 16 16 16 16 15 14 14 12 11 10 8 6 4 3 3 3 3 -0 -3 -2 -0 1 3 3 3
22 21 21 21 21 21 20 20 20 19 18 17 16 17 18 16 15 15 15 13 13 13 12 11 10 9 7 6 5 3 1 -0 -0 -0 -2 -1 -5 -2 1 3 4 3 3
20 19 19 18 18 18 17 17 16 16 16 15 15 14 14 13 12 11 9 9 9 9 8 6 5 3 3 1 1 -6 -4 -6 -6 -5 -4 -2 1 2 3 3 2 2 2
17 17 16 16 15 14 14 14 13 12 11 11 11 10 9 9 8 7 5 1 2 -2 -3 -3 -6 -3 -2 -7 -7 -6 -7 -4 -2 0 1 0 1 1 1 1 2 2 2
15 14 13 12 11 10 9 9 9 9 8 6 4 3 1 -5 -9 -9 -13 -15 -12 -14 -14 -15 -10 -7 -6 -9 -11 -9 -4 -3 1 2 1 -1 -1 -0 1 2 2 3 3
11 9 8 7 5 4 2 2 1 -1 -3 -6 -7 -9 -3 -3 -6 -17 -19 -16 -13 -18 -13 -13 -14 -10 -9 -9 -9 -8 -8 -2 -0 -2 -1 -1 -1 -2 -1 1 2 3 3
6 5 4 3 1 -1 -4 -7 -9 -11 -14 -16 -18 -15 -12 -9 -12 -20 -18 -16 -15 -14 -13 -13 -11 -11 -11 -9 -7 -4 -4 -6 -4 -3 -2 -1 -2 -3 -0 1 1 3 3

GFSGL_sfc_dewp_066.txt.gz
Dewpoint
53 54 54 55 56 55 55 55 54 55 54 54 53 53 53 53 54 55 55 55 56 58 59 58 57 57 56 55 54 53 51 50 49 48 44 44 43 42 39 41 42 41 41
53 53 54 55 54 55 55 55 56 55 55 54 54 52 52 52 54 55 55 55 56 57 57 56 54 54 52 53 52 50 49 49 48 47 43 40 41 42 43 42 39 34 35
52 52 54 54 55 55 54 54 55 54 55 55 53 54 54 54 53 54 55 55 56 55 55 55 53 53 52 52 50 48 48 47 44 42 43 41 40 40 38 38 36 36 30
51 51 52 54 55 55 54 54 54 54 53 54 55 54 55 54 53 55 54 55 55 54 54 54 53 53 51 50 47 47 44 42 43 40 39 37 37 36 35 33 31 30 23
51 50 52 54 53 54 54 54 55 55 54 54 54 55 55 55 54 55 53 55 55 55 55 54 53 50 47 48 45 44 43 41 39 38 35 33 33 33 32 30 24 22 23
52 52 51 52 52 53 54 54 54 54 53 53 54 54 55 53 47 46 50 56 55 55 53 52 50 45 44 41 41 40 40 39 36 34 33 32 32 32 29 25 23 22 20
52 52 52 52 52 53 52 52 52 54 54 55 54 53 54 55 46 45 45 55 55 53 50 47 44 44 42 40 36 35 34 34 34 35 32 32 29 26 25 25 24 23 22
52 51 52 52 52 52 53 52 53 54 55 55 55 55 56 55 45 46 44 52 49 48 46 44 42 39 38 36 33 30 28 26 25 22 26 25 25 25 26 25 25 24 23
51 51 52 52 52 53 53 54 55 56 56 57 57 57 56 51 41 40 43 44 41 39 39 39 37 34 34 33 29 27 27 26 27 25 25 26 26 25 24 22 21 21 24
49 50 51 53 53 53 55 55 57 57 54 48 44 45 42 42 38 39 41 38 34 33 33 34 33 33 33 32 31 29 26 23 19 18 21 21 20 21 22 20 19 21 22
49 52 53 54 54 55 56 54 49 44 41 38 36 37 38 38 37 37 36 34 32 31 30 30 31 32 31 31 29 27 25 21 20 18 17 18 19 18 18 17 16 17 20
53 54 54 54 50 50 47 44 42 40 36 34 34 32 33 34 35 35 34 33 32 30 28 29 30 31 29 27 24 24 24 24 25 22 19 16 15 15 15 13 14 16 17
46 45 44 42 42 42 41 39 37 36 35 33 32 30 29 30 31 31 31 30 29 28 29 30 30 27 25 24 24 23 24 24 24 22 19 18 15 14 14 18 19 16 16
42 40 40 38 37 37 37 36 35 34 33 31 30 28 26 26 26 27 27 28 29 29 29 28 26 25 25 24 23 22 20 19 20 20 18 16 17 18 17 16 15 15 15
37 36 34 34 32 31 30 32 32 33 33 31 29 27 26 24 26 27 27 27 27 27 28 27 26 25 22 21 22 21 20 18 19 20 19 19 17 17 16 15 13 14 14
34 34 33 32 31 29 28 28 30 30 30 29 28 27 27 27 29 29 29 28 27 27 27 27 27 27 25 23 22 20 20 17 18 17 18 16 15 15 13 12 11 12 12
30 30 30 30 29 28 27 25 23 27 30 30 30 30 29 29 28 28 27 27 26 27 26 25 25 25 23 19 19 18 19 17 16 15 15 14 14 13 13 11 11 11 11
29 29 28 28 27 26 26 26 26 24 23 24 28 28 28 28 27 26 26 26 24 22 22 22 21 20 18 16 16 15 15 15 15 14 13 14 13 12 12 10 10 11 10
27 27 28 28 27 27 26 26 25 24 23 24 24 24 25 25 25 24 24 25 22 19 17 17 18 17 16 15 17 16 15 14 13 13 12 11 13 11 10 9 9 7 8
26 26 28 28 28 27 27 26 26 24 24 23 22 23 24 24 23 22 22 22 20 17 17 16 15 15 14 14 14 14 14 12 12 11 11 11 11 10 9 8 9 9 7
26 26 26 26 25 24 24 24 23 21 21 19 18 20 20 20 19 17 16 17 16 14 15 14 14 13 12 12 9 10 9 9 8 8 8 8 9 8 7 8 9 8 7
23 22 22 21 21 21 21 21 20 19 17 16 16 16 16 17 15 14 13 14 14 12 11 11 10 9 8 7 7 8 7 7 6 6 6 5 5 6 7 7 7 7 7
21 20 19 18 18 17 18 17 17 17 16 16 14 13 13 13 12 11 10 11 10 10 8 8 8 6 6 6 6 5 5 4 4 5 4 4 4 5 6 6 6 7 7
17 17 14 15 16 15 15 15 13 10 12 13 13 12 10 10 10 8 8 8 7 8 7 6 4 2 2 3 5 4 3 3 3 3 3 4 3 3 5 5 5 5 6
14 14 12 12 12 12 12 11 10 10 10 10 10 10 8 8 7 7 7 6 3 4 3 3 3 1 0 -1 -1 -1 -1 -2 -1 -1 1 2 3 3 3 4 5 5 6
10 9 9 9 9 9 9 8 8 8 7 7 7 7 7 6 5 5 4 3 1 0 1 2 1 -1 -2 -1 -2 -2 -4 -5 -4 -5 -2 0 2 3 5 5 5 5 5

GFSGL_sfc_dewp_069.txt.gz
Dewpoint
53 55 56 56 56 57 56 56 56 57 57 56 56 56 55 55 55 55 55 55 55 56 57 58 58 59 59 59 59 57 55 54 52 53 49 52 48 47 42 44 44 44 43
53 53 56 57 57 57 56 57 57 56 57 56 56 55 55 54 55 55 55 54 55 55 56 57 57 57 58 58 55 54 54 53 52 50 50 48 47 45 42 43 41 40 42
51 53 55 57 57 57 57 57 57 57 56 55 54 54 54 55 55 55 55 55 55 55 55 56 57 57 55 55 55 54 53 52 53 51 48 44 45 43 43 44 42 43 38
50 51 53 56 56 57 57 57 57 57 56 55 55 54 55 54 53 54 54 55 55 55 55 57 56 56 54 54 53 52 52 50 49 46 44 43 41 40 40 38 37 38 36
51 50 52 56 56 56 57 57 57 57 56 56 56 56 56 55 53 55 54 55 54 54 56 56 55 54 50 52 53 52 50 47 45 43 40 37 38 37 36 36 34 34 34
53 53 52 54 54 55 57 57 57 57 56 56 56 56 56 54 47 45 50 56 54 55 55 55 54 50 49 45 45 45 46 45 44 42 40 39 35 36 35 34 29 28 26
53 53 53 53 53 55 55 55 55 57 57 57 56 56 56 56 46 44 43 54 55 54 54 56 54 52 47 49 40 38 35 37 37 40 37 35 35 36 33 30 29 28 27
51 52 53 53 53 53 54 54 55 56 56 56 57 57 56 55 44 43 43 54 55 55 55 55 52 45 44 41 37 31 30 31 30 30 32 31 32 32 30 28 28 27 27
50 52 51 53 53 53 53 55 55 56 56 56 56 56 56 56 44 42 44 52 45 40 41 41 40 38 37 36 32 31 31 30 32 32 32 31 31 29 27 27 27 22 26
45 50 51 52 53 53 55 55 56 56 56 55 51 47 42 50 41 42 44 40 36 34 34 35 35 35 34 35 34 31 28 27 27 26 25 22 21 24 22 21 20 23 23
49 48 50 51 53 53 54 56 56 54 46 41 39 38 37 38 38 39 39 36 33 32 32 31 32 33 34 33 32 31 28 29 28 25 22 22 23 22 20 20 18 19 21
52 51 50 50 51 53 52 49 48 44 39 37 35 34 33 34 34 35 34 34 33 30 29 30 31 31 30 30 29 29 28 28 28 27 24 18 16 16 17 18 17 17 17
44 44 43 42 41 41 42 41 39 39 38 35 32 30 29 30 31 32 31 31 31 30 29 29 29 28 28 27 27 28 28 28 26 24 21 20 21 18 16 19 22 21 19
36 36 36 35 35 35 35 36 35 35 34 32 30 28 28 27 28 29 29 30 29 28 28 28 28 27 26 25 26 27 26 25 26 26 23 20 19 21 21 20 19 19 18
33 33 33 32 31 29 29 31 31 32 33 30 29 28 26 25 27 29 28 28 28 27 28 28 27 27 26 26 26 25 23 20 20 21 21 21 20 19 19 19 18 17 16
32 31 31 30 30 28 27 27 30 30 30 29 28 27 28 29 30 30 30 30 30 30 30 28 28 29 27 25 24 21 21 19 19 18 19 18 17 17 16 16 15 15 15
30 30 29 28 27 26 25 24 24 28 30 30 30 30 29 29 29 29 28 28 30 30 28 27 27 27 25 24 23 21 20 19 16 18 17 16 16 15 15 14 14 14 13
29 29 28 28 28 27 26 25 25 24 23 25 28 28 28 28 28 28 28 28 26 25 24 23 23 22 19 18 18 18 18 17 18 15 14 15 15 14 13 12 12 12 11
28 29 28 28 28 27 27 26 26 25 24 24 24 25 26 26 26 26 26 25 23 22 21 19 19 19 17 17 17 17 16 16 14 15 14 14 15 12 10 10 10 10 10
28 28 28 28 28 28 28 26 25 23 22 23 23 24 25 23 21 21 22 22 20 19 19 15 15 15 16 15 15 15 14 13 12 11 11 11 11 11 10 9 10 9 7
27 27 25 26 26 26 25 24 23 22 20 19 20 22 21 19 18 17 16 17 16 14 15 14 14 13 13 12 9 11 9 9 9 8 8 8 10 8 7 8 9 9 8
24 23 22 22 22 22 21 21 21 20 20 18 19 19 17 17 15 14 13 14 14 12 12 11 11 9 9 8 8 9 7 7 7 7 7 6 5 6 7 7 7 8 7
21 20 19 19 19 18 19 19 19 18 17 16 15 14 13 14 13 12 11 12 11 11 9 8 8 7 8 7 7 7 5 5 5 6 5 4 4 5 6 5 5 7 7
17 18 15 15 16 16 16 16 14 12 13 13 14 12 12 11 11 10 10 9 8 9 9 7 6 4 3 4 5 5 3 4 3 2 3 4 3 3 4 5 4 5 6
15 15 15 14 14 14 14 12 12 12 12 12 12 11 9 9 8 9 8 7 5 6 5 5 5 3 2 0 0 0 2 0 -2 -2 -1 1 1 3 3 3 5 5 6
11 11 11 12 12 12 12 11 10 10 10 10 9 9 8 7 7 7 6 5 2 2 2 4 3 1 0 0 0 1 -3 -4 -4 -4 -3 -1 -0 1 4 5 5 4 4

GFSGL_sfc_dewp_072.txt.gz
Dewpoint
56 56 56 56 57 57 55 55 54 57 56 54 55 54 54 53 53 53 53 53 53 52 54 54 55 57 57 57 57 57 56 55 53 54 53 53 51 51 46 46 46 45 43
55 56 56 56 56 57 56 56 56 55 56 55 54 54 53 53 53 53 53 52 52 51 52 53 54 55 56 57 58 57 57 56 55 53 53 51 51 51 46 44 46 44 43
53 55 56 56 56 56 56 56 56 56 55 55 55 53 53 53 53 53 52 52 52 52 52 52 53 54 54 57 57 56 56 55 55 53 53 49 48 46 45 44 44 44 43
52 53 54 56 56 56 56 56 56 56 55 55 55 54 54 54 53 53 52 53 52 52 53 53 53 53 54 56 56 55 55 54 53 52 52 43 45 43 45 43 42 42 42
52 51 53 55 56 57 56 57 56 56 55 54 55 55 54 54 53 53 53 53 53 53 53 53 53 52 49 53 55 54 53 52 52 51 50 40 41 39 42 42 41 39 41
52 51 52 53 55 55 56 57 57 56 56 55 55 54 54 53 47 44 48 52 52 52 52 53 53 48 49 46 46 46 51 52 50 49 48 44 44 40 37 37 35 34 32
53 53 52 52 52 55 55 55 55 56 56 56 55 55 55 54 46 44 43 52 53 53 53 53 53 53 48 52 44 40 36 35 40 46 44 37 35 37 37 34 32 32 32
53 53 53 53 53 53 54 54 55 55 55 55 55 55 55 54 45 44 42 50 52 53 53 53 53 52 49 46 37 33 33 33 34 34 34 34 34 35 35 34 33 32 32
51 52 53 54 53 53 53 54 54 55 55 55 55 55 55 55 44 43 43 50 52 42 40 40 42 41 39 38 34 33 31 30 33 34 34 34 33 33 33 32 31 30 29
52 53 53 53 53 53 54 54 54 55 55 55 54 46 40 47 39 41 44 43 37 34 34 34 35 35 35 35 34 31 29 28 28 27 27 29 29 29 28 29 29 28 28
48 48 46 47 50 53 55 54 55 54 46 40 36 36 36 37 37 39 40 38 34 32 32 31 32 34 34 33 31 29 28 29 29 28 28 28 30 30 29 22 22 25 26
40 39 38 38 39 42 48 46 45 43 39 35 34 32 32 33 35 35 35 34 33 31 30 30 32 32 31 30 29 29 29 28 28 28 27 27 25 23 23 23 23 22 22
35 34 33 32 31 33 36 38 38 38 36 34 32 30 29 31 32 33 33 32 31 30 30 30 30 29 29 28 29 30 29 29 28 27 26 27 27 21 21 23 24 23 22
34 32 31 30 29 28 29 31 32 33 32 31 30 28 28 28 29 30 29 28 28 28 27 26 26 26 26 27 26 26 26 26 26 25 25 25 26 25 24 24 23 23 21
32 31 30 29 28 27 28 29 29 30 31 29 28 28 26 26 29 30 28 27 27 27 27 27 26 26 26 26 26 25 25 26 23 23 22 21 20 20 20 21 21 20 17
30 30 30 28 27 26 25 26 30 31 31 30 30 29 30 30 31 31 31 31 31 31 29 28 27 27 26 25 24 24 23 20 20 20 20 19 18 17 17 16 17 17 17
29 29 27 27 26 26 26 25 23 26 29 29 30 30 30 30 30 30 30 30 30 28 25 24 23 23 22 22 21 21 19 19 20 18 16 16 16 15 15 15 15 15 15
28 27 27 27 26 26 25 25 25 23 21 23 27 27 28 28 30 29 28 26 23 24 23 22 21 21 21 19 19 18 17 17 15 14 14 13 13 14 12 11 11 10 10
28 28 28 27 27 26 26 25 24 24 23 23 23 23 24 25 25 25 24 21 20 19 19 18 18 18 18 17 17 16 15 14 14 12 12 11 6 10 8 9 8 7 8
26 26 27 26 26 25 24 22 21 21 20 19 21 21 21 19 17 17 18 18 17 17 17 16 15 15 15 14 14 13 11 10 10 9 6 4 4 5 5 4 4 5 7
26 25 24 24 24 23 22 21 20 19 18 17 18 20 19 17 16 15 15 15 14 14 13 14 13 12 11 11 10 9 9 7 7 5 7 7 -2 0 5 5 6 7 7
23 22 22 21 21 22 21 21 21 19 18 17 16 16 16 15 14 13 13 12 12 11 11 11 10 10 9 8 7 4 4 0 1 3 1 -1 1 2 4 5 4 2 5
19 19 19 19 18 17 17 17 18 17 16 15 14 13 12 11 11 11 10 10 11 10 9 8 7 7 4 4 6 6 3 4 4 0 -4 -4 0 2 2 0 3 2 2
16 17 15 15 15 14 15 14 13 11 13 13 12 12 11 10 10 8 7 5 4 6 5 1 7 1 1 -2 -2 -1 3 -0 -2 -1 -4 -4 -2 -1 -1 1 1 -0 3
15 15 14 14 14 13 12 12 12 12 11 11 10 10 10 10 8 8 5 6 3 1 1 2 1 -0 0 -6 -4 -0 -5 -6 -10 -9 -7 -4 -5 -7 -4 0 3 6 4
12 11 12 12 11 11 11 10 9 9 8 9 8 8 8 7 5 5 4 -1 -3 -2 1 -1 1 -3 -4 -0 -0 -4 -9 -8 -9 -7 -9 -4 -6 -5 -1 2 2 0 2

GFSGL_sfc_dewp_075.txt.gz
Dewpoint
56 56 56 56 56 56 54 55 54 52 52 54 55 56 56 55 54 53 53 53 53 53 54 55 54 54 54 55 55 55 55 55 52 52 54 54 52 53 53 52 52 50 48
55 56 56 56 57 56 55 54 55 55 54 54 54 54 55 55 54 52 52 51 52 52 53 54 53 54 54 55 55 55 55 55 54 52 53 53 51 52 53 49 48 47 46
55 55 55 55 55 55 56 55 54 54 55 55 54 54 54 54 53 52 52 52 52 53 53 52 52 53 54 55 55 55 56 55 55 55 54 54 53 48 49 48 48 48 46
55 55 55 55 55 54 55 56 56 55 54 55 55 54 54 54 53 52 52 52 52 52 52 52 52 51 52 53 54 55 55 56 56 55 54 53 50 48 50 50 45 46 46
53 54 55 55 55 55 55 56 56 55 55 55 55 55 54 53 53 53 52 52 52 52 52 52 52 51 48 50 53 54 55 55 55 54 52 52 46 40 44 47 47 46 42
52 52 53 55 56 56 56 56 56 55 55 55 55 54 54 54 48 45 49 52 52 51 51 52 52 48 48 44 44 46 52 55 54 53 52 51 50 47 45 41 36 36 35
53 52 52 53 54 55 56 56 55 55 55 55 55 55 54 54 46 44 43 52 53 53 53 52 52 52 48 52 43 39 36 36 39 49 51 50 43 37 37 34 34 34 33
53 54 54 54 53 54 55 55 55 56 56 55 55 55 55 54 45 44 41 49 52 52 52 52 52 52 51 49 40 34 33 34 34 36 37 35 35 36 36 35 34 32 32
48 49 48 50 50 54 54 54 55 55 55 55 55 55 55 55 45 44 44 51 51 52 43 41 45 47 43 41 36 32 31 31 34 34 34 34 34 34 35 34 32 31 29
43 43 42 42 44 46 50 52 55 55 55 55 54 48 40 49 39 41 42 49 45 37 35 35 36 38 36 36 34 32 28 28 28 29 29 29 29 30 32 32 31 29 29
39 39 38 37 38 38 43 44 44 49 49 45 41 37 36 37 37 39 40 41 40 34 32 32 34 35 35 34 33 31 29 29 28 28 28 29 30 30 29 29 29 29 28
36 34 33 33 33 34 35 37 38 39 39 37 34 32 32 33 34 34 34 34 34 31 31 31 32 32 32 31 30 30 30 29 29 28 27 27 27 26 27 27 27 26 24
33 32 31 30 30 30 31 30 32 34 34 32 31 30 31 31 30 31 31 31 31 29 30 30 31 30 29 29 30 30 29 29 28 26 25 25 25 27 28 28 28 26 25
32 30 29 28 28 28 28 29 29 30 30 30 29 27 28 29 28 28 28 27 27 26 27 27 27 27 26 26 26 26 26 26 25 24 24 25 26 25 24 24 23 21 21
30 29 28 27 26 27 28 28 28 29 29 27 28 28 27 26 28 29 28 27 27 27 28 27 26 25 24 24 24 24 23 23 22 23 22 22 21 21 20 19 18 18 17
28 28 27 27 26 25 24 25 30 30 30 30 30 29 30 31 32 32 32 31 31 30 27 24 23 23 23 22 20 19 21 21 21 20 19 18 17 16 14 15 16 16 15
27 27 27 26 26 25 23 22 21 24 27 28 30 30 30 30 30 30 28 28 28 25 22 22 21 20 20 20 19 19 17 17 17 16 16 16 16 15 13 13 12 12 11
27 27 26 26 25 24 23 23 22 21 20 20 25 26 27 27 27 27 26 23 20 20 20 18 18 18 18 17 17 16 15 15 15 14 13 12 11 11 11 10 9 8 9
26 26 25 24 23 23 22 21 20 20 20 20 19 19 20 23 22 22 22 19 17 16 17 16 16 16 16 14 14 13 12 11 10 9 9 9 7 8 7 7 6 6 6
24 24 24 23 22 21 20 19 18 18 17 17 16 17 18 16 14 14 15 14 14 15 14 13 12 11 11 11 10 10 9 8 8 8 4 2 0 3 2 2 2 2 7
22 21 21 22 22 21 20 18 18 16 15 15 15 17 15 13 12 11 10 9 10 10 11 10 9 9 8 7 7 5 4 5 4 3 1 -1 -12 -4 1 0 1 4 5
21 21 20 19 18 19 18 18 16 15 14 13 11 10 10 10 10 9 9 8 7 7 8 7 6 5 5 5 4 -0 1 -0 -2 -4 -5 -4 -3 -2 -1 -4 -6 -7 1
17 16 16 17 16 14 14 14 14 13 11 10 9 9 7 4 4 4 3 5 6 1 2 3 -1 0 0 -2 -2 -2 -1 -4 -8 -13 -13 -13 -7 -6 -9 -9 -4 -5 -6
15 14 14 14 13 13 12 11 11 10 10 10 8 9 7 6 2 -4 -5 -8 -3 -6 -9 1 -3 -2 -3 -10 -12 -4 -4 -13 -11 -13 -18 -17 -11 -5 -9 -5 -4 -6 -3
11 10 10 10 10 9 8 7 7 6 5 4 5 5 6 3 5 -2 -7 -8 -6 -6 1 1 -2 -5 -9 -8 -6 -8 -11 -10 -16 -13 -15 -15 -16 -16 -12 -6 -3 1 -4
9 7 7 7 6 6 3 0 0 3 -1 -2 -3 2 -2 -2 -2 -1 -9 -8 -7 -5 -7 -9 -7 -7 -6 -3 -4 -6 -11 -9 -11 -11 -15 -12 -13 -11 -12 -11 -8 -7 -2

GFSGL_sfc_dewp_078.txt.gz
Dewpoint
56 56 56 56 56 55 54 52 50 50 53 54 55 56 55 56 56 56 55 55 55 55 55 54 54 54 54 54 54 54 54 53 51 50 52 53 51 52 52 52 53 52 52
56 56 56 56 56 55 55 55 53 51 51 53 54 55 55 55 55 55 54 54 54 54 54 54 53 53 53 53 54 53 53 53 52 50 51 52 51 53 53 52 53 53 53
55 56 56 56 56 55 55 55 55 53 52 51 52 53 54 55 55 54 53 53 52 52 52 52 52 53 53 53 53 53 53 53 53 53 52 53 53 52 52 51 53 52 51
55 55 55 55 55 55 56 56 55 55 55 54 53 53 53 53 54 54 53 53 52 51 51 52 52 52 52 52 52 53 53 53 53 53 53 53 54 53 51 52 50 50 50
55 55 54 55 55 55 55 55 56 55 54 54 55 55 54 54 53 53 53 53 52 51 51 52 52 51 48 50 52 52 53 52 52 52 53 53 53 45 47 51 49 51 42
54 55 56 55 55 55 54 54 54 55 55 55 54 54 55 54 48 46 50 53 52 51 51 51 51 48 47 44 44 44 49 51 52 52 52 52 52 53 51 50 50 38 39
55 54 54 55 55 55 55 55 54 55 55 55 55 55 54 54 46 44 43 52 52 52 52 52 51 51 47 51 45 42 42 39 41 51 52 53 52 53 51 38 36 35 33
46 47 47 47 49 52 56 55 55 55 55 55 55 55 55 55 45 44 42 50 52 53 53 53 52 52 51 51 50 45 41 35 36 37 40 40 36 38 39 38 36 32 32
42 42 43 44 45 47 49 49 54 56 55 56 56 55 55 55 44 44 44 52 52 53 53 53 52 52 49 45 47 38 32 32 34 35 34 34 34 34 36 35 33 33 29
37 37 37 38 40 42 44 44 45 47 52 55 46 38 35 38 35 36 39 50 51 50 41 37 35 38 39 39 48 37 31 29 30 29 29 30 30 31 31 31 32 29 29
33 32 31 32 34 35 38 39 40 43 40 37 34 33 32 32 33 34 35 38 41 34 33 32 33 34 34 33 33 31 29 30 29 29 28 28 28 28 28 28 28 28 27
31 30 29 29 29 30 31 33 36 37 35 34 32 30 30 29 31 32 32 33 33 31 30 31 31 31 31 31 30 30 30 29 28 27 26 25 25 25 27 27 28 28 28
29 28 28 28 28 28 29 30 30 32 31 30 29 29 28 29 28 29 30 30 30 28 29 29 30 30 29 28 29 29 29 28 26 24 23 24 25 26 27 27 27 27 26
29 27 27 27 27 28 28 28 29 28 28 28 28 27 27 27 27 28 28 28 28 27 27 26 26 26 25 25 25 25 24 25 24 23 22 24 24 23 22 23 21 20 20
27 27 27 26 26 25 26 28 28 30 30 28 28 28 26 26 28 30 28 27 28 27 27 26 24 23 22 22 22 22 23 22 21 21 21 20 19 19 17 18 17 17 16
26 26 27 26 25 24 23 24 28 29 30 30 30 29 29 30 30 30 30 29 28 26 23 21 21 21 19 19 19 18 19 19 19 18 18 17 16 15 14 14 14 13 12
26 25 25 24 24 23 23 22 21 22 24 26 27 27 28 28 27 27 26 25 25 22 19 18 18 17 17 18 17 17 16 17 18 15 13 13 13 13 13 11 10 9 9
23 22 22 22 22 21 21 22 21 19 17 17 21 23 24 24 24 24 22 19 17 17 17 16 16 16 16 16 16 15 13 13 12 12 10 10 10 10 9 8 8 5 7
23 22 21 20 19 18 18 18 17 17 16 16 16 16 18 20 19 19 19 16 15 14 14 13 13 13 12 12 11 11 10 9 8 7 6 4 -1 4 3 5 4 3 4
19 20 19 18 17 16 16 16 16 15 14 14 14 14 14 13 10 10 11 11 11 11 11 10 9 9 8 8 7 7 6 5 4 4 -0 -3 -6 0 -1 1 1 -0 4
18 18 17 18 19 18 17 16 15 14 12 11 11 13 12 10 8 8 7 7 7 7 7 6 4 2 2 2 3 1 -1 -2 -2 -4 -4 -3 -12 -4 1 -0 0 3 4
18 17 16 15 15 16 15 14 13 12 11 10 9 9 8 8 7 7 6 4 4 6 5 3 3 3 1 -1 -2 -8 -8 -13 -12 -10 -11 -8 -6 -6 -5 -6 -8 -10 -2
14 13 13 14 13 11 12 12 10 9 8 8 8 7 6 4 4 3 2 -2 -1 -2 -2 -2 -3 -4 -7 -12 -10 -8 -9 -12 -13 -17 -19 -19 -11 -12 -14 -13 -9 -11 -8
12 11 11 9 9 8 8 7 7 6 6 6 6 5 4 2 -3 -6 -8 -10 -10 -8 -9 -13 -9 -8 -7 -17 -16 -11 -8 -17 -15 -16 -21 -19 -14 -11 -15 -11 -9 -11 -10
8 7 6 5 3 -1 -1 1 2 -1 -1 -3 1 -0 0 1 -6 -14 -15 -11 -8 -10 -6 -7 -8 -7 -9 -12 -10 -9 -12 -12 -17 -15 -18 -18 -19 -20 -16 -12 -12 -8 -11
6 5 5 4 1 -2 -6 -7 -10 -11 -15 -15 -14 -15 -16 -8 -10 -17 -14 -12 -12 -10 -10 -10 -4 -6 -6 -7 -7 -9 -13 -12 -17 -16 -23 -17 -20 -19 -19 -18 -15 -13 -7

GFSGL_sfc_dewp_081.txt.gz
Dewpoint
56 57 56 56 56 55 53 52 52 52 53 55 56 56 56 56 55 55 55 55 55 54 55 55 54 54 54 54 55 53 53 53 51 51 51 52 51 52 52 53 53 52 52
56 57 56 56 56 55 54 53 51 51 52 54 54 56 56 56 56 55 55 54 55 54 54 54 54 54 54 53 53 52 53 53 52 50 51 52 51 52 52 52 52 52 52
55 55 56 56 56 56 55 55 53 51 50 52 53 54 55 55 55 55 55 55 55 55 54 54 54 54 53 53 53 53 53 53 53 52 51 52 52 50 51 51 52 53 53
55 55 55 54 55 56 56 55 56 54 52 51 51 52 53 54 55 55 54 54 54 54 54 54 54 53 53 53 53 53 53 52 52 52 52 51 52 52 52 53 52 52 52
55 55 55 55 55 55 55 55 55 56 55 54 53 52 52 52 52 53 54 53 53 53 52 52 52 51 48 50 52 51 52 51 51 51 51 51 51 51 49 52 52 52 52
55 55 55 55 55 55 55 55 55 55 55 55 55 55 53 52 47 44 48 52 53 52 52 52 52 47 47 43 43 44 48 51 50 50 50 50 50 50 51 52 51 51 48
48 48 49 53 55 54 54 54 54 54 55 55 54 54 54 55 46 45 44 52 53 53 53 52 52 52 47 51 46 42 42 42 44 50 50 50 50 51 52 52 51 51 50
42 42 42 45 46 49 51 55 55 55 54 55 55 55 55 54 42 44 43 51 53 53 53 53 53 52 52 51 50 50 48 48 44 43 46 47 43 40 43 43 39 33 33
36 36 37 39 40 43 44 45 46 49 53 55 55 55 52 43 36 36 38 49 52 53 53 54 46 49 47 44 49 49 41 32 34 34 34 34 34 34 36 36 33 34 31
32 32 32 34 34 35 37 38 42 45 42 40 34 33 34 33 34 35 36 42 48 49 38 35 34 34 34 35 39 46 36 29 30 30 29 29 29 30 30 30 32 30 29
30 30 30 30 31 32 33 35 36 37 35 33 31 30 30 32 32 34 36 36 34 34 32 31 32 33 33 33 32 32 31 30 28 27 27 27 27 27 27 28 28 28 24
29 28 28 29 29 30 31 31 32 33 32 31 30 29 29 29 31 32 33 33 33 31 30 30 31 32 31 31 30 31 30 29 27 26 25 24 25 25 26 26 27 27 26
28 27 27 28 28 28 29 29 29 30 29 28 28 27 27 28 28 30 30 29 29 29 28 29 29 29 28 27 28 28 27 26 25 23 22 22 23 24 25 25 26 26 25
27 26 26 26 26 27 28 28 29 28 27 27 27 26 27 27 26 27 28 28 27 27 26 25 25 25 24 23 23 24 23 23 22 21 20 21 22 21 20 22 21 22 20
27 26 25 25 25 24 26 27 26 28 29 27 28 28 27 27 28 29 27 26 25 25 23 21 20 19 19 19 19 19 20 19 18 19 18 18 18 18 16 16 16 16 14
25 25 26 25 24 23 21 22 26 26 26 27 27 26 27 28 27 27 26 25 24 22 19 17 17 17 17 16 16 16 17 16 17 16 16 14 14 14 12 11 11 12 10
24 23 23 23 23 22 21 19 17 20 23 23 24 25 26 25 25 25 24 23 22 19 16 16 15 16 16 16 16 15 14 14 14 12 12 12 12 11 11 8 8 8 8
20 20 19 18 17 17 17 16 15 14 13 14 19 21 22 22 22 21 19 17 14 14 14 13 12 13 13 13 13 12 11 11 10 9 8 8 9 9 8 7 7 7 7
20 18 16 15 15 14 15 14 13 12 12 12 12 13 14 17 17 17 16 12 11 10 11 10 10 10 10 10 9 8 7 6 4 3 3 3 1 5 3 5 5 4 5
17 18 15 15 14 14 13 12 12 11 10 9 9 9 10 8 7 7 7 7 8 8 7 7 6 6 6 6 4 4 3 1 0 0 -8 -9 -8 -1 -4 -3 -2 -1 4
13 14 14 16 15 14 14 12 11 9 8 7 7 7 6 6 4 3 4 5 5 3 3 4 3 3 4 3 2 -1 -3 -4 -4 -4 -4 -4 -15 -6 -2 -4 -5 -1 2
14 14 14 13 13 11 11 10 8 7 7 5 4 4 3 3 3 2 1 0 0 2 3 2 1 1 1 -1 -2 -8 -11 -16 -15 -14 -15 -13 -10 -10 -10 -9 -12 -12 -5
11 9 10 10 10 7 7 8 6 5 3 1 3 2 0 -3 -4 -3 -4 -8 -3 -5 -4 -4 -7 -6 -5 -9 -10 -10 -9 -14 -15 -21 -22 -22 -14 -15 -17 -15 -11 -12 -11
7 5 8 5 3 3 1 -1 1 2 2 0 -3 -1 -4 -10 -14 -13 -11 -10 -7 -9 -11 -16 -12 -11 -10 -18 -19 -13 -10 -18 -17 -18 -22 -22 -17 -13 -17 -13 -11 -13 -14
3 1 1 -2 -4 -7 -6 -6 -8 -8 -6 -7 -8 -8 -4 -6 -8 -17 -17 -15 -10 -12 -10 -12 -11 -10 -13 -14 -13 -12 -14 -13 -19 -17 -20 -20 -21 -21 -18 -14 -17 -13 -15
1 0 -1 -3 -7 -9 -11 -13 -18 -17 -17 -17 -19 -19 -17 -14 -15 -21 -18 -16 -16 -16 -14 -14 -11 -12 -12 -8 -6 -8 -14 -13 -17 -17 -25 -18 -21 -21 -21 -20 -17 -15 -10

GFSGL_sfc_dewp_084.txt.gz
Dewpoint
56 55 55 56 55 54 54 53 53 53 54 55 56 56 56 56 56 55 55 55 55 54 55 55 55 55 55 55 55 55 54 54 51 51 51 53 52 53 52 53 53 52 52
55 56 56 56 55 55 54 53 52 52 53 54 55 55 56 55 55 56 56 56 55 55 55 54 54 54 55 55 55 54 54 53 52 50 50 50 52 53 52 53 51 51 52
55 56 56 56 56 55 54 53 52 51 52 53 54 55 55 55 55 55 55 55 55 55 55 55 54 55 54 54 54 53 53 53 52 51 50 51 52 53 52 52 52 53 52
54 54 54 54 55 56 55 55 53 52 51 52 53 54 54 54 55 55 55 55 55 55 55 55 54 54 54 53 53 53 53 53 52 52 52 52 52 53 52 51 51 52 52
54 54 54 54 54 54 54 54 55 54 52 51 51 52 53 53 54 54 54 54 54 54 54 54 54 53 50 51 53 53 53 52 52 52 51 51 51 51 51 51 51 52 52
54 54 55 54 54 54 53 54 54 54 54 54 53 52 52 51 46 44 50 54 54 54 53 53 53 48 48 44 45 46 49 52 51 51 50 50 50 50 51 51 51 50 49
47 46 47 50 54 54 54 54 55 55 55 54 54 54 54 54 43 43 43 51 52 53 53 53 52 52 48 51 46 42 42 42 44 51 50 50 50 51 51 50 50 50 50
39 39 41 42 43 45 47 47 51 53 55 55 55 55 55 39 36 36 37 47 52 52 53 53 53 53 52 51 51 50 49 46 38 41 43 40 35 34 38 42 40 33 34
33 34 36 37 38 39 39 40 43 46 44 39 38 39 39 35 35 35 36 43 49 52 51 37 36 38 37 38 42 46 41 32 32 33 33 32 31 32 33 37 34 36 32
30 31 32 33 34 35 36 37 39 38 35 34 32 32 32 32 34 35 36 41 41 36 33 33 33 34 34 36 38 39 33 30 29 29 29 29 29 29 29 29 30 29 28
29 30 30 30 31 32 32 33 34 34 32 31 29 29 29 31 31 33 34 34 34 32 31 30 31 32 32 33 33 33 32 30 29 28 27 27 26 26 26 26 26 27 24
28 28 28 29 29 30 30 31 31 31 30 29 28 28 28 29 30 30 30 30 30 28 28 28 29 29 28 28 28 28 28 27 26 24 23 22 23 23 25 25 25 25 25
27 27 27 27 28 28 29 29 28 29 28 28 27 27 27 28 28 29 28 27 27 26 27 26 25 25 24 24 25 24 24 23 22 20 19 20 21 23 24 25 25 24 22
26 25 25 25 26 26 26 27 28 28 27 26 26 26 27 27 26 26 26 25 24 24 22 21 21 21 19 19 20 21 21 21 20 19 19 20 20 19 19 21 19 20 17
25 25 24 24 23 23 25 25 25 28 27 25 26 26 24 25 27 27 24 22 21 21 20 19 18 18 17 17 17 17 18 18 17 18 17 17 16 14 13 14 14 14 13
23 24 24 23 23 21 20 21 25 26 26 27 26 25 26 26 25 25 24 23 22 20 17 15 15 15 15 15 14 14 14 14 15 15 15 14 12 11 10 10 10 10 9
22 22 21 20 20 19 17 16 14 18 22 23 24 24 25 23 23 23 22 21 19 17 13 13 13 13 14 14 13 13 12 11 11 10 10 10 10 9 9 7 9 9 7
17 16 16 15 14 14 12 12 12 11 10 11 16 19 21 21 20 19 17 14 11 11 11 10 10 11 11 10 9 8 7 7 6 6 6 6 7 8 7 6 5 6 5
17 15 13 13 12 12 12 11 10 9 8 8 9 10 10 15 15 15 13 8 7 7 7 6 7 7 7 7 6 5 4 3 2 1 2 3 3 5 4 4 4 4 4
13 15 14 13 11 10 10 9 8 7 6 5 5 5 6 5 3 3 3 3 3 4 4 4 4 3 3 3 0 -0 1 0 0 1 -0 -2 -2 2 1 1 2 2 2
12 12 12 12 12 11 10 8 7 6 5 4 3 2 2 2 0 0 1 -0 0 0 -1 1 -0 -2 0 -2 -1 -3 -6 -6 -5 -5 -4 -3 -7 -3 -2 -2 -1 1 1
11 12 12 10 9 7 7 6 4 4 3 2 1 -0 -2 -2 -1 -1 -3 -8 -8 -2 -1 -4 -3 -2 -3 -4 -6 -9 -11 -12 -10 -11 -10 -9 -8 -7 -6 -4 -5 -5 -2
8 6 8 7 7 3 2 4 1 -1 -3 -4 -3 -3 -5 -11 -10 -6 -8 -12 -6 -8 -7 -6 -7 -5 -7 -9 -8 -8 -7 -8 -9 -13 -12 -13 -9 -9 -10 -7 -6 -5 -5
4 1 5 1 -1 -2 -7 -9 -7 -4 -4 -9 -14 -13 -14 -18 -21 -17 -16 -15 -12 -15 -16 -15 -8 -6 -6 -12 -11 -7 -6 -10 -10 -11 -14 -12 -10 -9 -10 -8 -7 -8 -7
-2 -4 -6 -7 -10 -13 -14 -13 -17 -19 -17 -19 -17 -15 -11 -12 -13 -22 -22 -19 -16 -20 -13 -13 -11 -9 -9 -12 -12 -9 -12 -13 -17 -17 -16 -16 -16 -17 -13 -10 -11 -8 -9
-2 -4 -6 -8 -13 -17 -19 -22 -23 -24 -22 -23 -24 -24 -22 -18 -18 -25 -21 -18 -17 -17 -13 -12 -12 -13 -12 -9 -5 -6 -14 -14 -15 -18 -19 -12 -14 -14 -14 -13 -12 -9 -7

GFSGL_sfc_dewp_087.txt.gz
Dewpoint
55 55 56 55 56 56 56 57 57 57 57 58 57 57 57 56 54 53 52 55 56 55 56 56 55 56 56 56 56 56 56 55 53 52 53 53 54 54 53 54 53 53 53
55 56 56 57 56 55 55 55 56 57 57 57 58 57 57 57 57 56 53 53 55 55 55 55 55 55 55 56 55 55 55 54 53 53 53 54 55 55 56 55 52 51 53
55 56 56 56 56 56 56 55 55 55 56 56 57 57 57 56 56 56 56 55 55 55 55 55 55 55 55 56 56 55 55 54 55 54 53 54 54 55 54 55 55 56 53
56 56 56 56 56 56 56 55 54 54 55 55 56 56 57 57 56 56 56 56 56 56 56 57 56 56 56 56 55 55 54 54 54 53 53 52 53 54 55 55 55 56 55
55 55 55 56 57 57 57 56 56 55 54 54 55 55 56 56 55 56 56 56 56 55 56 56 57 55 50 53 55 56 56 55 54 54 53 53 53 53 53 54 53 53 55
55 55 55 56 56 56 57 57 57 56 55 54 53 54 54 53 47 46 52 55 55 55 55 56 56 50 50 45 45 46 51 54 53 53 52 51 51 51 52 52 51 51 50
44 44 46 50 50 51 54 55 56 56 57 56 55 54 53 48 37 39 41 54 55 55 55 54 54 54 50 54 48 43 43 42 43 50 51 52 51 50 48 51 51 52 50
38 38 39 42 42 43 44 46 48 47 45 46 44 47 40 35 35 36 36 47 50 52 48 42 43 44 39 40 44 49 45 34 35 37 35 34 33 34 37 39 39 34 34
33 34 35 37 37 38 39 40 42 40 37 36 35 36 35 33 35 35 38 45 46 38 35 34 34 35 34 35 39 40 32 31 33 33 32 31 31 30 31 37 35 35 34
31 31 32 33 34 34 36 36 35 34 33 32 31 32 32 32 33 35 37 42 37 33 32 31 32 33 33 34 37 38 33 31 32 30 28 28 28 28 28 29 30 32 30
30 31 31 31 32 32 33 33 33 32 31 30 29 30 30 31 31 32 33 33 31 29 28 28 29 30 30 30 30 30 30 28 27 26 26 26 26 26 26 27 27 27 25
29 28 29 29 30 30 31 31 31 31 30 29 29 29 29 29 29 30 29 29 29 28 28 28 28 28 27 27 28 26 26 26 25 24 24 23 24 24 26 25 25 25 24
26 26 26 27 27 28 29 30 30 29 29 28 28 28 28 28 28 28 27 27 26 27 27 25 25 25 25 25 24 24 25 26 26 25 25 24 24 24 26 26 25 21 19
25 24 25 25 25 26 26 27 27 28 28 27 27 27 28 28 28 28 28 27 25 25 24 24 23 22 22 23 24 25 24 25 24 24 23 22 21 21 20 19 18 21 16
24 24 23 23 24 24 25 25 26 27 26 25 25 25 26 26 27 27 27 27 26 23 24 25 24 23 22 22 21 20 21 21 21 21 21 19 16 14 12 14 13 14 13
23 23 23 23 22 21 20 21 25 25 26 26 26 26 27 26 25 24 23 22 21 21 22 22 21 21 20 19 18 17 16 14 15 15 16 14 12 11 10 11 11 11 10
22 22 21 21 21 19 19 18 17 19 21 22 23 23 23 23 23 22 21 20 19 19 19 18 18 18 17 15 14 13 12 12 11 11 12 12 12 11 11 9 10 10 8
19 18 20 20 19 19 19 18 18 18 17 16 16 19 20 20 19 18 16 17 16 15 15 15 15 14 12 10 10 9 9 10 10 9 10 11 12 11 10 8 8 9 7
19 18 19 19 18 17 17 17 15 15 14 13 14 12 11 14 14 14 14 14 12 11 10 10 11 11 10 9 10 9 9 8 8 9 8 8 10 8 7 7 7 5 5
18 16 17 18 17 17 15 14 13 12 11 10 9 9 10 10 11 10 10 11 10 8 8 7 7 8 8 8 9 9 8 7 6 6 7 7 8 8 7 6 6 6 4
18 17 15 16 15 14 14 12 11 10 8 7 7 6 4 7 7 7 6 7 7 5 7 6 6 7 7 6 5 5 3 4 2 2 3 3 5 5 4 5 5 4 3
16 15 14 13 12 12 11 9 9 8 6 6 6 4 3 7 5 5 4 5 6 5 5 5 4 3 3 3 3 4 1 1 1 0 0 -1 1 2 2 3 3 4 3
13 13 12 10 10 8 9 8 8 8 6 6 5 4 4 4 4 3 3 5 4 4 4 4 4 3 3 2 3 2 1 -1 -1 -2 -2 -1 -1 1 2 2 2 2 2
11 12 9 9 9 8 9 8 7 4 5 5 6 4 3 3 3 2 2 3 3 3 3 3 2 1 1 2 3 2 0 -0 -1 -2 -5 -3 -3 -2 -0 -0 0 -0 1
9 9 8 7 7 7 7 6 6 5 5 5 5 5 3 3 1 1 0 -0 -1 0 -0 0 1 -1 -3 -2 -1 -3 -4 -4 -5 -8 -3 -4 -4 -5 -4 -2 -2 -1 -1
6 6 6 6 5 5 5 5 4 4 3 3 3 3 2 1 -1 -1 -2 -2 -2 -2 -3 -1 -2 -3 -3 -2 -5 -7 -5 -6 -5 -8 -6 -4 -4 -4 -3 -3 -4 -1 -1

GFSGL_sfc_dewp_090.txt.gz
Dewpoint
55 55 56 56 57 57 57 58 58 58 57 56 55 54 53 53 53 52 51 53 56 55 55 56 55 55 56 57 58 57 56 56 52 53 54 55 57 56 54 55 54 55 54
55 55 56 56 56 56 56 57 58 58 58 58 57 57 56 55 54 52 51 50 54 55 53 55 54 55 56 56 56 56 56 55 54 52 52 53 53 54 55 56 53 52 54
55 55 55 55 56 56 57 57 58 58 58 58 58 57 57 56 55 54 53 51 51 52 55 56 55 55 55 55 55 54 54 54 55 55 54 53 54 55 56 56 57 58 55
55 54 55 56 56 57 57 57 57 57 57 57 58 58 58 58 57 56 54 54 53 52 54 56 55 55 55 55 55 55 55 55 55 54 54 53 54 55 55 55 54 55 55
55 53 55 56 56 56 56 56 56 56 56 56 57 57 57 57 57 57 57 57 56 56 56 54 55 54 50 53 57 57 57 57 56 56 55 54 54 54 54 54 53 54 55
53 53 55 55 54 55 56 56 56 56 55 55 55 56 57 54 37 41 52 57 57 56 56 57 57 51 51 45 45 46 51 56 55 55 53 53 53 53 53 52 52 51 51
45 45 47 49 49 50 54 55 55 56 56 55 55 55 46 40 36 37 37 54 56 56 56 55 55 55 50 55 47 43 43 37 38 47 49 50 45 39 39 42 42 40 38
38 39 41 42 42 44 45 46 44 44 42 42 41 39 37 35 35 36 36 48 52 40 38 38 41 41 37 38 43 40 35 34 35 35 33 32 32 32 34 38 39 37 35
34 35 36 38 39 39 39 39 39 37 35 35 35 35 35 34 35 36 41 43 37 34 33 33 34 34 34 36 40 36 32 31 32 31 31 31 30 30 32 38 34 35 36
32 32 33 35 35 35 35 35 34 33 32 32 31 32 32 32 33 35 38 36 32 30 30 31 32 32 32 34 40 35 31 31 29 30 29 29 31 29 28 31 34 32 32
33 32 32 33 33 33 33 33 32 31 31 30 29 30 30 31 31 32 33 32 30 29 28 28 30 30 30 31 31 30 29 29 29 28 28 28 30 29 29 30 31 32 32
31 30 30 31 31 32 32 32 32 31 30 30 30 30 30 29 29 30 30 31 31 30 29 29 29 28 28 28 29 27 27 30 32 31 30 29 29 29 29 28 28 28 27
30 28 28 29 29 29 31 31 32 31 31 30 30 30 30 31 30 27 27 28 28 30 29 28 26 26 27 27 26 28 30 33 32 29 28 27 27 27 29 28 28 24 20
27 26 27 26 26 27 26 28 28 30 29 29 28 28 28 30 30 31 31 30 28 28 27 30 27 27 26 27 29 29 28 28 27 26 26 26 25 23 21 20 20 21 19
27 26 25 25 24 23 25 26 26 28 28 27 27 28 28 27 27 27 28 29 30 28 30 30 29 28 27 26 25 24 24 24 24 24 23 21 18 16 14 15 15 17 16
24 24 25 24 24 22 21 21 24 24 25 25 26 26 26 25 24 23 23 23 23 26 27 26 25 25 24 23 22 21 19 17 17 17 19 16 15 14 12 13 13 14 12
24 24 23 24 23 23 23 23 21 21 20 21 22 22 23 22 21 21 21 21 22 24 25 23 23 22 21 17 17 16 16 15 15 15 15 16 16 14 15 13 14 13 12
23 23 24 24 24 24 24 23 23 23 22 21 18 18 19 19 19 19 19 20 22 20 20 20 19 18 15 13 12 12 13 14 14 13 14 15 16 15 14 12 11 12 10
23 23 23 23 23 23 23 23 22 22 21 20 20 17 16 15 16 17 17 20 18 15 13 13 15 14 13 12 15 14 14 13 13 14 13 12 15 13 11 10 11 8 8
22 21 22 23 23 22 21 21 20 19 18 16 14 14 15 16 17 16 17 17 15 13 12 10 10 12 12 12 14 14 13 12 11 10 12 12 13 12 11 10 10 10 7
22 21 19 21 20 19 19 18 16 15 13 12 11 11 8 12 12 12 12 13 12 11 12 10 12 12 12 11 9 10 8 10 8 8 8 8 9 9 8 9 9 7 5
19 18 17 17 17 17 15 14 14 12 11 11 11 9 7 13 11 10 10 11 11 10 10 10 9 8 8 8 8 10 7 7 7 6 6 5 6 8 7 7 7 8 6
17 17 15 14 14 13 15 13 14 14 12 12 11 10 10 11 10 9 9 10 9 9 8 8 9 7 7 7 8 7 6 5 5 4 3 5 5 6 7 7 5 5 6
14 15 12 13 14 14 15 14 12 8 10 11 12 11 9 9 9 7 7 8 7 8 8 7 5 3 3 5 7 6 4 3 3 3 1 2 3 3 3 4 4 4 4
14 14 13 13 13 13 13 11 12 11 11 11 11 10 8 8 6 7 7 6 3 5 2 3 4 2 -2 -0 0 0 -0 -2 -1 -3 1 1 2 0 1 1 2 3 3
10 9 10 11 11 11 11 10 10 9 8 9 9 9 8 6 6 6 5 3 2 2 -2 4 1 -2 -1 0 -1 -0 -3 -3 -3 -5 -2 0 1 1 1 1 0 2 2

GFSGL_sfc_dewp_093.txt.gz
Dewpoint
55 56 57 56 57 58 59 59 57 57 57 56 57 57 57 57 58 58 58 57 56 56 56 56 56 56 56 57 59 57 56 56 52 52 53 55 56 58 56 56 56 57 56
55 55 56 56 57 57 57 58 58 56 56 56 56 55 55 54 54 53 53 53 53 54 55 55 55 54 55 56 58 57 57 56 55 53 53 53 53 54 55 58 56 53 54
54 55 56 55 56 56 57 58 58 57 57 56 55 55 53 53 53 53 52 52 53 52 52 53 52 54 55 55 56 55 56 54 54 53 52 54 55 55 55 56 56 57 55
54 54 54 56 56 56 57 58 58 58 58 58 57 57 56 55 54 53 53 52 52 52 53 53 52 54 54 55 55 55 54 53 53 53 53 53 54 56 55 55 55 56 56
55 53 55 55 56 57 57 57 57 58 58 58 58 58 58 57 56 55 54 54 53 51 51 52 53 54 50 52 55 55 55 54 55 54 54 55 55 56 56 56 55 55 55
54 54 54 55 55 56 56 57 56 56 56 57 57 57 58 43 37 39 51 55 55 55 54 54 54 48 48 45 46 45 48 54 55 55 55 54 54 54 52 50 49 51 49
45 46 48 50 51 51 54 53 53 55 56 52 51 45 41 38 36 38 38 53 55 51 50 49 54 45 43 48 45 39 36 36 37 44 48 44 41 35 37 41 44 42 41
39 40 42 43 44 44 44 43 42 41 41 41 40 39 38 35 36 37 37 48 40 37 37 38 39 38 36 38 43 36 33 32 33 33 33 32 32 33 34 36 37 36 34
35 36 37 38 38 38 37 37 37 36 35 34 34 34 34 34 35 37 42 39 35 33 32 33 33 33 34 36 39 33 32 31 32 32 32 31 31 31 32 39 35 36 35
33 33 34 35 34 34 34 33 33 32 32 31 30 31 32 32 34 35 35 33 31 30 31 31 32 32 33 36 35 32 29 29 30 30 30 31 31 31 30 32 34 34 34
34 34 34 34 33 33 33 33 32 32 31 30 30 30 30 31 32 33 33 31 31 29 29 29 31 31 32 32 32 30 29 30 30 31 31 32 33 32 31 31 32 30 32
33 32 32 33 33 33 33 33 33 32 32 31 30 30 30 29 30 31 32 32 31 29 29 29 30 29 30 30 31 30 30 32 33 33 32 29 28 29 30 30 31 30 27
30 30 30 32 31 30 30 32 32 32 31 30 30 30 30 32 30 28 28 29 29 29 30 29 28 28 29 28 28 29 30 32 32 30 28 27 29 28 31 29 28 25 21
31 29 28 27 27 28 26 26 26 29 29 29 29 29 29 28 30 32 32 32 29 30 30 31 29 28 28 28 30 30 30 29 28 27 27 27 26 24 21 21 21 20 20
29 30 29 26 24 22 23 25 25 26 27 27 26 27 27 26 26 27 29 30 31 31 32 31 30 29 28 27 26 25 24 24 23 24 23 22 19 17 15 16 16 18 17
28 28 28 27 27 25 21 20 24 24 24 24 26 26 26 25 24 24 25 26 27 28 28 27 26 27 25 23 23 21 20 18 18 18 19 18 17 16 15 14 15 16 14
25 25 25 26 26 26 27 24 19 21 22 23 22 23 22 22 22 22 23 23 25 25 24 24 24 23 21 18 18 17 17 16 16 16 17 17 17 16 16 14 14 15 14
25 24 25 26 26 26 26 25 25 24 22 21 19 19 19 20 21 22 23 23 22 21 20 20 19 18 16 14 14 14 14 15 15 15 16 16 17 16 15 13 13 13 10
23 24 24 25 25 25 25 24 23 22 21 21 21 20 19 18 18 19 19 21 19 16 14 14 16 15 14 14 17 16 15 15 14 15 15 14 16 14 12 11 12 12 11
23 23 24 24 24 23 23 22 21 19 18 15 14 15 17 17 18 17 18 19 17 15 14 12 12 13 14 14 16 15 15 13 12 12 13 14 13 13 12 11 11 10 8
22 21 20 21 20 20 19 18 17 17 15 12 12 13 12 14 14 14 14 15 14 13 14 12 13 13 13 13 12 12 10 11 10 10 10 9 11 11 9 10 10 8 7
19 18 17 17 17 17 16 15 16 15 13 13 13 12 11 15 13 12 12 13 13 12 12 12 11 10 9 10 10 11 9 8 8 7 7 7 8 9 9 8 8 8 7
17 17 15 15 15 15 17 15 16 16 14 14 13 12 12 13 12 11 11 12 11 11 10 10 10 9 9 9 9 8 7 6 6 6 4 5 5 7 7 7 6 6 6
16 17 13 14 15 15 16 16 15 10 12 13 14 13 12 11 11 10 10 9 9 10 9 9 7 3 4 6 8 7 6 3 3 3 2 4 4 4 4 4 4 5 4
15 15 15 14 15 14 14 13 13 13 12 12 12 12 10 10 9 9 9 8 5 7 4 5 5 3 4 1 1 2 -0 -1 -1 -2 1 1 3 2 3 3 3 3 3
12 11 12 13 13 13 13 12 12 11 11 11 11 11 10 9 8 8 7 5 4 4 1 5 3 -1 -0 3 2 0 -3 -3 -2 -4 -2 1 3 3 3 1 0 2 1

GFSGL_sfc_dewp_096.txt.gz
Dewpoint
58 58 58 58 58 59 59 58 57 57 57 56 57 57 59 59 59 59 59 58 58 58 58 57 56 56 56 56 56 56 55 54 51 51 52 54 55 56 56 55 56 56 56
57 57 58 58 58 59 58 58 57 56 56 57 57 57 56 57 59 58 58 58 57 57 56 56 56 57 56 54 56 55 55 55 53 51 52 52 53 54 55 56 55 54 55
56 57 57 57 57 57 58 58 56 56 56 56 56 55 54 54 54 56 56 55 55 55 55 55 55 55 54 54 54 56 55 54 55 52 52 53 52 53 54 54 54 54 54
56 56 56 56 56 57 57 58 57 56 56 55 55 55 54 54 54 54 53 53 53 53 54 53 53 54 53 54 55 55 54 54 54 53 52 52 51 51 53 53 53 55 55
56 55 56 57 57 57 58 58 58 57 56 56 56 55 54 54 54 53 53 53 53 53 54 54 54 51 48 51 53 54 54 54 53 52 52 51 51 52 53 55 55 55 46
53 54 56 56 57 57 57 58 58 58 58 57 57 57 54 41 38 41 51 54 54 54 52 52 52 47 48 45 43 38 42 52 54 53 53 53 53 45 44 45 45 46 46
46 47 49 50 50 49 49 48 47 49 47 45 43 41 39 38 37 39 43 54 53 51 50 50 49 43 43 46 37 35 35 35 36 45 48 38 40 35 36 40 42 41 41
38 40 42 43 42 42 41 40 40 40 39 39 38 38 37 36 37 38 41 41 38 36 36 38 39 38 36 43 36 33 32 32 33 33 33 32 32 33 34 37 37 35 33
34 35 36 38 37 36 35 35 35 34 33 33 33 33 34 34 36 37 39 36 33 32 32 34 34 34 35 40 35 32 30 30 33 33 33 32 32 32 33 37 34 34 32
32 34 34 34 34 33 33 33 33 32 31 30 30 31 32 33 34 35 34 33 31 31 31 31 33 33 36 35 33 31 29 29 30 30 31 31 31 30 30 30 31 32 32
32 31 32 34 33 33 33 32 32 31 30 29 28 29 30 31 33 33 33 31 30 29 29 30 31 32 32 33 32 31 29 31 31 31 31 30 29 29 26 26 26 27 29
29 30 30 30 30 32 34 33 33 32 31 31 30 29 29 29 31 32 32 32 31 29 28 29 30 31 31 32 31 32 32 32 31 29 28 27 27 29 24 24 23 23 22
28 26 26 28 29 29 28 29 31 32 31 30 28 27 27 31 29 30 30 30 30 29 29 30 30 29 29 28 29 29 29 30 29 27 27 27 27 23 25 26 27 24 20
28 27 25 25 25 26 26 26 26 28 26 28 27 25 25 27 29 30 31 31 30 30 29 29 28 27 27 27 27 28 27 27 27 27 27 25 24 23 21 23 22 23 23
29 29 27 25 24 23 24 24 24 26 27 25 24 25 24 24 27 29 29 29 29 29 28 28 27 26 25 24 22 21 21 22 21 21 21 21 20 20 19 20 21 21 19
28 27 27 28 25 23 22 21 25 26 26 26 25 24 25 25 26 27 27 28 28 27 26 25 24 23 22 21 20 18 18 17 19 19 18 19 19 18 18 18 18 18 17
25 25 25 26 26 26 25 21 18 22 24 24 25 26 26 26 25 25 24 25 26 25 23 22 21 20 18 17 17 16 16 16 18 16 16 16 17 18 17 16 16 14 13
25 24 24 25 25 25 25 24 24 22 19 19 21 21 22 22 23 25 25 22 20 19 19 18 18 18 16 16 15 15 14 14 14 15 12 12 13 15 13 13 14 9 12
24 25 26 25 25 25 24 23 22 20 18 17 18 20 20 19 19 20 19 18 16 15 14 15 16 16 16 15 16 16 11 9 9 7 11 11 8 13 10 11 11 8 8
23 22 23 24 23 23 22 21 19 17 14 13 13 14 18 17 16 16 16 16 16 15 15 14 14 14 14 15 13 11 12 9 9 11 7 5 5 9 5 7 8 6 10
23 22 20 20 20 20 20 18 18 17 14 12 12 14 15 15 14 14 13 13 13 13 14 13 13 12 12 11 13 10 9 9 8 7 7 7 3 8 8 7 7 8 8
20 19 18 18 18 18 18 18 18 16 15 14 14 13 13 15 13 12 12 12 12 11 13 12 11 10 9 10 9 6 6 2 4 2 1 2 4 8 4 5 4 2 6
19 18 16 16 18 17 17 14 16 17 16 15 14 13 13 12 11 12 11 11 11 9 7 9 8 8 6 9 8 8 4 2 4 1 -5 -0 1 1 -1 -0 2 2 3
17 17 15 16 16 16 16 18 15 11 14 15 15 13 12 11 11 9 6 5 8 7 4 7 4 0 1 -1 1 5 1 -4 -2 -2 -7 -1 -0 3 -3 1 0 -2 -3
15 15 16 15 15 15 15 14 14 13 13 13 12 13 11 11 10 9 5 6 1 2 3 3 0 0 -1 -4 -0 -3 -7 -5 -9 -8 -6 -6 -5 -3 1 -1 -1 -1 1
13 12 13 13 13 13 12 12 13 11 11 9 10 9 7 7 9 4 3 4 -1 -1 0 3 3 -4 -5 4 -0 -5 -9 -7 -9 -9 -11 -4 -0 -2 -4 -7 -5 -5 -1

GFSGL_sfc_dewp_099.txt.gz
Dewpoint
59 58 58 58 59 59 58 57 57 57 57 57 57 58 59 59 59 59 59 59 58 58 58 58 57 57 56 55 55 56 54 52 50 51 52 54 55 56 55 56 57 57 56
58 58 58 59 59 59 58 56 57 56 57 56 57 57 58 59 59 59 58 58 58 58 58 58 57 57 56 55 54 54 54 54 52 50 52 52 52 55 55 55 55 55 55
57 57 58 58 58 58 58 57 57 56 56 57 56 56 55 57 58 58 58 58 58 58 58 57 57 56 55 54 54 54 54 54 53 52 51 53 53 53 53 53 54 55 54
57 57 57 57 57 58 57 57 56 56 56 56 56 55 55 55 56 57 57 57 57 57 56 56 56 56 55 55 54 54 55 54 54 53 51 51 52 52 52 51 51 54 54
56 56 57 57 57 57 58 57 57 56 56 56 55 55 54 54 52 54 55 55 55 54 55 55 55 53 50 51 54 55 54 54 53 52 51 50 50 51 52 53 52 52 43
44 52 55 56 57 57 58 57 57 56 56 55 55 55 47 42 38 41 50 54 54 53 53 54 55 50 49 42 40 39 46 53 52 51 50 49 51 46 44 46 47 47 46
36 40 45 47 47 47 47 46 46 44 43 42 41 41 39 39 37 39 42 53 53 52 52 53 52 44 45 41 36 36 34 35 36 47 51 43 42 37 38 41 43 43 40
34 34 37 40 39 40 40 39 38 37 37 36 36 37 37 37 38 39 39 39 37 36 36 38 40 39 40 40 36 33 32 33 33 33 33 32 32 33 35 38 38 33 32
31 33 34 35 34 34 34 34 34 33 33 32 33 34 34 34 36 36 36 34 33 33 33 35 35 37 37 37 34 31 31 31 33 33 33 32 33 33 35 36 34 33 32
31 31 32 34 33 32 32 32 32 31 31 30 31 32 33 33 35 35 34 32 31 31 31 32 34 35 34 34 32 31 29 29 31 31 30 30 30 30 30 31 32 32 31
29 30 30 31 32 33 33 32 32 31 30 29 29 30 31 32 33 33 32 31 30 30 30 31 32 33 34 33 32 31 30 31 31 30 30 30 29 28 26 25 27 27 22
27 26 27 28 29 31 31 31 32 30 29 29 29 28 29 31 32 32 32 31 30 29 29 30 31 32 32 32 32 32 32 31 30 29 28 27 27 23 22 22 20 21 22
25 24 25 25 26 27 27 28 28 29 27 26 26 26 28 30 30 31 31 31 31 29 30 31 31 31 30 29 30 30 29 29 28 26 24 21 18 19 22 23 26 21 19
26 25 24 24 24 25 25 25 26 25 25 25 25 25 27 28 29 31 31 31 30 30 29 29 27 25 23 22 22 23 25 24 24 23 19 18 21 20 19 21 21 22 21
27 28 25 24 22 22 24 24 25 26 26 24 25 26 26 26 29 31 30 29 29 28 28 26 25 23 20 19 19 19 20 20 20 20 20 19 18 19 18 19 19 20 17
25 26 27 26 24 22 21 22 26 27 28 28 28 27 28 29 30 30 29 28 27 25 23 21 20 19 19 18 17 17 18 18 19 18 17 18 18 17 18 16 15 14 14
24 24 24 25 25 25 23 22 18 22 26 26 27 28 28 29 29 29 28 27 25 22 20 19 18 17 17 17 16 16 16 17 16 16 15 14 16 16 15 15 14 13 12
25 25 24 24 24 23 22 21 20 19 18 18 23 22 25 25 25 24 23 21 19 19 19 18 18 18 18 16 15 14 13 14 14 14 12 11 12 13 12 12 12 8 11
22 22 23 23 23 22 21 18 16 14 14 14 15 18 18 19 19 19 19 17 15 15 15 15 15 16 15 14 15 13 12 11 11 10 9 8 7 10 9 10 9 8 9
20 20 19 20 19 19 19 17 14 12 12 12 12 14 16 15 13 13 14 14 14 14 14 13 13 13 14 13 11 12 10 9 8 8 7 6 5 8 7 8 8 7 8
17 17 16 17 17 18 18 17 16 13 11 11 12 15 14 13 12 11 11 11 11 12 12 10 9 10 10 10 10 7 6 5 4 3 3 4 1 5 5 7 6 7 7
17 17 16 17 18 14 15 16 14 13 13 11 12 12 11 12 11 10 10 8 7 9 11 10 8 8 8 8 6 4 0 -0 -1 -3 -2 -0 2 1 0 -0 -2 -4 3
14 13 13 14 15 13 9 10 9 13 9 7 7 8 7 2 3 6 4 6 7 5 5 3 3 1 3 4 3 0 -2 -3 -2 -11 -10 -8 -4 -1 -8 -7 -5 -7 -6
12 11 13 10 9 7 6 5 7 6 7 10 8 3 -1 -4 -4 -6 -9 -10 -0 -9 -7 -5 -2 -4 -3 -7 -8 -4 -4 -11 -10 -11 -15 -14 -9 -4 -7 -2 -3 -9 -9
5 5 7 11 5 5 9 10 0 -3 3 -4 -5 -2 1 6 4 -9 -10 -10 -9 -11 -6 -4 -7 -6 -9 -5 -9 -8 -10 -9 -15 -13 -15 -14 -15 -5 -5 -7 -12 -8 -10
6 4 2 2 0 -1 -3 -5 1 -0 -5 -6 3 4 3 5 2 -4 -6 -9 -10 -10 -3 -5 -6 -8 -3 -5 -7 -8 -11 -10 -15 -14 -18 -13 -10 -10 -14 -14 -10 -10 -6

GFSGL_sfc_dewp_102.txt.gz
Dewpoint
58 58 59 59 59 59 59 58 57 57 56 57 58 59 59 59 60 60 60 59 59 59 59 58 57 58 57 57 56 55 54 52 50 50 53 55 56 56 56 56 56 55 54
54 57 58 59 59 58 58 57 57 55 56 56 55 57 57 58 59 59 59 59 59 58 58 58 58 58 56 56 56 55 54 53 52 50 51 53 54 56 56 56 57 58 57
47 57 58 58 58 58 57 57 56 56 56 56 56 56 56 56 57 58 59 58 58 58 58 58 57 57 56 56 55 55 55 54 52 52 51 53 54 55 54 54 54 55 50
46 57 57 58 58 58 57 56 56 56 56 56 56 56 55 55 56 58 58 58 58 58 58 58 58 57 56 56 55 55 55 54 53 52 51 52 52 53 53 51 52 54 49
40 44 51 58 58 58 57 56 56 56 56 56 55 55 55 51 46 50 58 58 57 57 58 58 58 55 50 53 56 55 55 54 53 52 51 51 51 51 51 51 51 50 43
37 37 40 47 56 56 57 57 55 52 53 53 53 51 47 43 38 40 50 55 56 56 56 56 54 49 48 45 43 40 48 54 53 52 51 50 50 49 48 49 49 48 43
34 34 36 38 42 43 45 43 43 42 41 40 40 40 40 39 38 40 42 51 47 49 51 53 49 46 45 40 36 36 35 35 37 51 51 47 45 41 42 43 44 43 37
32 32 34 35 35 36 37 36 36 36 35 35 35 36 36 37 37 38 38 39 38 37 38 41 44 43 42 41 36 34 33 33 33 34 34 32 33 34 38 39 39 32 32
29 31 32 34 33 32 32 32 33 32 32 32 33 33 34 34 35 36 36 35 34 33 35 36 38 38 37 38 34 32 31 31 33 33 33 33 33 34 36 37 34 34 31
26 28 30 31 32 32 32 31 31 31 30 30 30 31 33 32 34 34 34 33 32 32 32 33 34 34 35 35 33 32 30 30 30 30 29 29 29 31 31 32 34 33 30
27 27 27 28 30 31 31 31 31 30 29 29 29 30 31 32 32 33 33 31 31 31 31 31 32 33 34 33 32 32 30 31 30 30 29 29 27 26 25 27 29 30 26
25 25 25 26 27 28 29 29 30 29 28 28 28 28 29 31 31 32 32 31 31 29 29 31 32 33 32 32 31 32 31 30 29 28 27 26 27 26 25 24 25 24 23
24 23 24 25 25 26 26 26 26 27 27 27 27 27 28 29 30 31 30 29 29 27 27 28 28 28 27 27 28 29 29 29 27 25 23 22 23 25 26 26 24 22 20
25 24 23 23 23 25 25 26 25 24 25 25 26 27 28 29 29 30 30 30 29 28 26 25 25 25 24 24 24 25 24 24 23 21 20 22 22 21 21 22 22 23 18
25 26 24 23 22 22 24 25 25 27 27 25 26 27 27 27 29 31 29 28 28 27 26 25 22 21 21 21 20 20 21 20 20 20 20 20 20 19 17 18 17 17 16
24 24 25 25 23 22 21 21 26 27 28 29 29 29 28 30 30 30 29 28 27 24 22 20 19 19 18 17 17 17 18 17 18 18 18 18 17 17 15 15 15 15 14
23 23 23 23 23 22 21 20 18 21 23 26 27 27 29 28 28 27 27 26 25 23 19 18 18 17 17 17 17 16 16 16 16 15 15 16 17 16 16 14 13 14 14
21 21 22 22 21 19 18 17 16 15 15 16 20 22 23 24 24 24 23 21 18 18 18 17 17 17 17 16 15 14 14 14 13 12 11 11 13 13 13 12 11 11 12
19 19 18 18 18 18 16 14 14 13 13 14 16 16 17 19 19 19 18 16 15 14 14 14 15 14 14 13 12 11 11 10 9 8 8 8 9 11 10 10 10 9 9
14 15 14 15 16 15 14 12 11 11 12 13 13 14 13 12 11 11 11 12 12 12 11 11 11 11 12 11 11 9 7 7 6 6 5 4 4 7 5 6 6 5 8
11 13 13 14 15 15 14 12 10 10 10 11 11 12 11 11 9 9 8 8 9 10 9 9 8 8 9 8 6 3 2 1 1 1 2 3 -0 2 4 4 4 6 5
13 13 14 16 12 9 13 14 11 10 9 9 7 6 6 6 7 8 7 4 5 8 8 5 5 5 6 5 3 -2 -3 -6 -8 -7 -5 -3 -0 -0 -2 -1 -3 -2 2
11 9 11 11 11 8 5 7 7 7 6 -0 -0 3 3 -2 -3 -0 -2 -5 -2 -1 1 0 -1 1 1 -4 -6 -3 -4 -5 -7 -11 -13 -11 -5 -6 -7 -6 -5 -6 -7
8 6 11 6 4 9 4 -3 -2 4 7 5 2 0 -4 -9 -12 -11 -13 -12 -11 -14 -13 -11 -6 -4 -5 -13 -11 -5 -4 -11 -9 -13 -18 -18 -12 -7 -10 -8 -9 -12 -12
-2 -4 -3 -2 -5 -7 -2 3 -3 -10 -9 -8 -9 -5 2 2 -5 -16 -17 -15 -14 -16 -9 -12 -10 -9 -9 -13 -12 -9 -12 -13 -16 -16 -18 -17 -17 -14 -13 -11 -14 -10 -13
1 -1 -3 -4 -8 -10 -12 -11 -10 -12 -11 -11 -7 -5 -1 1 -2 -12 -12 -13 -13 -11 -9 -8 -9 -9 -9 -10 -10 -10 -13 -13 -17 -17 -23 -16 -18 -18 -18 -17 -13 -14 -10

GFSGL_sfc_dewp_105.txt.gz
Dewpoint
48 56 60 59 59 59 59 58 59 59 59 59 59 58 59 60 60 60 60 59 59 59 59 59 58 58 56 55 55 55 53 52 49 51 53 54 54 54 54 54 54 54 53
46 50 59 59 59 58 58 58 57 57 57 58 57 57 58 58 59 59 59 59 59 58 59 58 58 58 57 56 55 54 53 53 51 50 52 53 54 55 55 55 55 55 56
44 50 58 58 57 57 57 57 57 56 56 55 56 56 56 56 56 56 57 58 59 58 58 58 58 58 57 56 56 55 55 53 52 52 52 53 54 55 54 55 56 51 46
41 42 46 54 58 57 57 57 56 56 55 55 56 56 55 55 55 55 56 57 57 58 59 59 58 58 57 56 55 55 55 54 53 52 52 52 53 54 54 53 53 53 46
38 38 40 46 57 57 57 56 56 56 56 56 56 55 54 51 45 43 48 56 57 57 58 58 58 56 52 54 55 55 55 54 53 52 51 51 52 51 52 52 52 48 43
34 35 37 38 40 43 51 55 52 49 48 48 46 47 45 43 37 38 42 53 56 57 56 57 58 51 49 46 47 47 52 54 53 52 51 50 50 51 50 51 50 46 43
31 33 34 35 35 35 37 39 40 41 40 39 39 39 39 37 37 39 41 46 45 43 47 53 51 46 44 41 37 37 35 36 42 53 52 50 49 48 47 45 46 46 40
27 29 32 33 32 32 32 33 34 35 35 35 35 35 35 35 36 37 37 39 37 37 38 40 45 44 43 41 38 35 33 33 34 36 40 36 35 38 43 43 41 32 32
26 26 28 31 31 31 31 31 31 32 32 32 33 33 33 33 35 35 36 35 34 34 34 36 37 38 37 40 37 33 32 32 34 35 34 34 35 36 37 38 34 35 30
25 26 27 28 29 30 30 30 31 31 30 30 30 31 32 32 34 34 34 33 32 32 33 32 34 34 35 35 34 33 31 30 31 31 30 29 29 31 32 33 35 33 30
24 25 26 27 28 28 29 30 30 30 30 30 29 30 30 31 32 33 33 31 31 31 31 31 32 33 34 34 33 32 30 31 30 29 28 27 26 25 26 28 29 31 27
22 22 23 25 26 27 27 27 28 28 28 29 28 28 29 30 31 31 31 30 30 28 28 29 30 31 31 31 30 31 30 29 28 27 26 26 24 23 24 25 25 25 25
22 21 22 23 25 26 26 26 26 27 27 27 28 27 28 29 30 30 29 28 28 26 27 27 27 28 28 27 27 27 27 26 25 23 22 23 25 26 26 25 24 19 18
23 22 21 21 22 24 25 25 25 26 26 26 26 26 27 28 28 28 28 27 27 26 25 25 25 25 23 24 24 24 24 24 23 22 22 23 24 23 22 23 20 18 16
23 24 23 22 21 21 22 24 25 26 28 26 26 26 25 25 27 29 27 25 24 24 23 22 21 20 20 20 20 21 21 21 21 22 21 20 19 18 17 18 17 16 16
22 22 22 22 21 21 20 20 24 25 27 28 28 27 27 28 29 28 27 26 26 24 20 18 17 17 17 17 17 17 17 17 17 18 18 18 17 16 16 16 17 16 14
20 21 21 19 18 17 17 16 15 18 19 22 24 26 26 26 26 26 25 24 24 21 17 17 16 16 16 16 16 15 14 15 16 15 15 17 17 17 16 15 16 17 15
17 16 18 18 16 14 12 13 13 13 13 14 17 19 21 21 21 22 21 19 16 16 16 15 15 15 15 14 14 13 12 12 12 12 12 12 14 14 14 13 13 13 12
16 15 13 12 13 11 10 10 11 11 11 12 12 13 14 16 17 17 16 13 12 12 12 12 13 13 12 11 10 9 9 8 8 8 8 9 9 11 10 10 11 10 10
10 13 11 10 9 8 7 8 9 9 9 9 9 9 10 9 7 8 8 9 9 9 10 9 10 10 10 9 8 7 6 5 6 6 4 4 6 7 7 7 8 8 7
7 10 9 10 9 9 8 8 8 6 6 7 6 3 6 7 5 4 6 6 6 7 6 7 6 7 7 5 4 0 -2 -2 -0 1 2 1 -2 2 4 5 5 6 6
10 11 12 11 9 6 9 10 5 4 5 3 0 1 1 1 3 4 2 -2 -1 3 3 3 4 4 3 2 -0 -5 -7 -10 -8 -7 -4 -4 -2 -4 -2 -1 -3 -4 1
8 7 9 10 10 6 3 7 1 -3 -4 -7 -4 -1 -2 -10 -10 -5 -6 -13 -5 -7 -6 -4 -2 -1 -4 -7 -6 -6 -7 -9 -11 -15 -15 -11 -7 -8 -10 -10 -9 -10 -10
5 2 7 4 5 4 -6 -8 1 4 4 -2 -10 -10 -11 -14 -18 -16 -18 -19 -16 -17 -18 -15 -7 -6 -8 -15 -15 -9 -7 -16 -15 -17 -21 -18 -12 -9 -13 -10 -10 -14 -14
-5 -7 -8 -8 -11 -12 -9 0 -5 -7 -4 -5 -5 -4 -0 -4 -8 -17 -20 -19 -16 -18 -12 -14 -13 -11 -14 -15 -13 -10 -11 -14 -19 -18 -20 -19 -17 -18 -15 -13 -16 -12 -15
-2 -3 -4 -7 -10 -13 -14 -16 -16 -18 -15 -12 -11 -10 -5 -4 -6 -16 -16 -16 -14 -13 -13 -14 -13 -11 -13 -13 -12 -11 -15 -14 -20 -20 -24 -18 -19 -19 -19 -18 -15 -15 -11

GFSGL_sfc_dewp_108.txt.gz
Dewpoint
45 49 58 61 60 60 60 60 60 59 59 60 60 60 59 60 60 60 60 60 59 59 59 59 58 59 58 57 56 55 55 53 50 52 53 54 55 55 55 55 55 55 54
44 49 58 59 60 59 59 59 58 58 58 58 58 58 58 58 59 59 59 59 59 59 58 58 58 59 58 57 56 55 55 54 52 50 52 53 53 55 55 54 55 55 53
42 44 48 52 58 58 58 58 58 58 58 57 57 57 57 57 57 56 56 57 58 58 58 58 58 58 58 57 55 55 54 54 54 52 52 53 54 55 54 55 55 48 45
37 40 41 43 51 57 57 57 57 57 56 56 56 55 55 55 55 53 52 53 55 57 57 58 58 58 58 57 56 55 54 54 53 52 52 52 53 54 55 54 52 49 44
35 35 37 39 41 45 52 56 56 55 56 56 56 55 53 49 42 43 47 49 52 54 56 57 57 57 53 55 57 56 55 54 53 53 52 52 52 53 53 54 52 48 44
32 34 35 36 35 37 38 39 41 41 42 44 45 45 42 41 37 38 40 51 50 48 51 56 58 52 50 47 47 49 53 54 53 53 52 52 52 53 52 53 49 46 44
29 31 33 34 33 33 33 33 34 34 35 35 37 38 37 36 36 38 38 44 43 42 42 44 50 50 50 48 39 39 38 39 47 53 53 52 51 51 51 50 49 47 44
26 28 30 32 32 32 31 31 31 32 32 32 33 34 34 34 35 36 36 38 37 36 36 39 42 40 39 43 40 35 34 34 35 38 45 38 37 44 50 49 47 34 33
24 26 28 28 29 30 30 30 31 30 30 30 31 31 32 32 35 35 35 35 34 33 34 35 36 36 37 39 36 33 32 32 34 34 34 34 34 35 38 41 37 38 32
24 25 27 28 28 27 28 30 31 31 30 29 29 30 30 30 33 34 33 33 32 32 32 32 34 34 35 36 35 34 33 32 32 31 31 30 31 31 32 33 36 39 31
23 24 25 26 28 29 28 29 29 30 30 30 29 29 29 30 30 31 31 30 30 29 29 30 31 32 33 33 33 33 32 32 30 29 27 27 26 27 27 28 29 32 29
22 22 23 25 25 26 27 28 28 29 28 28 28 28 29 29 30 30 29 29 28 27 27 28 29 30 30 30 29 30 30 30 28 26 25 24 23 24 25 25 25 25 26
22 21 21 21 22 24 24 25 25 26 26 26 26 26 26 28 28 28 28 28 26 25 26 26 26 26 26 26 26 26 26 26 25 23 23 23 24 25 24 22 20 18 18
22 22 21 20 20 22 23 24 24 24 23 23 24 24 25 25 26 27 26 25 25 24 24 23 23 23 22 22 22 23 24 24 23 22 22 23 24 24 23 23 20 16 14
21 19 18 18 17 18 21 23 22 25 25 23 23 23 23 23 26 27 26 25 23 23 22 21 20 20 19 19 19 19 20 21 21 22 21 21 21 21 21 21 20 19 16
18 18 16 15 16 16 15 15 20 22 22 23 24 23 24 26 26 26 26 25 24 23 19 17 17 17 17 17 16 16 17 17 19 20 20 19 18 18 18 19 18 17 15
17 17 14 13 13 13 13 12 10 13 16 19 20 21 22 22 23 24 23 22 22 19 16 15 15 14 14 15 14 14 13 15 16 16 17 17 18 17 17 17 17 16 15
15 12 12 11 10 9 8 9 10 9 8 8 13 16 18 19 19 19 17 16 14 14 14 13 13 13 12 12 11 11 11 12 12 13 13 14 15 14 14 13 14 14 12
14 12 9 7 6 5 6 7 7 7 7 7 7 8 9 14 15 15 14 10 10 10 11 10 11 11 10 8 9 9 8 8 8 8 9 10 11 11 11 11 11 10 10
8 10 7 6 6 5 5 5 5 5 5 4 4 4 7 5 3 4 5 5 6 7 8 7 7 6 7 6 5 6 6 6 6 5 5 5 7 8 8 8 9 8 6
6 8 7 9 8 8 6 5 5 3 2 3 -0 -4 0 3 1 1 3 2 3 3 2 5 4 3 4 2 1 -1 -2 -1 1 1 2 2 0 3 4 5 6 6 4
9 10 11 9 9 5 7 7 2 1 2 1 -2 -1 -3 -4 -1 -1 -4 -9 -8 -1 1 0 0 -0 -1 -1 -2 -6 -7 -8 -6 -4 -2 -1 1 1 1 0 0 1 3
7 4 7 8 8 4 1 3 0 -5 -6 -9 -7 -3 -4 -12 -13 -6 -9 -18 -9 -10 -8 -6 -6 -5 -7 -8 -6 -5 -6 -8 -8 -10 -8 -5 -2 -3 -3 -3 -2 -2 -2
4 -1 4 1 -3 -1 -9 -10 -7 1 0 -6 -14 -9 -11 -14 -19 -17 -18 -19 -15 -17 -19 -16 -9 -7 -8 -13 -11 -6 -7 -11 -10 -11 -13 -8 -5 -4 -4 -4 -4 -7 -6
-6 -9 -8 -9 -13 -15 -16 -11 -10 -13 -11 -10 -9 -8 -4 -9 -8 -16 -20 -17 -15 -18 -12 -14 -12 -10 -13 -14 -11 -8 -11 -15 -16 -16 -12 -11 -10 -10 -8 -7 -8 -6 -7
-3 -4 -5 -9 -11 -15 -17 -14 -9 -15 -16 -15 -16 -18 -17 -8 -1 -15 -16 -16 -14 -13 -10 -13 -11 -11 -13 -11 -10 -11 -15 -15 -16 -20 -15 -10 -10 -10 -9 -9 -9 -7 -6

GFSGL_sfc_dewp_111.txt.gz
Dewpoint
43 46 52 61 62 63 62 64 63 63 62 62 62 63 62 62 62 62 62 61 61 61 61 61 61 61 60 60 60 59 57 56 54 55 55 56 56 56 56 57 57 57 55
42 45 47 51 61 61 61 61 61 60 62 62 62 61 60 61 61 61 60 60 60 60 60 60 59 59 59 59 58 57 57 56 56 54 54 55 55 57 57 57 57 56 56
39 42 43 45 50 59 59 59 59 59 59 59 60 60 59 59 59 59 59 58 59 59 59 59 59 59 58 58 58 57 56 55 55 54 52 54 55 55 55 56 57 56 52
36 37 40 40 43 47 55 57 57 58 57 57 58 57 57 55 52 52 53 54 55 55 57 57 57 57 58 58 58 58 57 55 55 54 53 53 54 55 55 54 51 51 48
32 34 36 38 38 40 41 43 45 44 44 45 49 47 46 41 38 41 46 50 52 53 54 55 56 56 51 54 57 57 56 55 55 54 53 53 53 53 53 54 52 48 46
30 32 33 35 35 35 36 37 38 38 37 37 37 37 37 36 36 37 39 47 51 50 49 49 51 50 50 46 46 48 54 55 54 53 53 52 52 53 54 54 49 46 44
28 29 31 32 34 33 33 33 33 33 34 33 34 34 33 33 35 36 37 43 42 41 41 42 44 45 42 46 41 40 41 43 49 54 53 53 53 53 54 53 50 49 48
25 27 29 30 30 32 32 31 32 32 31 30 31 31 30 31 34 35 36 37 36 35 35 37 39 39 40 41 38 35 34 34 35 39 50 43 42 53 54 53 51 39 35
24 26 27 29 29 30 30 31 31 31 30 30 30 29 29 29 32 33 34 34 33 32 32 33 34 36 36 38 36 33 33 32 34 35 35 34 34 35 40 46 42 42 33
24 25 26 27 28 29 30 30 31 31 30 30 29 29 29 28 30 30 30 30 29 30 30 31 32 33 34 34 37 35 33 32 33 33 32 32 32 32 33 33 41 45 33
24 25 25 26 27 28 29 30 32 31 30 30 29 29 29 29 29 29 29 27 27 26 26 27 29 30 31 32 31 32 31 32 32 32 31 30 28 27 27 28 30 34 32
24 23 24 25 26 27 27 28 28 29 29 29 29 29 30 30 29 30 29 27 26 24 24 25 26 27 28 28 28 29 29 29 29 27 25 24 23 23 24 25 26 26 27
21 21 22 23 24 25 25 26 26 27 26 26 26 26 27 29 30 28 28 27 26 25 26 26 25 25 24 24 25 25 26 26 25 23 23 23 24 25 25 24 25 25 25
19 19 21 21 22 23 25 25 25 24 25 24 24 24 25 26 28 28 28 27 25 25 24 25 25 24 23 22 22 23 23 24 23 22 22 23 24 24 23 24 22 23 21
19 18 19 19 20 19 21 22 23 24 24 23 24 24 25 24 26 25 25 26 26 24 24 23 22 22 21 21 20 20 21 22 21 22 22 22 22 21 21 22 22 21 19
17 15 15 16 16 16 16 16 17 18 19 20 21 22 23 22 23 23 23 23 22 20 21 20 20 19 18 18 17 18 19 19 21 22 21 21 21 21 20 20 20 19 17
15 14 12 13 13 13 14 13 12 15 14 15 17 18 19 19 20 20 20 19 19 19 19 18 18 17 16 15 15 15 15 17 19 19 19 20 20 20 20 19 18 17 15
18 14 14 14 14 14 14 14 13 12 12 12 12 14 16 17 17 17 16 15 15 15 15 15 15 15 14 13 13 13 13 14 15 16 17 18 19 19 18 18 17 16 13
15 16 17 16 16 14 15 14 12 12 11 10 10 10 10 12 13 14 14 14 13 12 11 11 12 12 11 10 12 13 13 12 13 14 13 14 16 14 14 14 13 12 11
16 14 14 16 16 15 14 13 11 11 10 9 8 8 8 8 10 10 11 11 11 10 10 9 8 8 9 9 11 12 12 11 11 11 12 13 14 14 12 12 12 10 7
15 15 13 14 14 14 13 12 11 10 9 9 9 8 5 6 7 7 7 8 9 8 9 9 9 9 9 7 6 8 8 9 8 9 9 10 12 11 10 10 10 8 5
11 11 11 11 11 12 11 11 11 10 9 8 9 8 4 8 6 6 5 6 7 6 6 7 6 5 5 5 5 6 5 6 7 7 7 7 8 9 8 8 8 8 6
10 10 8 7 8 8 10 9 10 10 10 10 9 9 8 8 7 6 6 6 5 5 5 5 5 3 3 3 3 3 2 1 2 4 6 7 6 7 7 7 5 5 5
10 10 8 8 9 8 8 9 9 7 8 9 10 9 9 9 8 7 6 7 7 6 5 4 3 1 1 2 3 1 -1 -0 1 2 3 5 5 4 5 3 3 3 3
12 11 11 10 10 9 8 8 8 9 9 9 9 9 8 8 7 8 7 6 4 6 3 3 4 -2 -1 -2 -2 -3 -5 -5 -4 -4 3 2 1 1 1 2 2 2 1
11 10 10 10 10 10 9 9 9 9 8 9 9 9 8 8 8 9 8 5 5 5 3 5 3 -4 -7 -4 -4 -5 -6 -6 -5 -8 0 2 2 2 3 0 -3 2 -0

GFSGL_sfc_dewp_114.txt.gz
Dewpoint
40 44 47 52 61 62 63 63 64 64 64 64 64 64 63 63 63 63 63 62 62 62 62 62 62 62 61 61 61 61 60 59 56 56 56 58 58 58 58 58 58 59 56
38 42 44 46 51 62 62 63 64 63 64 63 63 62 62 62 62 62 61 61 61 61 61 61 61 61 61 61 61 60 60 59 58 55 57 57 57 58 58 57 57 57 57
36 40 42 42 44 48 57 60 61 61 61 61 61 61 62 61 61 61 61 61 61 61 60 60 60 59 60 60 60 59 59 58 58 56 55 57 57 58 57 57 57 57 56
34 35 38 39 41 43 45 47 48 52 56 53 51 46 44 43 44 48 54 56 57 57 58 59 58 57 57 58 58 58 57 57 57 56 56 55 55 56 56 55 55 56 51
31 32 35 37 36 38 39 40 42 42 43 43 40 39 39 37 37 41 47 52 53 54 55 55 55 52 46 46 52 57 58 57 57 55 55 54 53 53 53 55 54 50 47
30 31 31 34 34 34 34 36 35 37 36 36 35 35 36 36 37 37 42 49 48 46 45 45 47 48 47 42 42 41 45 55 56 55 54 54 53 53 54 54 53 46 44
28 29 30 31 32 33 33 32 32 32 33 33 33 33 33 34 35 37 38 40 38 37 37 37 39 41 42 43 43 40 38 36 37 46 55 54 53 53 54 53 52 49 49
27 29 30 30 30 31 31 31 31 31 31 31 31 31 31 32 33 35 35 35 34 33 33 32 35 36 37 38 42 39 36 35 34 37 37 40 45 54 54 54 52 45 39
26 27 29 30 30 30 30 31 31 30 30 30 29 29 29 30 32 32 32 32 31 30 30 30 31 33 33 36 38 37 35 34 35 35 34 34 34 35 44 54 42 41 34
27 27 28 29 30 30 31 32 32 32 31 30 29 29 29 28 30 31 30 29 27 27 27 28 29 30 31 32 34 35 33 32 32 33 33 33 32 32 33 35 46 45 34
27 28 28 29 29 30 31 31 31 31 31 31 31 31 30 30 30 30 29 27 27 26 26 25 27 28 29 29 29 30 30 31 29 29 29 29 28 27 28 30 32 33 35
25 26 26 27 28 29 29 30 29 30 30 32 32 31 31 31 29 29 28 27 28 26 25 26 27 27 27 27 27 27 27 27 27 25 24 24 24 24 25 26 27 28 29
23 24 25 26 26 28 27 27 27 28 27 27 28 29 29 30 30 28 28 27 27 29 27 28 27 27 25 25 26 25 25 25 24 22 22 23 25 26 26 26 27 27 26
21 22 23 23 25 25 25 25 23 23 24 23 24 24 26 27 27 28 29 30 27 28 28 29 28 28 28 27 25 26 26 26 24 23 22 24 24 23 23 24 23 24 22
20 21 22 20 21 21 21 19 19 21 21 21 22 23 23 23 25 24 25 25 26 26 29 29 28 27 26 26 26 26 27 26 25 25 25 24 23 22 22 23 23 23 21
18 17 17 18 18 18 18 19 17 16 16 17 18 20 21 20 20 21 20 21 22 23 25 24 24 24 23 23 23 24 24 24 25 25 25 25 24 23 23 23 22 21 20
15 15 15 15 16 16 17 16 16 18 15 14 14 15 17 17 17 18 18 18 17 21 22 22 21 21 21 20 21 21 21 22 23 23 23 23 24 23 23 21 21 20 18
18 16 18 18 18 19 18 18 17 17 17 17 14 13 13 14 15 16 16 16 17 16 17 17 18 18 16 16 17 17 18 20 20 20 22 22 23 22 22 20 20 19 17
16 17 19 20 19 18 19 18 17 16 16 15 14 12 12 12 13 13 14 16 15 14 13 12 14 14 13 13 17 17 18 18 18 19 19 19 20 18 17 17 16 14 11
18 14 16 18 18 17 17 16 15 15 14 14 13 11 10 12 14 14 15 15 14 12 13 11 11 12 13 13 16 16 16 16 16 16 17 19 19 16 15 14 14 12 8
17 16 13 16 14 14 14 14 13 13 12 12 13 13 8 11 11 11 10 12 11 10 11 11 12 12 12 12 11 13 12 14 13 13 14 14 16 15 14 14 13 10 7
13 12 11 11 11 13 11 11 12 11 10 10 11 11 8 12 10 10 9 11 11 9 9 10 10 8 8 8 8 11 9 10 11 12 12 11 12 13 12 12 12 11 8
12 12 10 9 10 9 12 10 12 12 11 12 11 10 10 11 11 9 10 10 9 9 9 8 9 7 7 8 8 7 6 6 7 8 10 11 10 12 12 11 9 10 9
12 13 10 11 13 11 13 13 12 8 9 11 12 12 11 10 11 10 10 10 8 9 9 8 6 4 4 6 8 6 3 4 6 7 7 9 9 8 9 7 7 6 7
15 15 14 13 14 13 13 12 12 12 11 11 11 11 9 10 9 12 10 9 7 8 6 6 6 3 0 1 1 1 -1 -2 -1 1 7 5 4 3 5 6 6 6 4
14 13 14 14 14 14 13 13 12 12 11 11 11 11 11 10 10 11 10 8 7 6 6 6 5 1 2 -1 -3 -1 -2 -2 -1 -2 5 5 5 6 7 3 -7 7 2

GFSGL_sfc_dewp_117.txt.gz
Dewpoint
34 37 39 44 46 50 57 61 62 62 62 62 64 64 63 63 63 63 63 62 62 63 63 63 63 64 63 62 62 62 61 61 58 58 58 58 60 61 60 60 60 59 57
34 36 41 42 45 47 55 60 62 61 62 62 63 63 63 63 63 62 62 62 62 61 62 62 61 62 62 62 62 61 61 61 59 57 58 59 59 60 61 59 59 59 59
33 35 38 39 41 41 44 47 50 58 59 57 59 56 58 60 61 62 62 61 62 62 62 61 61 62 61 60 61 60 61 59 60 59 57 58 58 59 59 59 59 58 59
33 33 35 36 37 38 39 40 43 44 43 44 42 42 41 41 44 50 59 60 59 59 60 60 60 59 57 55 57 58 58 59 58 58 57 56 57 57 58 56 56 57 57
31 31 33 34 35 35 36 36 37 38 38 40 42 41 40 39 40 42 52 54 55 55 51 50 49 46 43 43 47 50 50 53 55 57 56 56 56 55 55 56 55 56 51
30 31 31 32 32 32 32 33 34 34 33 34 35 36 38 38 39 40 45 46 44 43 42 42 44 44 42 41 40 40 40 45 48 52 54 54 54 55 55 55 55 48 45
30 31 31 31 31 31 31 31 30 31 32 32 32 32 32 33 36 36 36 37 36 34 34 36 37 37 38 39 41 40 38 35 35 39 43 48 50 54 55 54 54 51 51
28 29 31 31 30 31 31 31 30 30 30 30 30 30 30 31 32 33 34 33 32 31 31 31 33 33 33 36 40 40 37 37 36 36 35 34 34 35 38 52 54 52 40
26 28 29 30 30 30 31 31 31 32 30 30 30 29 29 30 31 31 31 31 30 29 30 30 30 30 32 34 37 37 34 33 34 33 32 32 32 33 34 42 50 43 34
27 27 28 29 29 30 30 31 31 32 32 31 30 31 30 29 32 31 29 28 27 27 28 28 30 30 30 30 31 32 32 31 31 31 30 30 30 29 30 32 35 45 35
27 28 27 28 28 28 29 30 31 31 30 31 30 29 30 30 31 32 31 29 28 26 26 26 27 29 29 29 29 28 28 30 28 28 27 28 28 28 28 28 30 32 35
26 26 27 26 28 27 26 27 28 27 28 28 28 28 28 28 27 28 29 29 29 28 28 29 29 29 28 28 27 28 26 26 27 25 24 23 24 24 26 28 28 28 30
25 25 26 27 25 26 25 23 23 25 24 25 25 26 27 27 27 25 26 27 28 30 30 29 28 28 28 28 28 27 28 27 25 23 23 23 24 25 26 26 27 28 27
24 25 26 25 27 25 23 23 20 20 21 21 23 21 23 24 25 26 26 28 28 29 31 31 30 29 28 29 29 29 31 30 28 26 25 26 26 25 24 25 25 25 23
25 25 26 24 26 25 22 20 19 20 18 19 20 22 19 19 21 22 23 24 27 28 29 29 27 27 26 26 27 26 27 27 27 28 27 26 26 25 25 25 24 24 22
19 19 21 21 21 21 20 21 19 18 17 16 16 17 20 17 18 19 19 19 20 22 24 24 24 25 24 23 24 24 24 23 25 26 25 25 25 25 24 25 24 23 22
16 16 17 17 18 19 19 18 18 21 18 17 15 15 15 16 16 17 19 18 17 19 21 21 22 22 20 19 20 21 21 23 24 23 23 23 25 23 24 23 23 21 20
18 19 20 20 20 20 20 20 19 19 19 19 17 15 15 15 15 15 17 16 16 16 15 15 16 16 15 14 16 16 17 19 21 22 22 24 24 23 22 22 21 21 19
17 17 21 21 21 20 20 19 19 18 18 17 17 14 14 15 14 14 14 15 14 13 12 12 14 14 13 12 17 17 19 18 18 19 20 21 22 21 20 20 19 17 17
20 16 17 19 19 18 18 17 16 16 16 15 15 15 11 13 16 16 16 15 13 11 12 10 11 12 13 13 15 16 16 16 16 16 18 19 20 18 17 16 15 14 9
18 17 14 16 15 15 14 14 14 14 13 12 14 15 11 12 12 12 12 12 12 10 11 10 12 12 11 12 10 13 12 13 14 14 13 15 17 16 15 15 14 11 9
15 14 13 13 13 14 13 12 13 12 11 11 12 13 11 14 12 11 10 12 13 11 10 9 11 9 9 9 9 10 10 10 10 10 14 12 13 13 13 13 14 13 9
15 15 14 11 13 12 15 12 14 14 12 12 12 12 12 15 13 12 12 13 11 11 11 9 9 7 8 10 11 8 6 6 8 8 10 14 10 13 13 12 10 11 10
15 16 14 14 16 14 16 15 15 12 13 14 15 15 14 13 13 13 15 14 11 11 13 9 9 8 4 5 7 5 2 3 5 8 8 9 11 10 11 8 8 8 8
17 17 16 15 16 17 18 16 15 16 15 15 15 14 12 12 11 13 14 13 11 9 10 8 10 5 7 3 3 1 1 -0 1 0 8 8 5 6 5 6 7 6 6
16 14 14 15 15 15 15 15 14 14 14 14 15 16 14 12 12 13 13 12 11 9 7 10 8 7 5 3 7 2 0 0 1 1 6 8 6 7 8 5 3 6 4

GFSGL_sfc_dewp_120.txt.gz
Dewpoint
32 34 36 39 41 43 45 48 48 50 53 57 57 59 56 62 62 63 63 63 62 62 62 62 62 62 63 62 62 61 60 59 57 57 59 59 58 59 59 59 59 59 58
33 34 36 38 39 40 42 45 50 52 55 59 59 59 58 61 62 62 62 62 62 61 62 62 61 62 62 62 61 60 59 59 58 57 58 58 58 58 59 58 59 59 59
33 33 34 35 36 37 37 40 41 42 45 45 46 48 49 52 61 63 62 62 62 61 62 61 61 62 62 61 61 60 59 60 60 58 57 58 58 58 58 59 59 58 59
32 32 32 33 34 35 36 35 36 38 37 40 43 42 44 44 45 49 61 61 61 61 61 58 55 55 55 55 55 55 55 55 56 57 56 55 57 58 58 56 57 58 57
31 31 32 33 32 32 33 34 33 34 34 35 35 38 39 40 43 46 47 46 48 48 48 47 43 44 42 43 49 48 48 50 50 52 52 53 55 55 55 56 56 56 56
30 30 32 32 32 31 31 31 32 32 32 33 33 33 33 36 38 40 38 37 37 37 37 40 41 38 40 40 41 37 39 43 44 47 48 50 51 54 55 55 55 54 48
29 30 30 31 31 31 32 30 30 30 31 31 31 32 32 33 34 35 36 36 35 34 33 33 34 34 35 38 40 37 36 35 35 37 39 39 37 37 36 40 48 54 52
26 27 28 30 29 31 31 31 31 31 29 29 29 30 29 30 32 32 32 31 30 30 31 32 32 31 32 35 40 37 34 34 34 34 34 32 32 33 33 35 37 41 42
24 25 26 26 27 27 28 30 31 31 29 28 29 28 28 30 32 32 30 29 28 27 28 30 30 30 32 33 33 34 32 30 34 32 31 30 30 30 31 33 35 37 36
25 23 24 25 23 25 26 27 29 29 30 29 28 28 28 28 32 32 31 29 28 28 28 28 30 30 30 30 28 28 28 28 28 28 28 28 29 29 29 28 28 30 34
24 26 23 23 24 22 23 25 25 26 25 26 26 26 25 26 27 29 30 29 28 28 28 28 30 31 31 30 30 27 27 28 27 27 26 26 26 27 27 28 28 27 27
25 23 25 23 23 22 19 21 22 22 23 21 21 22 23 24 25 25 27 28 30 28 28 29 30 30 29 29 30 30 30 28 27 26 24 24 24 25 26 27 27 27 27
23 23 23 25 23 22 19 18 17 19 18 20 19 18 19 20 22 23 23 26 28 29 29 28 29 28 29 28 28 28 28 28 28 26 25 24 25 26 26 26 27 27 26
22 23 24 23 23 22 21 19 17 16 16 16 17 16 17 17 19 22 23 23 25 26 27 26 26 26 25 25 26 25 25 26 27 27 27 27 25 25 25 25 24 25 23
23 22 23 23 23 23 21 20 19 18 17 15 16 16 16 16 17 20 21 21 22 24 24 23 22 22 21 21 22 23 23 23 24 25 26 25 25 24 24 24 24 22 22
20 20 20 21 21 21 21 22 22 21 19 17 17 17 18 17 17 18 19 19 19 19 19 19 18 18 18 19 19 19 20 21 22 23 23 23 25 23 23 23 22 21 20
17 19 20 19 19 20 20 19 18 21 20 19 17 15 17 17 17 17 18 18 17 17 16 16 16 16 16 16 16 18 17 19 20 23 22 22 23 22 23 22 21 20 19
18 19 21 21 20 20 20 19 19 18 17 17 19 16 14 17 16 16 15 15 13 13 13 13 13 13 14 14 15 15 18 17 17 18 18 21 21 21 20 19 19 18 18
18 17 20 21 20 18 19 19 18 17 17 16 16 14 12 15 15 15 14 12 11 10 11 11 13 12 12 12 14 14 15 15 14 16 17 16 18 21 19 19 19 16 18
20 15 16 19 18 17 17 16 16 15 15 14 14 14 12 12 12 12 13 11 10 10 10 10 11 11 10 10 10 12 12 12 12 13 14 14 15 16 16 14 15 15 13
19 19 14 17 16 15 16 15 14 14 14 13 13 14 10 13 12 11 11 11 10 10 9 8 10 10 9 8 9 8 9 8 8 7 10 13 15 10 13 15 13 12 11
17 17 16 16 16 16 15 14 14 15 13 13 13 13 9 14 12 12 12 9 9 10 12 8 9 7 7 6 9 7 4 4 5 6 5 9 12 12 15 10 11 13 10
17 17 16 14 16 14 16 16 15 16 14 14 14 14 13 13 12 12 13 14 10 7 9 9 4 8 3 2 6 5 0 -1 0 3 3 6 11 8 12 9 8 6 3
18 18 16 16 16 16 16 16 16 14 15 15 15 14 13 11 10 9 11 12 9 6 5 7 8 7 5 -1 -1 0 -0 -4 -1 -1 -1 5 3 5 4 8 9 1 3
18 17 16 16 16 15 15 14 14 14 13 13 14 14 15 14 12 10 10 11 8 9 8 5 8 5 1 -3 4 -2 -6 -4 -7 -5 0 4 3 8 5 1 -1 5 -2
17 16 15 15 14 15 13 11 12 12 12 12 12 12 12 11 12 15 10 7 7 7 4 7 9 3 0 5 3 -2 -6 -6 -7 -5 -1 2 1 -1 -1 3 -1 7 1

GFSGL_sfc_dewp_123.txt.gz
Dewpoint
33 34 35 36 37 37 39 41 42 45 45 47 47 49 52 57 59 58 60 60 61 62 62 62 61 61 61 62 62 61 59 58 56 57 58 59 59 60 59 59 59 59 59
33 34 34 34 35 36 36 38 40 42 46 49 50 51 54 53 54 54 55 55 52 61 61 62 61 61 61 62 61 60 60 59 57 56 57 57 57 58 59 58 59 60 59
32 33 33 33 33 34 35 35 36 37 38 40 41 41 42 43 45 49 52 54 60 61 61 61 61 61 61 61 59 59 58 58 57 57 57 58 58 57 57 57 58 58 59
31 32 32 32 33 33 33 33 34 34 34 34 35 36 36 37 39 44 52 59 59 59 56 55 52 53 57 59 60 59 57 57 56 57 56 56 56 57 57 57 57 59 58
29 29 30 32 33 33 32 31 31 32 32 32 32 32 34 34 35 37 41 42 43 44 43 40 40 41 41 43 50 50 52 51 51 52 52 53 54 54 53 55 55 54 57
28 27 29 30 31 32 32 31 30 30 30 31 31 31 31 32 34 34 34 34 36 36 37 36 36 38 41 39 37 37 37 45 46 47 48 49 50 46 42 43 47 52 52
24 25 25 27 28 29 31 31 29 28 29 28 30 30 30 31 33 33 32 31 32 32 32 33 34 35 38 41 37 36 35 35 34 39 41 37 37 35 35 37 41 42 45
20 23 23 23 24 26 27 28 30 28 27 27 27 28 29 31 33 32 32 31 29 29 30 30 30 31 34 37 35 33 31 32 32 32 32 31 31 32 32 33 34 35 37
21 20 21 20 21 22 23 25 25 26 25 24 24 25 25 28 32 32 30 30 29 29 30 31 30 30 31 32 31 30 29 28 31 32 31 31 30 30 30 31 31 31 34
24 21 21 19 18 19 21 22 24 22 22 22 21 22 25 24 29 31 30 29 28 28 30 30 32 31 32 30 28 27 25 26 27 27 27 27 28 28 29 28 28 28 30
22 24 22 21 19 19 18 19 20 21 20 19 19 20 21 24 24 28 29 29 28 27 28 28 30 30 29 29 30 29 27 27 27 26 26 26 26 26 27 28 28 26 26
19 19 21 21 21 19 18 17 17 17 17 17 17 17 19 21 24 23 26 27 28 26 26 27 27 27 27 26 26 27 27 28 28 27 26 25 25 25 26 27 28 28 28
19 18 17 19 19 19 17 17 16 16 15 15 16 16 17 19 21 23 22 24 26 25 24 24 24 23 23 24 23 24 24 25 25 25 25 25 26 26 26 26 27 28 27
18 18 19 15 17 16 18 17 17 16 15 16 15 15 16 17 19 22 21 22 22 23 22 21 21 22 21 20 21 21 22 23 23 23 23 25 25 25 23 23 21 22 22
20 19 20 21 18 16 19 18 18 19 17 15 16 17 17 16 17 20 20 19 19 19 18 18 17 17 16 17 18 19 19 20 21 22 22 23 23 23 22 22 21 19 18
20 19 18 19 19 19 18 18 23 22 21 18 16 17 18 18 17 17 18 17 17 18 15 13 13 14 14 15 15 16 17 17 19 19 21 21 21 20 20 20 20 18 17
16 19 18 17 17 18 17 16 14 15 19 19 16 14 17 17 18 15 14 15 15 14 12 12 10 11 12 12 14 13 15 15 16 17 17 18 19 21 19 18 18 18 17
16 15 17 17 15 14 14 14 14 13 11 10 15 14 15 15 15 15 12 11 9 9 10 11 10 9 9 9 10 11 12 12 11 13 14 14 16 19 17 18 17 16 17
16 14 13 12 11 11 11 11 11 10 9 8 7 11 10 14 14 14 12 8 7 7 7 7 10 9 8 8 8 7 9 8 6 6 8 10 13 15 15 14 13 13 15
11 12 10 10 10 10 11 11 11 10 8 7 8 6 11 11 8 4 -2 -6 -1 6 4 6 8 7 5 6 7 4 5 4 5 4 4 6 9 13 12 13 10 7 12
10 13 11 13 11 10 10 9 11 9 8 8 5 1 5 7 2 1 5 -1 -1 2 -2 1 -1 -3 -3 -1 5 1 -1 -3 -2 -0 2 5 7 10 13 11 13 10 9
14 15 16 14 15 10 11 14 10 10 10 8 5 7 6 1 3 3 2 0 -2 -0 2 0 -0 1 -1 -2 0 -10 -11 -14 -8 -4 -2 0 2 7 9 9 6 5 7
15 11 13 14 13 10 9 11 8 8 9 5 5 10 10 4 1 2 1 -1 1 -2 -3 0 -7 -1 -4 -8 -8 -7 -9 -10 -7 -11 -7 -2 1 5 5 5 2 -2 -1
12 8 12 9 5 7 4 3 3 6 7 6 3 2 0 4 4 5 5 -3 -2 -6 -7 -5 -4 3 -2 -9 -12 -8 -5 -11 -11 -10 -6 -2 1 5 2 3 5 -3 -6
6 4 3 4 2 2 -2 0 1 -0 -1 -0 8 8 9 7 6 4 8 10 9 -5 -1 -6 -4 1 -1 -8 -7 -6 -9 -8 -13 -12 -7 -2 -3 -4 -2 -2 0 3 -8
7 7 5 5 3 0 0 3 1 -4 -3 4 6 4 4 6 7 3 1 4 6 8 5 -3 -1 1 -3 -2 -4 -4 -8 -8 -11 -11 -13 -7 -11 -9 -5 -4 -2 3 -2

GFSGL_sfc_dewp_126.txt.gz
Dewpoint
31 33 34 34 35 35 35 36 37 39 40 44 46 46 46 47 48 51 54 58 58 59 58 57 57 58 58 58 58 61 60 58 55 54 56 57 60 60 60 60 60 60 59
30 31 33 35 34 34 34 35 36 36 37 37 39 40 42 44 47 50 52 57 58 57 57 59 59 60 60 59 57 59 60 59 57 55 55 56 57 60 60 59 59 60 60
29 29 31 33 33 33 32 33 34 34 34 34 35 36 36 38 42 45 48 53 53 53 52 54 55 53 58 60 61 60 60 60 58 55 55 56 56 57 58 58 58 59 59
28 27 28 29 32 32 32 31 31 32 32 33 33 34 34 35 36 37 39 42 41 41 41 41 42 45 51 59 60 60 60 59 58 57 54 54 55 55 56 55 56 58 58
26 25 25 27 30 32 30 29 30 30 31 31 31 32 33 33 33 34 34 34 35 36 36 37 38 39 38 40 54 50 57 58 57 55 54 54 54 54 54 53 54 54 57
23 23 24 25 26 28 29 28 27 27 28 27 30 31 31 32 33 33 33 33 32 32 32 34 35 38 38 36 36 37 37 45 50 51 51 50 46 42 41 43 45 48 49
21 21 20 21 22 24 24 25 25 24 24 25 26 28 30 31 33 33 32 31 31 31 31 31 32 33 35 36 34 34 34 34 34 40 38 35 36 33 35 37 40 41 43
20 20 19 19 19 20 22 21 22 22 22 22 24 25 28 31 33 33 32 31 30 30 30 30 30 31 32 33 33 30 29 31 31 32 31 31 31 31 31 32 34 34 35
20 20 19 18 17 17 18 20 20 20 19 20 22 24 24 27 30 31 29 29 29 29 29 30 29 29 31 31 29 28 27 27 30 31 31 31 31 31 30 32 29 31 33
22 20 20 19 18 17 17 17 18 19 19 19 19 21 24 24 28 28 27 27 26 26 27 28 29 28 29 29 28 27 25 26 27 27 27 28 28 28 29 28 27 27 29
18 20 20 20 19 19 18 18 18 18 18 18 18 20 21 23 24 25 25 25 24 24 24 24 25 25 25 27 27 26 26 28 28 27 27 27 27 27 27 28 28 26 25
13 13 15 17 19 18 17 18 17 17 17 17 17 18 19 22 22 22 22 23 23 22 22 23 23 23 23 23 23 24 24 25 25 25 24 24 24 24 25 26 28 28 28
16 14 8 13 15 15 16 16 16 15 16 16 17 16 16 19 21 20 21 20 20 19 20 20 19 20 21 21 21 22 21 22 22 21 22 23 24 25 24 24 25 24 26
18 18 18 16 16 14 17 18 17 15 14 15 16 16 16 15 18 18 18 19 17 17 16 16 16 18 15 16 17 18 19 20 20 20 21 22 23 23 22 22 21 21 21
18 18 18 19 17 17 20 20 19 17 15 14 17 16 16 13 14 16 16 16 16 15 12 11 11 11 11 12 13 14 15 15 16 17 18 18 20 20 19 20 20 19 17
19 17 16 17 17 17 15 14 19 18 16 15 17 16 16 16 15 14 14 14 14 14 10 8 7 7 8 9 9 10 11 11 12 14 14 15 16 18 19 18 18 18 16
17 15 15 15 15 15 14 13 9 11 16 15 15 15 15 15 14 13 12 11 11 10 7 7 5 5 6 7 6 7 7 8 8 8 9 11 13 15 16 16 16 15 16
15 12 13 12 10 10 5 9 7 7 6 5 12 14 13 13 13 12 10 7 5 6 5 6 5 4 4 6 5 4 5 4 4 4 5 6 7 11 13 13 12 8 13
16 11 7 5 4 5 5 7 7 5 2 1 4 9 8 12 14 13 11 3 3 4 5 6 5 3 2 4 3 -0 -3 -2 -2 -2 1 3 4 8 10 11 10 7 9
9 10 6 6 6 6 6 7 8 7 5 4 4 1 7 8 -2 -6 -8 -11 -5 1 0 5 5 2 -3 -1 -6 -13 -6 -6 -5 -4 -3 -1 0 5 7 9 10 7 8
6 11 9 11 10 10 9 10 10 8 7 7 4 -2 2 4 1 -0 1 -5 -5 -1 -5 -2 -4 -7 -8 -7 -1 -9 -11 -14 -9 -6 -6 -2 -1 0 6 8 6 7 7
12 13 14 12 13 9 10 11 8 7 9 8 5 6 5 2 8 4 4 -3 -5 -3 -1 -3 -2 -2 -3 -3 -5 -18 -16 -19 -16 -10 -8 -5 -1 1 4 5 2 -1 4
11 8 11 12 11 7 4 6 3 2 1 1 6 8 8 6 5 4 5 8 6 -2 -4 -3 -11 -5 -5 -10 -11 -10 -11 -12 -12 -17 -14 -6 -1 1 2 1 3 -1 -5
10 5 10 5 2 2 -3 -7 -5 1 1 -0 -1 2 4 5 -0 -1 2 4 4 6 4 -3 -7 -2 -2 -10 -16 -12 -6 -13 -14 -14 -19 -9 -3 -2 -2 -1 -1 -2 -9
2 -0 -1 -3 -6 -9 -10 -8 -8 -9 -7 -7 -5 -2 2 2 -1 -7 -6 -3 0 0 3 7 4 0 -2 -4 -8 -6 -10 -9 -14 -15 -17 -14 -14 -12 -7 -2 -4 2 -10
4 3 0 -1 -5 -9 -12 -13 -14 -13 -8 -3 -7 -10 -9 -1 -0 -14 -8 -5 -4 -3 -0 2 3 3 4 -3 -4 -5 -10 -10 -13 -14 -19 -14 -16 -14 -13 -7 -3 -3 -3